<?xml version="1.0" encoding="UTF-8" standalone="no" ?>
<gpx xmlns="http://www.topografix.com/GPX/1/1" xmlns:xsi="http://www.w3.org/2001/XMLSchema-instance" xsi:schemaLocation="http://www.topografix.com/GPX/1/1 http://www.topografix.com/GPX/1/1/gpx.xsd" version="1.1" creator="VisuGPX - https://www.visugpx.com">
  <metadata>
    <name>Tour village perche provence</name>
    <desc><![CDATA[https://youtu.be/9ReH0fuBa60]]></desc>
  </metadata>
  <trk>
    <name><![CDATA[Tour village perche provence]]></name>
    <trkseg>
      <trkpt lat="43.63716" lon="6.64258">
        <ele>422</ele>
      </trkpt>
      <trkpt lat="43.63702" lon="6.64259">
        <ele>421</ele>
      </trkpt>
      <trkpt lat="43.63692" lon="6.64266">
        <ele>419</ele>
      </trkpt>
      <trkpt lat="43.63685" lon="6.64266">
        <ele>419</ele>
      </trkpt>
      <trkpt lat="43.63682" lon="6.64271">
        <ele>418</ele>
      </trkpt>
      <trkpt lat="43.63688" lon="6.64277">
        <ele>417</ele>
      </trkpt>
      <trkpt lat="43.63678" lon="6.64282">
        <ele>416</ele>
        <time>2023-03-07T11:47:03+01:00</time>
      </trkpt>
      <trkpt lat="43.63665" lon="6.64302">
        <ele>411</ele>
        <time>2023-03-07T11:47:13+01:00</time>
      </trkpt>
      <trkpt lat="43.63647" lon="6.64318">
        <ele>407</ele>
        <time>2023-03-07T11:47:22+01:00</time>
      </trkpt>
      <trkpt lat="43.6364" lon="6.64323">
        <ele>407</ele>
        <time>2023-03-07T11:47:31+01:00</time>
      </trkpt>
      <trkpt lat="43.63622" lon="6.64325">
        <ele>405</ele>
        <time>2023-03-07T11:47:41+01:00</time>
      </trkpt>
      <trkpt lat="43.63611" lon="6.64321">
        <ele>405</ele>
        <time>2023-03-07T11:47:50+01:00</time>
      </trkpt>
      <trkpt lat="43.63599" lon="6.64295">
        <ele>407</ele>
        <time>2023-03-07T11:48:00+01:00</time>
      </trkpt>
      <trkpt lat="43.63596" lon="6.64298">
        <ele>406</ele>
        <time>2023-03-07T11:48:09+01:00</time>
      </trkpt>
      <trkpt lat="43.63589" lon="6.64309">
        <ele>405</ele>
        <time>2023-03-07T11:48:18+01:00</time>
      </trkpt>
      <trkpt lat="43.6358" lon="6.6432">
        <ele>404</ele>
      </trkpt>
      <trkpt lat="43.63579" lon="6.64344">
        <ele>401</ele>
        <time>2023-03-07T11:48:27+01:00</time>
      </trkpt>
      <trkpt lat="43.63573" lon="6.64378">
        <ele>395</ele>
        <time>2023-03-07T11:48:37+01:00</time>
      </trkpt>
      <trkpt lat="43.63572" lon="6.64396">
        <ele>392</ele>
      </trkpt>
      <trkpt lat="43.6357" lon="6.64409">
        <ele>389</ele>
        <time>2023-03-07T11:48:46+01:00</time>
      </trkpt>
      <trkpt lat="43.63563" lon="6.64425">
        <ele>385</ele>
        <time>2023-03-07T11:48:55+01:00</time>
      </trkpt>
      <trkpt lat="43.63551" lon="6.64444">
        <ele>380</ele>
        <time>2023-03-07T11:49:04+01:00</time>
      </trkpt>
      <trkpt lat="43.63538" lon="6.64472">
        <ele>374</ele>
        <time>2023-03-07T11:49:14+01:00</time>
      </trkpt>
      <trkpt lat="43.63523" lon="6.64511">
        <ele>369</ele>
        <time>2023-03-07T11:49:23+01:00</time>
      </trkpt>
      <trkpt lat="43.63516" lon="6.64556">
        <ele>367</ele>
        <time>2023-03-07T11:49:33+01:00</time>
      </trkpt>
      <trkpt lat="43.63502" lon="6.64584">
        <ele>365</ele>
        <time>2023-03-07T11:49:42+01:00</time>
      </trkpt>
      <trkpt lat="43.6348" lon="6.64618">
        <ele>363</ele>
        <time>2023-03-07T11:49:52+01:00</time>
      </trkpt>
      <trkpt lat="43.63459" lon="6.64631">
        <ele>361</ele>
        <time>2023-03-07T11:50:01+01:00</time>
      </trkpt>
      <trkpt lat="43.63451" lon="6.64643">
        <ele>360</ele>
        <time>2023-03-07T11:50:10+01:00</time>
      </trkpt>
      <trkpt lat="43.63443" lon="6.64664">
        <ele>359</ele>
        <time>2023-03-07T11:50:19+01:00</time>
      </trkpt>
      <trkpt lat="43.63418" lon="6.64697">
        <ele>356</ele>
        <time>2023-03-07T11:50:29+01:00</time>
      </trkpt>
      <trkpt lat="43.63388" lon="6.64715">
        <ele>353</ele>
        <time>2023-03-07T11:50:38+01:00</time>
      </trkpt>
      <trkpt lat="43.63359" lon="6.64729">
        <ele>350</ele>
        <time>2023-03-07T11:50:47+01:00</time>
      </trkpt>
      <trkpt lat="43.63331" lon="6.6475">
        <ele>350</ele>
        <time>2023-03-07T11:50:56+01:00</time>
      </trkpt>
      <trkpt lat="43.63307" lon="6.64783">
        <ele>346</ele>
        <time>2023-03-07T11:51:06+01:00</time>
      </trkpt>
      <trkpt lat="43.63283" lon="6.64812">
        <ele>342</ele>
        <time>2023-03-07T11:51:15+01:00</time>
      </trkpt>
      <trkpt lat="43.63257" lon="6.64837">
        <ele>340</ele>
        <time>2023-03-07T11:51:25+01:00</time>
      </trkpt>
      <trkpt lat="43.63234" lon="6.6487">
        <ele>340</ele>
        <time>2023-03-07T11:51:34+01:00</time>
      </trkpt>
      <trkpt lat="43.63209" lon="6.64904">
        <ele>338</ele>
        <time>2023-03-07T11:51:43+01:00</time>
      </trkpt>
      <trkpt lat="43.63191" lon="6.64932">
        <ele>337</ele>
        <time>2023-03-07T11:51:53+01:00</time>
      </trkpt>
      <trkpt lat="43.6318" lon="6.64971">
        <ele>336</ele>
        <time>2023-03-07T11:52:02+01:00</time>
      </trkpt>
      <trkpt lat="43.63167" lon="6.65008">
        <ele>335</ele>
        <time>2023-03-07T11:52:11+01:00</time>
      </trkpt>
      <trkpt lat="43.63148" lon="6.65041">
        <ele>334</ele>
        <time>2023-03-07T11:52:20+01:00</time>
      </trkpt>
      <trkpt lat="43.63135" lon="6.65075">
        <ele>332</ele>
        <time>2023-03-07T11:52:29+01:00</time>
      </trkpt>
      <trkpt lat="43.63129" lon="6.65112">
        <ele>333</ele>
        <time>2023-03-07T11:52:39+01:00</time>
      </trkpt>
      <trkpt lat="43.63129" lon="6.65151">
        <ele>332</ele>
        <time>2023-03-07T11:52:48+01:00</time>
      </trkpt>
      <trkpt lat="43.63133" lon="6.65188">
        <ele>332</ele>
        <time>2023-03-07T11:52:58+01:00</time>
      </trkpt>
      <trkpt lat="43.63138" lon="6.65226">
        <ele>332</ele>
        <time>2023-03-07T11:53:07+01:00</time>
      </trkpt>
      <trkpt lat="43.63142" lon="6.65264">
        <ele>333</ele>
        <time>2023-03-07T11:53:16+01:00</time>
      </trkpt>
      <trkpt lat="43.63149" lon="6.65302">
        <ele>334</ele>
        <time>2023-03-07T11:53:26+01:00</time>
      </trkpt>
      <trkpt lat="43.63157" lon="6.65341">
        <ele>334</ele>
        <time>2023-03-07T11:53:35+01:00</time>
      </trkpt>
      <trkpt lat="43.63161" lon="6.65376">
        <ele>335</ele>
        <time>2023-03-07T11:53:45+01:00</time>
      </trkpt>
      <trkpt lat="43.6317" lon="6.65416">
        <ele>335</ele>
        <time>2023-03-07T11:53:54+01:00</time>
      </trkpt>
      <trkpt lat="43.6318" lon="6.65448">
        <ele>336</ele>
        <time>2023-03-07T11:54:03+01:00</time>
      </trkpt>
      <trkpt lat="43.63205" lon="6.6545">
        <ele>337</ele>
        <time>2023-03-07T11:54:13+01:00</time>
      </trkpt>
      <trkpt lat="43.63203" lon="6.65493">
        <ele>336</ele>
        <time>2023-03-07T11:54:22+01:00</time>
      </trkpt>
      <trkpt lat="43.63196" lon="6.65532">
        <ele>334</ele>
        <time>2023-03-07T11:54:31+01:00</time>
      </trkpt>
      <trkpt lat="43.63172" lon="6.65548">
        <ele>332</ele>
        <time>2023-03-07T11:54:40+01:00</time>
      </trkpt>
      <trkpt lat="43.6318" lon="6.65586">
        <ele>334</ele>
        <time>2023-03-07T11:54:49+01:00</time>
      </trkpt>
      <trkpt lat="43.63189" lon="6.65621">
        <ele>335</ele>
        <time>2023-03-07T11:54:59+01:00</time>
      </trkpt>
      <trkpt lat="43.63199" lon="6.65658">
        <ele>335</ele>
        <time>2023-03-07T11:55:08+01:00</time>
      </trkpt>
      <trkpt lat="43.6321" lon="6.65698">
        <ele>334</ele>
        <time>2023-03-07T11:55:17+01:00</time>
      </trkpt>
      <trkpt lat="43.63205" lon="6.65739">
        <ele>333</ele>
        <time>2023-03-07T11:55:27+01:00</time>
      </trkpt>
      <trkpt lat="43.63206" lon="6.6578">
        <ele>332</ele>
        <time>2023-03-07T11:55:36+01:00</time>
      </trkpt>
      <trkpt lat="43.63217" lon="6.65819">
        <ele>334</ele>
        <time>2023-03-07T11:55:46+01:00</time>
      </trkpt>
      <trkpt lat="43.63227" lon="6.65856">
        <ele>336</ele>
        <time>2023-03-07T11:55:55+01:00</time>
      </trkpt>
      <trkpt lat="43.63239" lon="6.65891">
        <ele>336</ele>
        <time>2023-03-07T11:56:04+01:00</time>
      </trkpt>
      <trkpt lat="43.63248" lon="6.65928">
        <ele>336</ele>
        <time>2023-03-07T11:56:13+01:00</time>
      </trkpt>
      <trkpt lat="43.6326" lon="6.65965">
        <ele>335</ele>
        <time>2023-03-07T11:56:23+01:00</time>
      </trkpt>
      <trkpt lat="43.63268" lon="6.66002">
        <ele>334</ele>
        <time>2023-03-07T11:56:32+01:00</time>
      </trkpt>
      <trkpt lat="43.63279" lon="6.66039">
        <ele>333</ele>
        <time>2023-03-07T11:56:41+01:00</time>
      </trkpt>
      <trkpt lat="43.63289" lon="6.66079">
        <ele>332</ele>
        <time>2023-03-07T11:56:50+01:00</time>
      </trkpt>
      <trkpt lat="43.63296" lon="6.66121">
        <ele>331</ele>
        <time>2023-03-07T11:57:00+01:00</time>
      </trkpt>
      <trkpt lat="43.63305" lon="6.66163">
        <ele>332</ele>
        <time>2023-03-07T11:57:09+01:00</time>
      </trkpt>
      <trkpt lat="43.63308" lon="6.66205">
        <ele>331</ele>
        <time>2023-03-07T11:57:19+01:00</time>
      </trkpt>
      <trkpt lat="43.63306" lon="6.66245">
        <ele>330</ele>
        <time>2023-03-07T11:57:28+01:00</time>
      </trkpt>
      <trkpt lat="43.633" lon="6.66285">
        <ele>328</ele>
        <time>2023-03-07T11:57:37+01:00</time>
      </trkpt>
      <trkpt lat="43.63289" lon="6.66325">
        <ele>326</ele>
        <time>2023-03-07T11:57:47+01:00</time>
      </trkpt>
      <trkpt lat="43.63276" lon="6.66361">
        <ele>325</ele>
        <time>2023-03-07T11:57:56+01:00</time>
      </trkpt>
      <trkpt lat="43.63262" lon="6.66394">
        <ele>325</ele>
        <time>2023-03-07T11:58:05+01:00</time>
      </trkpt>
      <trkpt lat="43.63242" lon="6.66424">
        <ele>326</ele>
        <time>2023-03-07T11:58:14+01:00</time>
      </trkpt>
      <trkpt lat="43.63217" lon="6.66454">
        <ele>326</ele>
        <time>2023-03-07T11:58:24+01:00</time>
      </trkpt>
      <trkpt lat="43.63191" lon="6.66477">
        <ele>326</ele>
        <time>2023-03-07T11:58:33+01:00</time>
      </trkpt>
      <trkpt lat="43.63164" lon="6.66495">
        <ele>324</ele>
        <time>2023-03-07T11:58:43+01:00</time>
      </trkpt>
      <trkpt lat="43.63138" lon="6.66503">
        <ele>324</ele>
        <time>2023-03-07T11:58:52+01:00</time>
      </trkpt>
      <trkpt lat="43.6311" lon="6.6651">
        <ele>323</ele>
        <time>2023-03-07T11:59:02+01:00</time>
      </trkpt>
      <trkpt lat="43.63083" lon="6.66514">
        <ele>321</ele>
        <time>2023-03-07T11:59:11+01:00</time>
      </trkpt>
      <trkpt lat="43.63051" lon="6.66519">
        <ele>322</ele>
        <time>2023-03-07T11:59:20+01:00</time>
      </trkpt>
      <trkpt lat="43.63023" lon="6.66521">
        <ele>324</ele>
        <time>2023-03-07T11:59:29+01:00</time>
      </trkpt>
      <trkpt lat="43.62994" lon="6.66525">
        <ele>326</ele>
        <time>2023-03-07T11:59:38+01:00</time>
      </trkpt>
      <trkpt lat="43.62967" lon="6.66529">
        <ele>327</ele>
        <time>2023-03-07T11:59:48+01:00</time>
      </trkpt>
      <trkpt lat="43.62939" lon="6.66534">
        <ele>326</ele>
        <time>2023-03-07T11:59:57+01:00</time>
      </trkpt>
      <trkpt lat="43.62907" lon="6.6654">
        <ele>325</ele>
        <time>2023-03-07T12:00:07+01:00</time>
      </trkpt>
      <trkpt lat="43.6288" lon="6.66547">
        <ele>327</ele>
        <time>2023-03-07T12:00:16+01:00</time>
      </trkpt>
      <trkpt lat="43.62854" lon="6.66557">
        <ele>326</ele>
        <time>2023-03-07T12:00:26+01:00</time>
      </trkpt>
      <trkpt lat="43.6283" lon="6.66577">
        <ele>326</ele>
        <time>2023-03-07T12:00:35+01:00</time>
      </trkpt>
      <trkpt lat="43.62808" lon="6.66599">
        <ele>324</ele>
        <time>2023-03-07T12:00:44+01:00</time>
      </trkpt>
      <trkpt lat="43.62787" lon="6.66627">
        <ele>324</ele>
        <time>2023-03-07T12:00:53+01:00</time>
      </trkpt>
      <trkpt lat="43.62769" lon="6.66658">
        <ele>324</ele>
        <time>2023-03-07T12:01:03+01:00</time>
      </trkpt>
      <trkpt lat="43.62752" lon="6.66692">
        <ele>324</ele>
        <time>2023-03-07T12:01:12+01:00</time>
      </trkpt>
      <trkpt lat="43.62736" lon="6.66725">
        <ele>325</ele>
        <time>2023-03-07T12:01:22+01:00</time>
      </trkpt>
      <trkpt lat="43.62719" lon="6.66755">
        <ele>324</ele>
        <time>2023-03-07T12:01:31+01:00</time>
      </trkpt>
      <trkpt lat="43.62703" lon="6.66789">
        <ele>325</ele>
        <time>2023-03-07T12:01:40+01:00</time>
      </trkpt>
      <trkpt lat="43.62688" lon="6.66822">
        <ele>325</ele>
        <time>2023-03-07T12:01:50+01:00</time>
      </trkpt>
      <trkpt lat="43.62677" lon="6.66857">
        <ele>325</ele>
        <time>2023-03-07T12:01:59+01:00</time>
      </trkpt>
      <trkpt lat="43.62663" lon="6.66893">
        <ele>324</ele>
        <time>2023-03-07T12:02:08+01:00</time>
      </trkpt>
      <trkpt lat="43.62651" lon="6.66928">
        <ele>324</ele>
        <time>2023-03-07T12:02:18+01:00</time>
      </trkpt>
      <trkpt lat="43.62646" lon="6.66967">
        <ele>324</ele>
        <time>2023-03-07T12:02:27+01:00</time>
      </trkpt>
      <trkpt lat="43.62636" lon="6.67005">
        <ele>323</ele>
        <time>2023-03-07T12:02:37+01:00</time>
      </trkpt>
      <trkpt lat="43.62632" lon="6.67046">
        <ele>321</ele>
        <time>2023-03-07T12:02:46+01:00</time>
      </trkpt>
      <trkpt lat="43.62633" lon="6.67081">
        <ele>320</ele>
        <time>2023-03-07T12:02:55+01:00</time>
      </trkpt>
      <trkpt lat="43.62637" lon="6.6712">
        <ele>321</ele>
        <time>2023-03-07T12:03:04+01:00</time>
      </trkpt>
      <trkpt lat="43.62654" lon="6.67133">
        <ele>324</ele>
        <time>2023-03-07T12:03:14+01:00</time>
      </trkpt>
      <trkpt lat="43.62674" lon="6.67126">
        <ele>326</ele>
        <time>2023-03-07T12:03:23+01:00</time>
      </trkpt>
      <trkpt lat="43.62697" lon="6.67119">
        <ele>328</ele>
        <time>2023-03-07T12:03:32+01:00</time>
      </trkpt>
      <trkpt lat="43.62712" lon="6.67116">
        <ele>330</ele>
        <time>2023-03-07T12:03:42+01:00</time>
      </trkpt>
      <trkpt lat="43.62727" lon="6.67125">
        <ele>332</ele>
        <time>2023-03-07T12:03:51+01:00</time>
      </trkpt>
      <trkpt lat="43.62726" lon="6.6716">
        <ele>332</ele>
        <time>2023-03-07T12:04:00+01:00</time>
      </trkpt>
      <trkpt lat="43.62731" lon="6.67195">
        <ele>333</ele>
        <time>2023-03-07T12:04:10+01:00</time>
      </trkpt>
      <trkpt lat="43.62752" lon="6.67218">
        <ele>334</ele>
        <time>2023-03-07T12:04:19+01:00</time>
      </trkpt>
      <trkpt lat="43.62773" lon="6.67233">
        <ele>335</ele>
        <time>2023-03-07T12:04:28+01:00</time>
      </trkpt>
      <trkpt lat="43.62794" lon="6.6725">
        <ele>335</ele>
        <time>2023-03-07T12:04:37+01:00</time>
      </trkpt>
      <trkpt lat="43.62815" lon="6.67263">
        <ele>336</ele>
        <time>2023-03-07T12:04:47+01:00</time>
      </trkpt>
      <trkpt lat="43.62837" lon="6.67278">
        <ele>339</ele>
        <time>2023-03-07T12:04:56+01:00</time>
      </trkpt>
      <trkpt lat="43.62859" lon="6.67291">
        <ele>340</ele>
        <time>2023-03-07T12:05:05+01:00</time>
      </trkpt>
      <trkpt lat="43.62883" lon="6.67309">
        <ele>341</ele>
        <time>2023-03-07T12:05:14+01:00</time>
      </trkpt>
      <trkpt lat="43.62907" lon="6.6733">
        <ele>340</ele>
        <time>2023-03-07T12:05:23+01:00</time>
      </trkpt>
      <trkpt lat="43.62928" lon="6.6735">
        <ele>339</ele>
        <time>2023-03-07T12:05:33+01:00</time>
      </trkpt>
      <trkpt lat="43.6295" lon="6.67374">
        <ele>338</ele>
        <time>2023-03-07T12:05:42+01:00</time>
      </trkpt>
      <trkpt lat="43.62966" lon="6.67394">
        <ele>337</ele>
        <time>2023-03-07T12:05:51+01:00</time>
      </trkpt>
      <trkpt lat="43.62988" lon="6.67409">
        <ele>338</ele>
        <time>2023-03-07T12:06:00+01:00</time>
      </trkpt>
      <trkpt lat="43.63014" lon="6.67398">
        <ele>341</ele>
        <time>2023-03-07T12:06:09+01:00</time>
      </trkpt>
      <trkpt lat="43.63037" lon="6.6738">
        <ele>343</ele>
        <time>2023-03-07T12:06:19+01:00</time>
      </trkpt>
      <trkpt lat="43.63058" lon="6.67378">
        <ele>341</ele>
        <time>2023-03-07T12:06:28+01:00</time>
      </trkpt>
      <trkpt lat="43.63079" lon="6.67392">
        <ele>341</ele>
        <time>2023-03-07T12:06:37+01:00</time>
      </trkpt>
      <trkpt lat="43.63105" lon="6.67406">
        <ele>343</ele>
        <time>2023-03-07T12:06:46+01:00</time>
      </trkpt>
      <trkpt lat="43.63133" lon="6.67426">
        <ele>344</ele>
        <time>2023-03-07T12:06:56+01:00</time>
      </trkpt>
      <trkpt lat="43.63156" lon="6.67433">
        <ele>345</ele>
        <time>2023-03-07T12:07:05+01:00</time>
      </trkpt>
      <trkpt lat="43.63179" lon="6.67427">
        <ele>348</ele>
        <time>2023-03-07T12:07:14+01:00</time>
      </trkpt>
      <trkpt lat="43.63205" lon="6.67422">
        <ele>351</ele>
        <time>2023-03-07T12:07:24+01:00</time>
      </trkpt>
      <trkpt lat="43.63227" lon="6.6742">
        <ele>352</ele>
        <time>2023-03-07T12:07:33+01:00</time>
      </trkpt>
      <trkpt lat="43.63251" lon="6.67419">
        <ele>352</ele>
        <time>2023-03-07T12:07:42+01:00</time>
      </trkpt>
      <trkpt lat="43.63279" lon="6.67411">
        <ele>355</ele>
        <time>2023-03-07T12:07:51+01:00</time>
      </trkpt>
      <trkpt lat="43.63297" lon="6.67411">
        <ele>355</ele>
        <time>2023-03-07T12:08:01+01:00</time>
      </trkpt>
      <trkpt lat="43.63309" lon="6.67413">
        <ele>354</ele>
        <time>2023-03-07T12:08:11+01:00</time>
      </trkpt>
      <trkpt lat="43.63324" lon="6.67414">
        <ele>353</ele>
        <time>2023-03-07T12:08:21+01:00</time>
      </trkpt>
      <trkpt lat="43.63338" lon="6.67409">
        <ele>352</ele>
        <time>2023-03-07T12:08:30+01:00</time>
      </trkpt>
      <trkpt lat="43.63353" lon="6.67401">
        <ele>351</ele>
        <time>2023-03-07T12:08:39+01:00</time>
      </trkpt>
      <trkpt lat="43.6337" lon="6.67382">
        <ele>353</ele>
        <time>2023-03-07T12:08:48+01:00</time>
      </trkpt>
      <trkpt lat="43.63381" lon="6.67358">
        <ele>356</ele>
        <time>2023-03-07T12:08:58+01:00</time>
      </trkpt>
      <trkpt lat="43.63391" lon="6.67337">
        <ele>357</ele>
        <time>2023-03-07T12:09:07+01:00</time>
      </trkpt>
      <trkpt lat="43.63403" lon="6.67319">
        <ele>360</ele>
        <time>2023-03-07T12:09:17+01:00</time>
      </trkpt>
      <trkpt lat="43.63414" lon="6.67303">
        <ele>361</ele>
        <time>2023-03-07T12:09:26+01:00</time>
      </trkpt>
      <trkpt lat="43.63433" lon="6.67297">
        <ele>362</ele>
        <time>2023-03-07T12:09:36+01:00</time>
      </trkpt>
      <trkpt lat="43.63453" lon="6.6729">
        <ele>362</ele>
        <time>2023-03-07T12:09:45+01:00</time>
      </trkpt>
      <trkpt lat="43.63473" lon="6.67274">
        <ele>363</ele>
        <time>2023-03-07T12:09:54+01:00</time>
      </trkpt>
      <trkpt lat="43.63495" lon="6.67254">
        <ele>364</ele>
        <time>2023-03-07T12:10:03+01:00</time>
      </trkpt>
      <trkpt lat="43.63513" lon="6.67231">
        <ele>366</ele>
        <time>2023-03-07T12:10:13+01:00</time>
      </trkpt>
      <trkpt lat="43.6353" lon="6.67206">
        <ele>367</ele>
        <time>2023-03-07T12:10:22+01:00</time>
      </trkpt>
      <trkpt lat="43.63547" lon="6.67186">
        <ele>368</ele>
        <time>2023-03-07T12:10:31+01:00</time>
      </trkpt>
      <trkpt lat="43.63564" lon="6.67202">
        <ele>366</ele>
        <time>2023-03-07T12:10:41+01:00</time>
      </trkpt>
      <trkpt lat="43.63581" lon="6.67222">
        <ele>365</ele>
        <time>2023-03-07T12:10:50+01:00</time>
      </trkpt>
      <trkpt lat="43.63602" lon="6.67223">
        <ele>367</ele>
        <time>2023-03-07T12:11:00+01:00</time>
      </trkpt>
      <trkpt lat="43.63616" lon="6.67213">
        <ele>372</ele>
        <time>2023-03-07T12:11:09+01:00</time>
      </trkpt>
      <trkpt lat="43.63631" lon="6.67202">
        <ele>377</ele>
        <time>2023-03-07T12:11:19+01:00</time>
      </trkpt>
      <trkpt lat="43.63648" lon="6.67193">
        <ele>382</ele>
        <time>2023-03-07T12:11:29+01:00</time>
      </trkpt>
      <trkpt lat="43.63662" lon="6.67189">
        <ele>383</ele>
        <time>2023-03-07T12:11:39+01:00</time>
      </trkpt>
      <trkpt lat="43.63678" lon="6.67197">
        <ele>385</ele>
        <time>2023-03-07T12:11:49+01:00</time>
      </trkpt>
      <trkpt lat="43.63689" lon="6.67214">
        <ele>384</ele>
        <time>2023-03-07T12:11:58+01:00</time>
      </trkpt>
      <trkpt lat="43.63702" lon="6.67234">
        <ele>382</ele>
        <time>2023-03-07T12:12:07+01:00</time>
      </trkpt>
      <trkpt lat="43.63719" lon="6.67243">
        <ele>383</ele>
        <time>2023-03-07T12:12:16+01:00</time>
      </trkpt>
      <trkpt lat="43.63747" lon="6.67246">
        <ele>387</ele>
        <time>2023-03-07T12:12:26+01:00</time>
      </trkpt>
      <trkpt lat="43.63769" lon="6.67253">
        <ele>388</ele>
        <time>2023-03-07T12:12:35+01:00</time>
      </trkpt>
      <trkpt lat="43.63783" lon="6.67268">
        <ele>385</ele>
        <time>2023-03-07T12:12:45+01:00</time>
      </trkpt>
      <trkpt lat="43.63783" lon="6.67291">
        <ele>385</ele>
        <time>2023-03-07T12:12:54+01:00</time>
      </trkpt>
      <trkpt lat="43.63768" lon="6.67313">
        <ele>386</ele>
        <time>2023-03-07T12:13:04+01:00</time>
      </trkpt>
      <trkpt lat="43.63751" lon="6.67335">
        <ele>387</ele>
        <time>2023-03-07T12:13:13+01:00</time>
      </trkpt>
      <trkpt lat="43.63735" lon="6.67358">
        <ele>388</ele>
        <time>2023-03-07T12:13:22+01:00</time>
      </trkpt>
      <trkpt lat="43.63716" lon="6.67381">
        <ele>388</ele>
        <time>2023-03-07T12:13:31+01:00</time>
      </trkpt>
      <trkpt lat="43.63688" lon="6.67408">
        <ele>387</ele>
        <time>2023-03-07T12:13:40+01:00</time>
      </trkpt>
      <trkpt lat="43.63668" lon="6.67442">
        <ele>386</ele>
        <time>2023-03-07T12:13:50+01:00</time>
      </trkpt>
      <trkpt lat="43.63646" lon="6.67496">
        <ele>382</ele>
        <time>2023-03-07T12:13:59+01:00</time>
      </trkpt>
      <trkpt lat="43.63636" lon="6.67541">
        <ele>380</ele>
        <time>2023-03-07T12:14:08+01:00</time>
      </trkpt>
      <trkpt lat="43.63638" lon="6.67578">
        <ele>380</ele>
        <time>2023-03-07T12:14:18+01:00</time>
      </trkpt>
      <trkpt lat="43.63642" lon="6.67609">
        <ele>383</ele>
        <time>2023-03-07T12:14:27+01:00</time>
      </trkpt>
      <trkpt lat="43.6363" lon="6.67633">
        <ele>384</ele>
        <time>2023-03-07T12:14:36+01:00</time>
      </trkpt>
      <trkpt lat="43.6361" lon="6.67654">
        <ele>385</ele>
        <time>2023-03-07T12:14:46+01:00</time>
      </trkpt>
      <trkpt lat="43.63589" lon="6.67682">
        <ele>386</ele>
        <time>2023-03-07T12:14:55+01:00</time>
      </trkpt>
      <trkpt lat="43.63571" lon="6.67706">
        <ele>386</ele>
        <time>2023-03-07T12:15:04+01:00</time>
      </trkpt>
      <trkpt lat="43.63554" lon="6.67725">
        <ele>385</ele>
        <time>2023-03-07T12:15:14+01:00</time>
      </trkpt>
      <trkpt lat="43.63536" lon="6.67746">
        <ele>385</ele>
        <time>2023-03-07T12:15:23+01:00</time>
      </trkpt>
      <trkpt lat="43.63514" lon="6.6777">
        <ele>386</ele>
        <time>2023-03-07T12:15:32+01:00</time>
      </trkpt>
      <trkpt lat="43.63486" lon="6.67803">
        <ele>384</ele>
        <time>2023-03-07T12:15:42+01:00</time>
      </trkpt>
      <trkpt lat="43.63464" lon="6.67838">
        <ele>383</ele>
        <time>2023-03-07T12:15:51+01:00</time>
      </trkpt>
      <trkpt lat="43.63447" lon="6.67869">
        <ele>383</ele>
        <time>2023-03-07T12:16:00+01:00</time>
      </trkpt>
      <trkpt lat="43.63433" lon="6.67902">
        <ele>383</ele>
        <time>2023-03-07T12:16:10+01:00</time>
      </trkpt>
      <trkpt lat="43.63421" lon="6.67934">
        <ele>382</ele>
        <time>2023-03-07T12:16:19+01:00</time>
      </trkpt>
      <trkpt lat="43.63414" lon="6.67972">
        <ele>382</ele>
        <time>2023-03-07T12:16:28+01:00</time>
      </trkpt>
      <trkpt lat="43.6341" lon="6.68012">
        <ele>382</ele>
        <time>2023-03-07T12:16:38+01:00</time>
      </trkpt>
      <trkpt lat="43.63415" lon="6.68031">
        <ele>385</ele>
        <time>2023-03-07T12:16:47+01:00</time>
      </trkpt>
      <trkpt lat="43.6342" lon="6.68047">
        <ele>388</ele>
        <time>2023-03-07T12:16:56+01:00</time>
      </trkpt>
      <trkpt lat="43.63424" lon="6.68064">
        <ele>390</ele>
        <time>2023-03-07T12:17:06+01:00</time>
      </trkpt>
      <trkpt lat="43.6343" lon="6.68081">
        <ele>392</ele>
        <time>2023-03-07T12:17:15+01:00</time>
      </trkpt>
      <trkpt lat="43.63439" lon="6.68095">
        <ele>393</ele>
        <time>2023-03-07T12:17:24+01:00</time>
      </trkpt>
      <trkpt lat="43.63451" lon="6.68117">
        <ele>395</ele>
        <time>2023-03-07T12:17:34+01:00</time>
      </trkpt>
      <trkpt lat="43.63463" lon="6.68138">
        <ele>399</ele>
        <time>2023-03-07T12:17:43+01:00</time>
      </trkpt>
      <trkpt lat="43.6345" lon="6.68153">
        <ele>395</ele>
        <time>2023-03-07T12:17:52+01:00</time>
      </trkpt>
      <trkpt lat="43.63432" lon="6.68158">
        <ele>390</ele>
        <time>2023-03-07T12:18:01+01:00</time>
      </trkpt>
      <trkpt lat="43.63416" lon="6.68178">
        <ele>386</ele>
        <time>2023-03-07T12:18:11+01:00</time>
      </trkpt>
      <trkpt lat="43.63395" lon="6.68202">
        <ele>382</ele>
        <time>2023-03-07T12:18:21+01:00</time>
      </trkpt>
      <trkpt lat="43.63377" lon="6.68232">
        <ele>378</ele>
        <time>2023-03-07T12:18:30+01:00</time>
      </trkpt>
      <trkpt lat="43.63364" lon="6.68247">
        <ele>376</ele>
        <time>2023-03-07T12:18:39+01:00</time>
      </trkpt>
      <trkpt lat="43.63343" lon="6.68255">
        <ele>369</ele>
        <time>2023-03-07T12:18:48+01:00</time>
      </trkpt>
      <trkpt lat="43.6332" lon="6.68255">
        <ele>361</ele>
        <time>2023-03-07T12:18:58+01:00</time>
      </trkpt>
      <trkpt lat="43.63295" lon="6.68251">
        <ele>355</ele>
        <time>2023-03-07T12:19:07+01:00</time>
      </trkpt>
      <trkpt lat="43.63257" lon="6.68269">
        <ele>348</ele>
        <time>2023-03-07T12:19:16+01:00</time>
      </trkpt>
      <trkpt lat="43.63243" lon="6.68286">
        <ele>346</ele>
        <time>2023-03-07T12:19:25+01:00</time>
      </trkpt>
      <trkpt lat="43.63242" lon="6.68325">
        <ele>346</ele>
        <time>2023-03-07T12:19:35+01:00</time>
      </trkpt>
      <trkpt lat="43.63243" lon="6.68352">
        <ele>345</ele>
        <time>2023-03-07T12:19:44+01:00</time>
      </trkpt>
      <trkpt lat="43.63244" lon="6.68387">
        <ele>344</ele>
        <time>2023-03-07T12:19:53+01:00</time>
      </trkpt>
      <trkpt lat="43.63244" lon="6.68417">
        <ele>343</ele>
        <time>2023-03-07T12:20:02+01:00</time>
      </trkpt>
      <trkpt lat="43.63241" lon="6.68453">
        <ele>339</ele>
        <time>2023-03-07T12:20:12+01:00</time>
      </trkpt>
      <trkpt lat="43.63232" lon="6.68485">
        <ele>335</ele>
        <time>2023-03-07T12:20:21+01:00</time>
      </trkpt>
      <trkpt lat="43.63208" lon="6.68504">
        <ele>330</ele>
        <time>2023-03-07T12:20:30+01:00</time>
      </trkpt>
      <trkpt lat="43.63179" lon="6.68508">
        <ele>323</ele>
        <time>2023-03-07T12:20:39+01:00</time>
      </trkpt>
      <trkpt lat="43.63158" lon="6.68519">
        <ele>318</ele>
        <time>2023-03-07T12:20:49+01:00</time>
      </trkpt>
      <trkpt lat="43.63138" lon="6.68532">
        <ele>313</ele>
        <time>2023-03-07T12:20:58+01:00</time>
      </trkpt>
      <trkpt lat="43.63093" lon="6.68526">
        <ele>305</ele>
        <time>2023-03-07T12:21:07+01:00</time>
      </trkpt>
      <trkpt lat="43.63086" lon="6.68524">
        <ele>304</ele>
        <time>2023-03-07T12:21:26+01:00</time>
      </trkpt>
      <trkpt lat="43.63072" lon="6.68508">
        <ele>303</ele>
        <time>2023-03-07T12:22:05+01:00</time>
      </trkpt>
      <trkpt lat="43.63061" lon="6.68492">
        <ele>303</ele>
        <time>2023-03-07T12:22:15+01:00</time>
      </trkpt>
      <trkpt lat="43.63052" lon="6.68477">
        <ele>303</ele>
        <time>2023-03-07T12:22:24+01:00</time>
      </trkpt>
      <trkpt lat="43.63026" lon="6.68468">
        <ele>301</ele>
        <time>2023-03-07T12:22:34+01:00</time>
      </trkpt>
      <trkpt lat="43.62998" lon="6.68473">
        <ele>299</ele>
        <time>2023-03-07T12:22:43+01:00</time>
      </trkpt>
      <trkpt lat="43.62966" lon="6.68488">
        <ele>295</ele>
        <time>2023-03-07T12:22:52+01:00</time>
      </trkpt>
      <trkpt lat="43.62947" lon="6.68514">
        <ele>293</ele>
        <time>2023-03-07T12:23:01+01:00</time>
      </trkpt>
      <trkpt lat="43.62941" lon="6.68563">
        <ele>291</ele>
        <time>2023-03-07T12:23:10+01:00</time>
      </trkpt>
      <trkpt lat="43.62938" lon="6.68604">
        <ele>289</ele>
        <time>2023-03-07T12:23:20+01:00</time>
      </trkpt>
      <trkpt lat="43.6292" lon="6.6864">
        <ele>281</ele>
        <time>2023-03-07T12:23:29+01:00</time>
      </trkpt>
      <trkpt lat="43.62924" lon="6.68668">
        <ele>279</ele>
        <time>2023-03-07T12:23:38+01:00</time>
      </trkpt>
      <trkpt lat="43.62935" lon="6.68685">
        <ele>280</ele>
        <time>2023-03-07T12:23:47+01:00</time>
      </trkpt>
      <trkpt lat="43.62962" lon="6.68696">
        <ele>280</ele>
        <time>2023-03-07T12:23:56+01:00</time>
      </trkpt>
      <trkpt lat="43.62957" lon="6.68715">
        <ele>281</ele>
        <time>2023-03-07T12:24:06+01:00</time>
      </trkpt>
      <trkpt lat="43.62939" lon="6.68733">
        <ele>284</ele>
        <time>2023-03-07T12:24:15+01:00</time>
      </trkpt>
      <trkpt lat="43.62921" lon="6.68736">
        <ele>285</ele>
        <time>2023-03-07T12:24:24+01:00</time>
      </trkpt>
      <trkpt lat="43.62904" lon="6.68734">
        <ele>286</ele>
        <time>2023-03-07T12:24:33+01:00</time>
      </trkpt>
      <trkpt lat="43.62885" lon="6.6874">
        <ele>288</ele>
        <time>2023-03-07T12:24:42+01:00</time>
      </trkpt>
      <trkpt lat="43.62865" lon="6.68768">
        <ele>288</ele>
        <time>2023-03-07T12:24:52+01:00</time>
      </trkpt>
      <trkpt lat="43.62853" lon="6.68797">
        <ele>285</ele>
        <time>2023-03-07T12:25:01+01:00</time>
      </trkpt>
      <trkpt lat="43.62857" lon="6.68821">
        <ele>286</ele>
      </trkpt>
      <trkpt lat="43.62846" lon="6.68845">
        <ele>288</ele>
        <time>2023-03-07T12:25:11+01:00</time>
      </trkpt>
      <trkpt lat="43.6283" lon="6.68862">
        <ele>290</ele>
        <time>2023-03-07T12:25:20+01:00</time>
      </trkpt>
      <trkpt lat="43.62816" lon="6.68863">
        <ele>290</ele>
        <time>2023-03-07T12:25:30+01:00</time>
      </trkpt>
      <trkpt lat="43.62807" lon="6.68874">
        <ele>291</ele>
        <time>2023-03-07T12:25:39+01:00</time>
      </trkpt>
      <trkpt lat="43.62799" lon="6.68889">
        <ele>292</ele>
        <time>2023-03-07T12:25:49+01:00</time>
      </trkpt>
      <trkpt lat="43.62795" lon="6.68915">
        <ele>294</ele>
        <time>2023-03-07T12:25:58+01:00</time>
      </trkpt>
      <trkpt lat="43.62781" lon="6.68948">
        <ele>296</ele>
        <time>2023-03-07T12:26:07+01:00</time>
      </trkpt>
      <trkpt lat="43.62767" lon="6.68979">
        <ele>298</ele>
        <time>2023-03-07T12:26:17+01:00</time>
      </trkpt>
      <trkpt lat="43.62759" lon="6.68997">
        <ele>300</ele>
        <time>2023-03-07T12:26:26+01:00</time>
      </trkpt>
      <trkpt lat="43.62752" lon="6.69014">
        <ele>303</ele>
        <time>2023-03-07T12:26:35+01:00</time>
      </trkpt>
      <trkpt lat="43.62745" lon="6.69029">
        <ele>306</ele>
        <time>2023-03-07T12:26:45+01:00</time>
      </trkpt>
      <trkpt lat="43.62736" lon="6.69042">
        <ele>310</ele>
        <time>2023-03-07T12:26:54+01:00</time>
      </trkpt>
      <trkpt lat="43.62727" lon="6.69055">
        <ele>313</ele>
        <time>2023-03-07T12:27:04+01:00</time>
      </trkpt>
      <trkpt lat="43.62714" lon="6.69062">
        <ele>314</ele>
        <time>2023-03-07T12:27:13+01:00</time>
      </trkpt>
      <trkpt lat="43.62704" lon="6.69075">
        <ele>316</ele>
        <time>2023-03-07T12:27:23+01:00</time>
      </trkpt>
      <trkpt lat="43.62697" lon="6.69091">
        <ele>318</ele>
        <time>2023-03-07T12:27:32+01:00</time>
      </trkpt>
      <trkpt lat="43.62688" lon="6.69106">
        <ele>320</ele>
        <time>2023-03-07T12:27:42+01:00</time>
      </trkpt>
      <trkpt lat="43.6268" lon="6.69122">
        <ele>322</ele>
        <time>2023-03-07T12:27:51+01:00</time>
      </trkpt>
      <trkpt lat="43.62668" lon="6.69138">
        <ele>323</ele>
        <time>2023-03-07T12:28:01+01:00</time>
      </trkpt>
      <trkpt lat="43.62658" lon="6.69153">
        <ele>324</ele>
        <time>2023-03-07T12:28:10+01:00</time>
      </trkpt>
      <trkpt lat="43.62646" lon="6.69181">
        <ele>326</ele>
        <time>2023-03-07T12:28:19+01:00</time>
      </trkpt>
      <trkpt lat="43.62635" lon="6.69204">
        <ele>328</ele>
        <time>2023-03-07T12:28:29+01:00</time>
      </trkpt>
      <trkpt lat="43.62623" lon="6.69221">
        <ele>330</ele>
        <time>2023-03-07T12:28:38+01:00</time>
      </trkpt>
      <trkpt lat="43.62605" lon="6.69239">
        <ele>331</ele>
        <time>2023-03-07T12:28:48+01:00</time>
      </trkpt>
      <trkpt lat="43.62593" lon="6.6925">
        <ele>332</ele>
        <time>2023-03-07T12:28:57+01:00</time>
      </trkpt>
      <trkpt lat="43.62579" lon="6.69274">
        <ele>333</ele>
        <time>2023-03-07T12:29:07+01:00</time>
      </trkpt>
      <trkpt lat="43.62563" lon="6.69307">
        <ele>335</ele>
        <time>2023-03-07T12:29:16+01:00</time>
      </trkpt>
      <trkpt lat="43.62557" lon="6.69333">
        <ele>338</ele>
        <time>2023-03-07T12:29:25+01:00</time>
      </trkpt>
      <trkpt lat="43.62551" lon="6.69352">
        <ele>341</ele>
        <time>2023-03-07T12:29:35+01:00</time>
      </trkpt>
      <trkpt lat="43.62551" lon="6.6937">
        <ele>344</ele>
        <time>2023-03-07T12:29:44+01:00</time>
      </trkpt>
      <trkpt lat="43.62551" lon="6.69388">
        <ele>347</ele>
        <time>2023-03-07T12:29:53+01:00</time>
      </trkpt>
      <trkpt lat="43.62547" lon="6.69409">
        <ele>350</ele>
        <time>2023-03-07T12:30:03+01:00</time>
      </trkpt>
      <trkpt lat="43.62529" lon="6.69418">
        <ele>346</ele>
        <time>2023-03-07T12:30:12+01:00</time>
      </trkpt>
      <trkpt lat="43.62521" lon="6.69431">
        <ele>350</ele>
        <time>2023-03-07T12:30:22+01:00</time>
      </trkpt>
      <trkpt lat="43.62522" lon="6.6943">
        <ele>349</ele>
        <time>2023-03-07T12:30:35+01:00</time>
      </trkpt>
      <trkpt lat="43.62523" lon="6.69432">
        <ele>350</ele>
        <time>2023-03-07T12:30:44+01:00</time>
      </trkpt>
      <trkpt lat="43.62524" lon="6.6943">
        <ele>349</ele>
        <time>2023-03-07T12:30:54+01:00</time>
      </trkpt>
      <trkpt lat="43.62523" lon="6.69433">
        <ele>350</ele>
        <time>2023-03-07T12:31:04+01:00</time>
      </trkpt>
      <trkpt lat="43.62524" lon="6.69431">
        <ele>350</ele>
        <time>2023-03-07T12:31:14+01:00</time>
      </trkpt>
      <trkpt lat="43.62519" lon="6.6943">
        <ele>350</ele>
        <time>2023-03-07T12:31:23+01:00</time>
      </trkpt>
      <trkpt lat="43.62506" lon="6.6943">
        <ele>350</ele>
        <time>2023-03-07T12:31:33+01:00</time>
      </trkpt>
      <trkpt lat="43.62493" lon="6.69424">
        <ele>349</ele>
        <time>2023-03-07T12:31:42+01:00</time>
      </trkpt>
      <trkpt lat="43.62484" lon="6.6943">
        <ele>353</ele>
        <time>2023-03-07T12:31:51+01:00</time>
      </trkpt>
      <trkpt lat="43.62486" lon="6.69441">
        <ele>358</ele>
        <time>2023-03-07T12:32:01+01:00</time>
      </trkpt>
      <trkpt lat="43.62498" lon="6.6944">
        <ele>355</ele>
        <time>2023-03-07T12:32:11+01:00</time>
      </trkpt>
      <trkpt lat="43.62507" lon="6.69451">
        <ele>358</ele>
        <time>2023-03-07T12:32:21+01:00</time>
      </trkpt>
      <trkpt lat="43.62508" lon="6.6947">
        <ele>362</ele>
        <time>2023-03-07T12:32:31+01:00</time>
      </trkpt>
      <trkpt lat="43.62507" lon="6.69485">
        <ele>365</ele>
        <time>2023-03-07T12:32:40+01:00</time>
      </trkpt>
      <trkpt lat="43.62504" lon="6.69499">
        <ele>368</ele>
        <time>2023-03-07T12:32:50+01:00</time>
      </trkpt>
      <trkpt lat="43.62498" lon="6.69515">
        <ele>369</ele>
        <time>2023-03-07T12:32:59+01:00</time>
      </trkpt>
      <trkpt lat="43.62487" lon="6.69525">
        <ele>370</ele>
        <time>2023-03-07T12:33:09+01:00</time>
      </trkpt>
      <trkpt lat="43.6247" lon="6.69529">
        <ele>370</ele>
        <time>2023-03-07T12:33:19+01:00</time>
      </trkpt>
      <trkpt lat="43.62446" lon="6.69531">
        <ele>368</ele>
        <time>2023-03-07T12:33:29+01:00</time>
      </trkpt>
      <trkpt lat="43.62424" lon="6.69536">
        <ele>364</ele>
        <time>2023-03-07T12:33:38+01:00</time>
      </trkpt>
      <trkpt lat="43.624" lon="6.69538">
        <ele>358</ele>
        <time>2023-03-07T12:33:47+01:00</time>
      </trkpt>
      <trkpt lat="43.62389" lon="6.69568">
        <ele>355</ele>
        <time>2023-03-07T12:33:57+01:00</time>
      </trkpt>
      <trkpt lat="43.62382" lon="6.69612">
        <ele>354</ele>
        <time>2023-03-07T12:34:06+01:00</time>
      </trkpt>
      <trkpt lat="43.62385" lon="6.6965">
        <ele>356</ele>
        <time>2023-03-07T12:34:16+01:00</time>
      </trkpt>
      <trkpt lat="43.62389" lon="6.6967">
        <ele>357</ele>
        <time>2023-03-07T12:34:25+01:00</time>
      </trkpt>
      <trkpt lat="43.62394" lon="6.69694">
        <ele>356</ele>
        <time>2023-03-07T12:34:34+01:00</time>
      </trkpt>
      <trkpt lat="43.62407" lon="6.69713">
        <ele>358</ele>
        <time>2023-03-07T12:34:44+01:00</time>
      </trkpt>
      <trkpt lat="43.62405" lon="6.69726">
        <ele>357</ele>
        <time>2023-03-07T12:34:53+01:00</time>
      </trkpt>
      <trkpt lat="43.62384" lon="6.69738">
        <ele>355</ele>
        <time>2023-03-07T12:35:03+01:00</time>
      </trkpt>
      <trkpt lat="43.6237" lon="6.6976">
        <ele>356</ele>
        <time>2023-03-07T12:35:12+01:00</time>
      </trkpt>
      <trkpt lat="43.62357" lon="6.69782">
        <ele>357</ele>
        <time>2023-03-07T12:35:21+01:00</time>
      </trkpt>
      <trkpt lat="43.62342" lon="6.69813">
        <ele>357</ele>
        <time>2023-03-07T12:35:30+01:00</time>
      </trkpt>
      <trkpt lat="43.62333" lon="6.69847">
        <ele>358</ele>
        <time>2023-03-07T12:35:40+01:00</time>
      </trkpt>
      <trkpt lat="43.6232" lon="6.69884">
        <ele>358</ele>
        <time>2023-03-07T12:35:49+01:00</time>
      </trkpt>
      <trkpt lat="43.62308" lon="6.69918">
        <ele>357</ele>
        <time>2023-03-07T12:35:58+01:00</time>
      </trkpt>
      <trkpt lat="43.62298" lon="6.69957">
        <ele>353</ele>
        <time>2023-03-07T12:36:08+01:00</time>
      </trkpt>
      <trkpt lat="43.62306" lon="6.69996">
        <ele>351</ele>
        <time>2023-03-07T12:36:17+01:00</time>
      </trkpt>
      <trkpt lat="43.62335" lon="6.70016">
        <ele>348</ele>
        <time>2023-03-07T12:36:26+01:00</time>
      </trkpt>
      <trkpt lat="43.6236" lon="6.70031">
        <ele>347</ele>
        <time>2023-03-07T12:36:36+01:00</time>
      </trkpt>
      <trkpt lat="43.62377" lon="6.70056">
        <ele>344</ele>
        <time>2023-03-07T12:36:45+01:00</time>
      </trkpt>
      <trkpt lat="43.62393" lon="6.70087">
        <ele>346</ele>
        <time>2023-03-07T12:36:54+01:00</time>
      </trkpt>
      <trkpt lat="43.62406" lon="6.70106">
        <ele>345</ele>
        <time>2023-03-07T12:37:03+01:00</time>
      </trkpt>
      <trkpt lat="43.62403" lon="6.70128">
        <ele>344</ele>
        <time>2023-03-07T12:37:13+01:00</time>
      </trkpt>
      <trkpt lat="43.62413" lon="6.70151">
        <ele>336</ele>
        <time>2023-03-07T12:37:22+01:00</time>
      </trkpt>
      <trkpt lat="43.62416" lon="6.70154">
        <ele>334</ele>
        <time>2023-03-07T12:37:31+01:00</time>
      </trkpt>
      <trkpt lat="43.6242" lon="6.7015">
        <ele>334</ele>
        <time>2023-03-07T12:37:41+01:00</time>
      </trkpt>
      <trkpt lat="43.62442" lon="6.70138">
        <ele>331</ele>
        <time>2023-03-07T12:37:50+01:00</time>
      </trkpt>
      <trkpt lat="43.62463" lon="6.70138">
        <ele>330</ele>
      </trkpt>
      <trkpt lat="43.62475" lon="6.70148">
        <ele>330</ele>
        <time>2023-03-07T12:38:00+01:00</time>
      </trkpt>
      <trkpt lat="43.62479" lon="6.70182">
        <ele>331</ele>
        <time>2023-03-07T12:38:09+01:00</time>
      </trkpt>
      <trkpt lat="43.62485" lon="6.70202">
        <ele>335</ele>
        <time>2023-03-07T12:38:18+01:00</time>
      </trkpt>
      <trkpt lat="43.62488" lon="6.70217">
        <ele>339</ele>
        <time>2023-03-07T12:38:28+01:00</time>
      </trkpt>
      <trkpt lat="43.6249" lon="6.70233">
        <ele>340</ele>
        <time>2023-03-07T12:38:38+01:00</time>
      </trkpt>
      <trkpt lat="43.62492" lon="6.70252">
        <ele>341</ele>
        <time>2023-03-07T12:38:47+01:00</time>
      </trkpt>
      <trkpt lat="43.625" lon="6.70264">
        <ele>343</ele>
        <time>2023-03-07T12:38:56+01:00</time>
      </trkpt>
      <trkpt lat="43.62513" lon="6.70274">
        <ele>344</ele>
        <time>2023-03-07T12:39:06+01:00</time>
      </trkpt>
      <trkpt lat="43.62527" lon="6.7028">
        <ele>345</ele>
        <time>2023-03-07T12:39:15+01:00</time>
      </trkpt>
      <trkpt lat="43.62552" lon="6.70296">
        <ele>344</ele>
        <time>2023-03-07T12:39:25+01:00</time>
      </trkpt>
      <trkpt lat="43.62578" lon="6.70313">
        <ele>342</ele>
        <time>2023-03-07T12:39:34+01:00</time>
      </trkpt>
      <trkpt lat="43.62606" lon="6.70326">
        <ele>342</ele>
        <time>2023-03-07T12:39:43+01:00</time>
      </trkpt>
      <trkpt lat="43.62625" lon="6.70328">
        <ele>347</ele>
        <time>2023-03-07T12:39:53+01:00</time>
      </trkpt>
      <trkpt lat="43.6264" lon="6.70331">
        <ele>351</ele>
        <time>2023-03-07T12:40:03+01:00</time>
      </trkpt>
      <trkpt lat="43.62651" lon="6.70345">
        <ele>351</ele>
        <time>2023-03-07T12:40:13+01:00</time>
      </trkpt>
      <trkpt lat="43.62666" lon="6.70361">
        <ele>351</ele>
        <time>2023-03-07T12:40:22+01:00</time>
      </trkpt>
      <trkpt lat="43.62685" lon="6.70378">
        <ele>351</ele>
        <time>2023-03-07T12:40:31+01:00</time>
      </trkpt>
      <trkpt lat="43.62708" lon="6.70396">
        <ele>353</ele>
        <time>2023-03-07T12:40:40+01:00</time>
      </trkpt>
      <trkpt lat="43.62721" lon="6.70432">
        <ele>350</ele>
        <time>2023-03-07T12:40:50+01:00</time>
      </trkpt>
      <trkpt lat="43.62732" lon="6.70472">
        <ele>345</ele>
        <time>2023-03-07T12:40:59+01:00</time>
      </trkpt>
      <trkpt lat="43.6275" lon="6.70506">
        <ele>342</ele>
        <time>2023-03-07T12:41:09+01:00</time>
      </trkpt>
      <trkpt lat="43.6277" lon="6.70531">
        <ele>341</ele>
        <time>2023-03-07T12:41:18+01:00</time>
      </trkpt>
      <trkpt lat="43.62794" lon="6.70554">
        <ele>345</ele>
        <time>2023-03-07T12:41:27+01:00</time>
      </trkpt>
      <trkpt lat="43.62797" lon="6.7059">
        <ele>347</ele>
        <time>2023-03-07T12:41:37+01:00</time>
      </trkpt>
      <trkpt lat="43.6278" lon="6.70632">
        <ele>342</ele>
        <time>2023-03-07T12:41:46+01:00</time>
      </trkpt>
      <trkpt lat="43.62768" lon="6.70664">
        <ele>340</ele>
        <time>2023-03-07T12:41:55+01:00</time>
      </trkpt>
      <trkpt lat="43.62769" lon="6.70701">
        <ele>341</ele>
        <time>2023-03-07T12:42:04+01:00</time>
      </trkpt>
      <trkpt lat="43.62772" lon="6.70739">
        <ele>340</ele>
        <time>2023-03-07T12:42:14+01:00</time>
      </trkpt>
      <trkpt lat="43.62769" lon="6.7078">
        <ele>335</ele>
        <time>2023-03-07T12:42:23+01:00</time>
      </trkpt>
      <trkpt lat="43.62782" lon="6.70811">
        <ele>331</ele>
        <time>2023-03-07T12:42:32+01:00</time>
      </trkpt>
      <trkpt lat="43.62805" lon="6.70835">
        <ele>327</ele>
        <time>2023-03-07T12:42:41+01:00</time>
      </trkpt>
      <trkpt lat="43.62832" lon="6.70858">
        <ele>322</ele>
        <time>2023-03-07T12:42:50+01:00</time>
      </trkpt>
      <trkpt lat="43.62853" lon="6.70852">
        <ele>324</ele>
        <time>2023-03-07T12:43:00+01:00</time>
      </trkpt>
      <trkpt lat="43.62872" lon="6.70854">
        <ele>323</ele>
        <time>2023-03-07T12:43:38+01:00</time>
      </trkpt>
      <trkpt lat="43.62881" lon="6.70868">
        <ele>321</ele>
      </trkpt>
      <trkpt lat="43.62878" lon="6.70896">
        <ele>324</ele>
        <time>2023-03-07T12:43:48+01:00</time>
      </trkpt>
      <trkpt lat="43.62879" lon="6.70921">
        <ele>329</ele>
        <time>2023-03-07T12:43:57+01:00</time>
      </trkpt>
      <trkpt lat="43.62869" lon="6.70934">
        <ele>332</ele>
        <time>2023-03-07T12:44:06+01:00</time>
      </trkpt>
      <trkpt lat="43.62858" lon="6.70945">
        <ele>334</ele>
        <time>2023-03-07T12:44:15+01:00</time>
      </trkpt>
      <trkpt lat="43.62849" lon="6.70956">
        <ele>336</ele>
        <time>2023-03-07T12:44:25+01:00</time>
      </trkpt>
      <trkpt lat="43.62835" lon="6.70962">
        <ele>338</ele>
        <time>2023-03-07T12:44:34+01:00</time>
      </trkpt>
      <trkpt lat="43.62804" lon="6.70952">
        <ele>337</ele>
        <time>2023-03-07T12:44:43+01:00</time>
      </trkpt>
      <trkpt lat="43.62778" lon="6.70947">
        <ele>337</ele>
        <time>2023-03-07T12:44:53+01:00</time>
      </trkpt>
      <trkpt lat="43.62751" lon="6.70951">
        <ele>336</ele>
        <time>2023-03-07T12:45:02+01:00</time>
      </trkpt>
      <trkpt lat="43.62729" lon="6.70967">
        <ele>335</ele>
        <time>2023-03-07T12:45:11+01:00</time>
      </trkpt>
      <trkpt lat="43.62713" lon="6.70977">
        <ele>333</ele>
        <time>2023-03-07T12:45:21+01:00</time>
      </trkpt>
      <trkpt lat="43.62693" lon="6.70995">
        <ele>329</ele>
        <time>2023-03-07T12:45:30+01:00</time>
      </trkpt>
      <trkpt lat="43.62666" lon="6.71018">
        <ele>327</ele>
        <time>2023-03-07T12:45:40+01:00</time>
      </trkpt>
      <trkpt lat="43.62638" lon="6.71039">
        <ele>324</ele>
        <time>2023-03-07T12:45:49+01:00</time>
      </trkpt>
      <trkpt lat="43.62605" lon="6.71039">
        <ele>318</ele>
        <time>2023-03-07T12:45:59+01:00</time>
      </trkpt>
      <trkpt lat="43.62576" lon="6.71046">
        <ele>315</ele>
        <time>2023-03-07T12:46:08+01:00</time>
      </trkpt>
      <trkpt lat="43.62542" lon="6.71044">
        <ele>315</ele>
        <time>2023-03-07T12:46:17+01:00</time>
      </trkpt>
      <trkpt lat="43.62513" lon="6.71024">
        <ele>312</ele>
        <time>2023-03-07T12:46:26+01:00</time>
      </trkpt>
      <trkpt lat="43.62484" lon="6.71015">
        <ele>311</ele>
        <time>2023-03-07T12:46:36+01:00</time>
      </trkpt>
      <trkpt lat="43.62455" lon="6.71018">
        <ele>310</ele>
        <time>2023-03-07T12:46:45+01:00</time>
      </trkpt>
      <trkpt lat="43.62428" lon="6.71031">
        <ele>309</ele>
        <time>2023-03-07T12:46:54+01:00</time>
      </trkpt>
      <trkpt lat="43.62401" lon="6.71033">
        <ele>305</ele>
        <time>2023-03-07T12:47:03+01:00</time>
      </trkpt>
      <trkpt lat="43.62373" lon="6.71036">
        <ele>302</ele>
        <time>2023-03-07T12:47:13+01:00</time>
      </trkpt>
      <trkpt lat="43.62337" lon="6.71023">
        <ele>295</ele>
        <time>2023-03-07T12:47:22+01:00</time>
      </trkpt>
      <trkpt lat="43.62311" lon="6.71003">
        <ele>290</ele>
        <time>2023-03-07T12:47:32+01:00</time>
      </trkpt>
      <trkpt lat="43.62287" lon="6.70986">
        <ele>285</ele>
        <time>2023-03-07T12:47:41+01:00</time>
      </trkpt>
      <trkpt lat="43.62255" lon="6.70985">
        <ele>282</ele>
        <time>2023-03-07T12:47:50+01:00</time>
      </trkpt>
      <trkpt lat="43.62223" lon="6.71001">
        <ele>280</ele>
        <time>2023-03-07T12:48:00+01:00</time>
      </trkpt>
      <trkpt lat="43.62202" lon="6.71032">
        <ele>281</ele>
        <time>2023-03-07T12:48:09+01:00</time>
      </trkpt>
      <trkpt lat="43.6218" lon="6.71058">
        <ele>281</ele>
        <time>2023-03-07T12:48:18+01:00</time>
      </trkpt>
      <trkpt lat="43.62161" lon="6.71085">
        <ele>281</ele>
        <time>2023-03-07T12:48:28+01:00</time>
      </trkpt>
      <trkpt lat="43.62143" lon="6.71113">
        <ele>280</ele>
        <time>2023-03-07T12:48:37+01:00</time>
      </trkpt>
      <trkpt lat="43.62127" lon="6.71146">
        <ele>280</ele>
        <time>2023-03-07T12:48:47+01:00</time>
      </trkpt>
      <trkpt lat="43.62143" lon="6.71171">
        <ele>282</ele>
        <time>2023-03-07T12:48:56+01:00</time>
      </trkpt>
      <trkpt lat="43.62145" lon="6.71203">
        <ele>284</ele>
        <time>2023-03-07T12:49:05+01:00</time>
      </trkpt>
      <trkpt lat="43.6213" lon="6.71232">
        <ele>283</ele>
        <time>2023-03-07T12:49:14+01:00</time>
      </trkpt>
      <trkpt lat="43.62117" lon="6.71264">
        <ele>282</ele>
        <time>2023-03-07T12:49:24+01:00</time>
      </trkpt>
      <trkpt lat="43.62117" lon="6.71299">
        <ele>283</ele>
        <time>2023-03-07T12:49:33+01:00</time>
      </trkpt>
      <trkpt lat="43.62115" lon="6.71332">
        <ele>283</ele>
        <time>2023-03-07T12:49:43+01:00</time>
      </trkpt>
      <trkpt lat="43.62098" lon="6.71372">
        <ele>282</ele>
        <time>2023-03-07T12:49:52+01:00</time>
      </trkpt>
      <trkpt lat="43.62082" lon="6.71402">
        <ele>281</ele>
        <time>2023-03-07T12:50:02+01:00</time>
      </trkpt>
      <trkpt lat="43.62069" lon="6.71431">
        <ele>280</ele>
        <time>2023-03-07T12:50:11+01:00</time>
      </trkpt>
      <trkpt lat="43.62066" lon="6.71468">
        <ele>280</ele>
        <time>2023-03-07T12:50:20+01:00</time>
      </trkpt>
      <trkpt lat="43.62064" lon="6.71504">
        <ele>277</ele>
        <time>2023-03-07T12:50:29+01:00</time>
      </trkpt>
      <trkpt lat="43.62068" lon="6.7154">
        <ele>275</ele>
        <time>2023-03-07T12:50:38+01:00</time>
      </trkpt>
      <trkpt lat="43.62082" lon="6.71572">
        <ele>273</ele>
        <time>2023-03-07T12:50:48+01:00</time>
      </trkpt>
      <trkpt lat="43.62098" lon="6.71584">
        <ele>274</ele>
      </trkpt>
      <trkpt lat="43.621" lon="6.71601">
        <ele>271</ele>
        <time>2023-03-07T12:50:57+01:00</time>
      </trkpt>
      <trkpt lat="43.62095" lon="6.71632">
        <ele>263</ele>
        <time>2023-03-07T12:51:06+01:00</time>
      </trkpt>
      <trkpt lat="43.62113" lon="6.71664">
        <ele>260</ele>
        <time>2023-03-07T12:51:15+01:00</time>
      </trkpt>
      <trkpt lat="43.62105" lon="6.71686">
        <ele>264</ele>
        <time>2023-03-07T12:51:25+01:00</time>
      </trkpt>
      <trkpt lat="43.62088" lon="6.71705">
        <ele>268</ele>
        <time>2023-03-07T12:51:34+01:00</time>
      </trkpt>
      <trkpt lat="43.62075" lon="6.71717">
        <ele>271</ele>
        <time>2023-03-07T12:51:44+01:00</time>
      </trkpt>
      <trkpt lat="43.62065" lon="6.71724">
        <ele>271</ele>
        <time>2023-03-07T12:51:53+01:00</time>
      </trkpt>
      <trkpt lat="43.62054" lon="6.71737">
        <ele>270</ele>
        <time>2023-03-07T12:52:03+01:00</time>
      </trkpt>
      <trkpt lat="43.62056" lon="6.71758">
        <ele>273</ele>
        <time>2023-03-07T12:52:13+01:00</time>
      </trkpt>
      <trkpt lat="43.62057" lon="6.71779">
        <ele>275</ele>
        <time>2023-03-07T12:52:23+01:00</time>
      </trkpt>
      <trkpt lat="43.62054" lon="6.71799">
        <ele>278</ele>
        <time>2023-03-07T12:52:33+01:00</time>
      </trkpt>
      <trkpt lat="43.6205" lon="6.71818">
        <ele>279</ele>
        <time>2023-03-07T12:52:42+01:00</time>
      </trkpt>
      <trkpt lat="43.62049" lon="6.71839">
        <ele>281</ele>
        <time>2023-03-07T12:52:51+01:00</time>
      </trkpt>
      <trkpt lat="43.62042" lon="6.71861">
        <ele>283</ele>
        <time>2023-03-07T12:53:01+01:00</time>
      </trkpt>
      <trkpt lat="43.62038" lon="6.71879">
        <ele>285</ele>
        <time>2023-03-07T12:53:10+01:00</time>
      </trkpt>
      <trkpt lat="43.6204" lon="6.71896">
        <ele>289</ele>
        <time>2023-03-07T12:53:19+01:00</time>
      </trkpt>
      <trkpt lat="43.62035" lon="6.71916">
        <ele>291</ele>
        <time>2023-03-07T12:53:29+01:00</time>
      </trkpt>
      <trkpt lat="43.62028" lon="6.71933">
        <ele>293</ele>
        <time>2023-03-07T12:53:38+01:00</time>
      </trkpt>
      <trkpt lat="43.62019" lon="6.7195">
        <ele>295</ele>
        <time>2023-03-07T12:53:48+01:00</time>
      </trkpt>
      <trkpt lat="43.62015" lon="6.71965">
        <ele>297</ele>
        <time>2023-03-07T12:53:57+01:00</time>
      </trkpt>
      <trkpt lat="43.62015" lon="6.7198">
        <ele>298</ele>
        <time>2023-03-07T12:54:06+01:00</time>
      </trkpt>
      <trkpt lat="43.62014" lon="6.71994">
        <ele>299</ele>
        <time>2023-03-07T12:54:16+01:00</time>
      </trkpt>
      <trkpt lat="43.62009" lon="6.72008">
        <ele>300</ele>
        <time>2023-03-07T12:54:25+01:00</time>
      </trkpt>
      <trkpt lat="43.62005" lon="6.72025">
        <ele>301</ele>
        <time>2023-03-07T12:54:34+01:00</time>
      </trkpt>
      <trkpt lat="43.62005" lon="6.72042">
        <ele>302</ele>
        <time>2023-03-07T12:54:44+01:00</time>
      </trkpt>
      <trkpt lat="43.62004" lon="6.7206">
        <ele>303</ele>
        <time>2023-03-07T12:54:53+01:00</time>
      </trkpt>
      <trkpt lat="43.62003" lon="6.72078">
        <ele>306</ele>
        <time>2023-03-07T12:55:02+01:00</time>
      </trkpt>
      <trkpt lat="43.62003" lon="6.72101">
        <ele>310</ele>
        <time>2023-03-07T12:55:12+01:00</time>
      </trkpt>
      <trkpt lat="43.62001" lon="6.72118">
        <ele>312</ele>
        <time>2023-03-07T12:55:22+01:00</time>
      </trkpt>
      <trkpt lat="43.61996" lon="6.72136">
        <ele>314</ele>
        <time>2023-03-07T12:55:31+01:00</time>
      </trkpt>
      <trkpt lat="43.61987" lon="6.72153">
        <ele>315</ele>
        <time>2023-03-07T12:55:41+01:00</time>
      </trkpt>
      <trkpt lat="43.61978" lon="6.7217">
        <ele>316</ele>
        <time>2023-03-07T12:55:51+01:00</time>
      </trkpt>
      <trkpt lat="43.61971" lon="6.72189">
        <ele>317</ele>
        <time>2023-03-07T12:56:01+01:00</time>
      </trkpt>
      <trkpt lat="43.61965" lon="6.72209">
        <ele>318</ele>
        <time>2023-03-07T12:56:10+01:00</time>
      </trkpt>
      <trkpt lat="43.61966" lon="6.7224">
        <ele>322</ele>
        <time>2023-03-07T12:56:20+01:00</time>
      </trkpt>
      <trkpt lat="43.61954" lon="6.72266">
        <ele>323</ele>
        <time>2023-03-07T12:56:29+01:00</time>
      </trkpt>
      <trkpt lat="43.61935" lon="6.72286">
        <ele>323</ele>
        <time>2023-03-07T12:56:39+01:00</time>
      </trkpt>
      <trkpt lat="43.61924" lon="6.72314">
        <ele>324</ele>
        <time>2023-03-07T12:56:48+01:00</time>
      </trkpt>
      <trkpt lat="43.61915" lon="6.72344">
        <ele>325</ele>
        <time>2023-03-07T12:56:57+01:00</time>
      </trkpt>
      <trkpt lat="43.61913" lon="6.72368">
        <ele>327</ele>
        <time>2023-03-07T12:57:07+01:00</time>
      </trkpt>
      <trkpt lat="43.61921" lon="6.72385">
        <ele>329</ele>
        <time>2023-03-07T12:57:16+01:00</time>
      </trkpt>
      <trkpt lat="43.61925" lon="6.72402">
        <ele>331</ele>
        <time>2023-03-07T12:57:25+01:00</time>
      </trkpt>
      <trkpt lat="43.61931" lon="6.72422">
        <ele>333</ele>
        <time>2023-03-07T12:57:35+01:00</time>
      </trkpt>
      <trkpt lat="43.61938" lon="6.72439">
        <ele>335</ele>
        <time>2023-03-07T12:57:45+01:00</time>
      </trkpt>
      <trkpt lat="43.61945" lon="6.72456">
        <ele>336</ele>
        <time>2023-03-07T12:57:54+01:00</time>
      </trkpt>
      <trkpt lat="43.61956" lon="6.72478">
        <ele>338</ele>
        <time>2023-03-07T12:58:04+01:00</time>
      </trkpt>
      <trkpt lat="43.61963" lon="6.72506">
        <ele>339</ele>
        <time>2023-03-07T12:58:13+01:00</time>
      </trkpt>
      <trkpt lat="43.61972" lon="6.72538">
        <ele>338</ele>
        <time>2023-03-07T12:58:22+01:00</time>
      </trkpt>
      <trkpt lat="43.6198" lon="6.72566">
        <ele>337</ele>
        <time>2023-03-07T12:58:31+01:00</time>
      </trkpt>
      <trkpt lat="43.61992" lon="6.72599">
        <ele>335</ele>
        <time>2023-03-07T12:58:40+01:00</time>
      </trkpt>
      <trkpt lat="43.62007" lon="6.72629">
        <ele>336</ele>
        <time>2023-03-07T12:58:49+01:00</time>
      </trkpt>
      <trkpt lat="43.62006" lon="6.7266">
        <ele>338</ele>
        <time>2023-03-07T12:58:58+01:00</time>
      </trkpt>
      <trkpt lat="43.61979" lon="6.72673">
        <ele>337</ele>
        <time>2023-03-07T12:59:08+01:00</time>
      </trkpt>
      <trkpt lat="43.61955" lon="6.72665">
        <ele>337</ele>
        <time>2023-03-07T12:59:17+01:00</time>
      </trkpt>
      <trkpt lat="43.61933" lon="6.72648">
        <ele>337</ele>
        <time>2023-03-07T12:59:26+01:00</time>
      </trkpt>
      <trkpt lat="43.61914" lon="6.72657">
        <ele>340</ele>
        <time>2023-03-07T12:59:35+01:00</time>
      </trkpt>
      <trkpt lat="43.61923" lon="6.72684">
        <ele>342</ele>
        <time>2023-03-07T12:59:45+01:00</time>
      </trkpt>
      <trkpt lat="43.6192" lon="6.72713">
        <ele>344</ele>
        <time>2023-03-07T12:59:54+01:00</time>
      </trkpt>
      <trkpt lat="43.61913" lon="6.72743">
        <ele>346</ele>
        <time>2023-03-07T13:00:04+01:00</time>
      </trkpt>
      <trkpt lat="43.61916" lon="6.72773">
        <ele>348</ele>
        <time>2023-03-07T13:00:13+01:00</time>
      </trkpt>
      <trkpt lat="43.61919" lon="6.72806">
        <ele>346</ele>
        <time>2023-03-07T13:00:22+01:00</time>
      </trkpt>
      <trkpt lat="43.61927" lon="6.72839">
        <ele>345</ele>
        <time>2023-03-07T13:00:32+01:00</time>
      </trkpt>
      <trkpt lat="43.61945" lon="6.72863">
        <ele>345</ele>
        <time>2023-03-07T13:00:41+01:00</time>
      </trkpt>
      <trkpt lat="43.61967" lon="6.72881">
        <ele>344</ele>
        <time>2023-03-07T13:00:51+01:00</time>
      </trkpt>
      <trkpt lat="43.61992" lon="6.729">
        <ele>341</ele>
        <time>2023-03-07T13:01:00+01:00</time>
      </trkpt>
      <trkpt lat="43.6202" lon="6.72901">
        <ele>343</ele>
        <time>2023-03-07T13:01:09+01:00</time>
      </trkpt>
      <trkpt lat="43.62046" lon="6.72907">
        <ele>343</ele>
        <time>2023-03-07T13:01:18+01:00</time>
      </trkpt>
      <trkpt lat="43.6207" lon="6.72912">
        <ele>344</ele>
        <time>2023-03-07T13:01:28+01:00</time>
      </trkpt>
      <trkpt lat="43.62094" lon="6.7291">
        <ele>347</ele>
        <time>2023-03-07T13:01:37+01:00</time>
      </trkpt>
      <trkpt lat="43.62119" lon="6.72924">
        <ele>348</ele>
        <time>2023-03-07T13:01:47+01:00</time>
      </trkpt>
      <trkpt lat="43.62137" lon="6.7294">
        <ele>347</ele>
        <time>2023-03-07T13:01:56+01:00</time>
      </trkpt>
      <trkpt lat="43.62163" lon="6.72956">
        <ele>349</ele>
        <time>2023-03-07T13:02:05+01:00</time>
      </trkpt>
      <trkpt lat="43.62177" lon="6.72992">
        <ele>348</ele>
        <time>2023-03-07T13:02:15+01:00</time>
      </trkpt>
      <trkpt lat="43.62185" lon="6.73029">
        <ele>348</ele>
        <time>2023-03-07T13:02:24+01:00</time>
      </trkpt>
      <trkpt lat="43.62199" lon="6.7305">
        <ele>349</ele>
        <time>2023-03-07T13:02:34+01:00</time>
      </trkpt>
      <trkpt lat="43.62222" lon="6.73063">
        <ele>350</ele>
        <time>2023-03-07T13:02:43+01:00</time>
      </trkpt>
      <trkpt lat="43.62249" lon="6.7307">
        <ele>349</ele>
        <time>2023-03-07T13:02:52+01:00</time>
      </trkpt>
      <trkpt lat="43.62272" lon="6.73097">
        <ele>344</ele>
        <time>2023-03-07T13:03:02+01:00</time>
      </trkpt>
      <trkpt lat="43.62265" lon="6.73139">
        <ele>339</ele>
        <time>2023-03-07T13:03:11+01:00</time>
      </trkpt>
      <trkpt lat="43.62247" lon="6.73172">
        <ele>336</ele>
        <time>2023-03-07T13:03:21+01:00</time>
      </trkpt>
      <trkpt lat="43.62222" lon="6.73198">
        <ele>334</ele>
        <time>2023-03-07T13:03:30+01:00</time>
      </trkpt>
      <trkpt lat="43.62195" lon="6.73223">
        <ele>336</ele>
        <time>2023-03-07T13:03:40+01:00</time>
      </trkpt>
      <trkpt lat="43.62171" lon="6.73244">
        <ele>335</ele>
        <time>2023-03-07T13:03:49+01:00</time>
      </trkpt>
      <trkpt lat="43.62147" lon="6.73268">
        <ele>333</ele>
        <time>2023-03-07T13:03:58+01:00</time>
      </trkpt>
      <trkpt lat="43.62129" lon="6.73293">
        <ele>331</ele>
        <time>2023-03-07T13:04:07+01:00</time>
      </trkpt>
      <trkpt lat="43.62108" lon="6.73315">
        <ele>330</ele>
        <time>2023-03-07T13:04:16+01:00</time>
      </trkpt>
      <trkpt lat="43.62087" lon="6.73342">
        <ele>330</ele>
        <time>2023-03-07T13:04:25+01:00</time>
      </trkpt>
      <trkpt lat="43.62076" lon="6.73378">
        <ele>325</ele>
        <time>2023-03-07T13:04:35+01:00</time>
      </trkpt>
      <trkpt lat="43.62052" lon="6.73407">
        <ele>320</ele>
        <time>2023-03-07T13:04:44+01:00</time>
      </trkpt>
      <trkpt lat="43.6202" lon="6.73408">
        <ele>319</ele>
        <time>2023-03-07T13:04:54+01:00</time>
      </trkpt>
      <trkpt lat="43.61991" lon="6.73417">
        <ele>318</ele>
        <time>2023-03-07T13:05:03+01:00</time>
      </trkpt>
      <trkpt lat="43.61968" lon="6.7342">
        <ele>318</ele>
        <time>2023-03-07T13:05:12+01:00</time>
      </trkpt>
      <trkpt lat="43.61957" lon="6.73422">
        <ele>318</ele>
        <time>2023-03-07T13:05:21+01:00</time>
      </trkpt>
      <trkpt lat="43.6194" lon="6.73437">
        <ele>315</ele>
        <time>2023-03-07T13:05:30+01:00</time>
      </trkpt>
      <trkpt lat="43.61909" lon="6.73454">
        <ele>312</ele>
        <time>2023-03-07T13:05:40+01:00</time>
      </trkpt>
      <trkpt lat="43.61878" lon="6.73468">
        <ele>309</ele>
        <time>2023-03-07T13:05:49+01:00</time>
      </trkpt>
      <trkpt lat="43.61849" lon="6.73484">
        <ele>307</ele>
        <time>2023-03-07T13:05:58+01:00</time>
      </trkpt>
      <trkpt lat="43.6181" lon="6.73508">
        <ele>308</ele>
        <time>2023-03-07T13:06:08+01:00</time>
      </trkpt>
      <trkpt lat="43.61823" lon="6.73523">
        <ele>304</ele>
        <time>2023-03-07T13:06:17+01:00</time>
      </trkpt>
      <trkpt lat="43.6183" lon="6.73546">
        <ele>300</ele>
        <time>2023-03-07T13:06:26+01:00</time>
      </trkpt>
      <trkpt lat="43.61827" lon="6.73586">
        <ele>297</ele>
        <time>2023-03-07T13:06:36+01:00</time>
      </trkpt>
      <trkpt lat="43.6183" lon="6.73619">
        <ele>293</ele>
        <time>2023-03-07T13:06:45+01:00</time>
      </trkpt>
      <trkpt lat="43.61836" lon="6.73649">
        <ele>288</ele>
        <time>2023-03-07T13:06:54+01:00</time>
      </trkpt>
      <trkpt lat="43.61849" lon="6.7367">
        <ele>283</ele>
        <time>2023-03-07T13:07:03+01:00</time>
      </trkpt>
      <trkpt lat="43.61864" lon="6.73688">
        <ele>277</ele>
        <time>2023-03-07T13:07:12+01:00</time>
      </trkpt>
      <trkpt lat="43.61871" lon="6.7371">
        <ele>273</ele>
        <time>2023-03-07T13:07:21+01:00</time>
      </trkpt>
      <trkpt lat="43.61891" lon="6.73712">
        <ele>269</ele>
      </trkpt>
      <trkpt lat="43.61893" lon="6.73727">
        <ele>269</ele>
        <time>2023-03-07T13:07:31+01:00</time>
      </trkpt>
      <trkpt lat="43.61911" lon="6.73732">
        <ele>263</ele>
        <time>2023-03-07T13:07:40+01:00</time>
      </trkpt>
      <trkpt lat="43.61923" lon="6.73751">
        <ele>260</ele>
        <time>2023-03-07T13:07:49+01:00</time>
      </trkpt>
      <trkpt lat="43.61928" lon="6.73759">
        <ele>257</ele>
        <time>2023-03-07T13:07:58+01:00</time>
      </trkpt>
      <trkpt lat="43.6194" lon="6.73777">
        <ele>249</ele>
        <time>2023-03-07T13:08:07+01:00</time>
      </trkpt>
      <trkpt lat="43.61948" lon="6.73791">
        <ele>243</ele>
        <time>2023-03-07T13:08:17+01:00</time>
      </trkpt>
      <trkpt lat="43.6198" lon="6.73799">
        <ele>234</ele>
        <time>2023-03-07T13:08:26+01:00</time>
      </trkpt>
      <trkpt lat="43.61964" lon="6.73829">
        <ele>233</ele>
        <time>2023-03-07T13:08:35+01:00</time>
      </trkpt>
      <trkpt lat="43.61942" lon="6.7385">
        <ele>235</ele>
        <time>2023-03-07T13:08:45+01:00</time>
      </trkpt>
      <trkpt lat="43.6193" lon="6.73884">
        <ele>234</ele>
        <time>2023-03-07T13:08:54+01:00</time>
      </trkpt>
      <trkpt lat="43.61926" lon="6.73923">
        <ele>231</ele>
        <time>2023-03-07T13:09:03+01:00</time>
      </trkpt>
      <trkpt lat="43.61928" lon="6.73965">
        <ele>228</ele>
        <time>2023-03-07T13:09:13+01:00</time>
      </trkpt>
      <trkpt lat="43.61939" lon="6.73978">
        <ele>226</ele>
        <time>2023-03-07T13:09:22+01:00</time>
      </trkpt>
      <trkpt lat="43.61958" lon="6.74018">
        <ele>223</ele>
        <time>2023-03-07T13:09:32+01:00</time>
      </trkpt>
      <trkpt lat="43.61971" lon="6.74053">
        <ele>221</ele>
        <time>2023-03-07T13:09:41+01:00</time>
      </trkpt>
      <trkpt lat="43.61983" lon="6.74089">
        <ele>220</ele>
        <time>2023-03-07T13:09:50+01:00</time>
      </trkpt>
      <trkpt lat="43.61983" lon="6.7413">
        <ele>221</ele>
        <time>2023-03-07T13:09:59+01:00</time>
      </trkpt>
      <trkpt lat="43.61977" lon="6.74166">
        <ele>221</ele>
        <time>2023-03-07T13:10:08+01:00</time>
      </trkpt>
      <trkpt lat="43.61966" lon="6.74205">
        <ele>221</ele>
        <time>2023-03-07T13:10:18+01:00</time>
      </trkpt>
      <trkpt lat="43.61952" lon="6.74239">
        <ele>220</ele>
        <time>2023-03-07T13:10:27+01:00</time>
      </trkpt>
      <trkpt lat="43.61932" lon="6.74267">
        <ele>220</ele>
        <time>2023-03-07T13:10:36+01:00</time>
      </trkpt>
      <trkpt lat="43.61928" lon="6.74306">
        <ele>219</ele>
        <time>2023-03-07T13:10:46+01:00</time>
      </trkpt>
      <trkpt lat="43.61941" lon="6.74344">
        <ele>220</ele>
        <time>2023-03-07T13:10:55+01:00</time>
      </trkpt>
      <trkpt lat="43.61946" lon="6.7438">
        <ele>219</ele>
        <time>2023-03-07T13:11:04+01:00</time>
      </trkpt>
      <trkpt lat="43.61951" lon="6.74418">
        <ele>219</ele>
        <time>2023-03-07T13:11:13+01:00</time>
      </trkpt>
      <trkpt lat="43.61961" lon="6.74451">
        <ele>219</ele>
        <time>2023-03-07T13:11:23+01:00</time>
      </trkpt>
      <trkpt lat="43.61979" lon="6.7448">
        <ele>219</ele>
        <time>2023-03-07T13:11:32+01:00</time>
      </trkpt>
      <trkpt lat="43.61996" lon="6.7451">
        <ele>220</ele>
        <time>2023-03-07T13:11:41+01:00</time>
      </trkpt>
      <trkpt lat="43.61998" lon="6.74548">
        <ele>220</ele>
        <time>2023-03-07T13:11:50+01:00</time>
      </trkpt>
      <trkpt lat="43.61999" lon="6.7457">
        <ele>220</ele>
        <time>2023-03-07T13:12:00+01:00</time>
      </trkpt>
      <trkpt lat="43.62001" lon="6.74589">
        <ele>220</ele>
        <time>2023-03-07T13:12:10+01:00</time>
      </trkpt>
      <trkpt lat="43.62002" lon="6.7461">
        <ele>220</ele>
        <time>2023-03-07T13:12:20+01:00</time>
      </trkpt>
      <trkpt lat="43.62005" lon="6.74629">
        <ele>221</ele>
        <time>2023-03-07T13:12:29+01:00</time>
      </trkpt>
      <trkpt lat="43.62007" lon="6.74651">
        <ele>222</ele>
        <time>2023-03-07T13:12:39+01:00</time>
      </trkpt>
      <trkpt lat="43.62006" lon="6.7467">
        <ele>223</ele>
        <time>2023-03-07T13:12:48+01:00</time>
      </trkpt>
      <trkpt lat="43.62001" lon="6.74692">
        <ele>223</ele>
        <time>2023-03-07T13:12:58+01:00</time>
      </trkpt>
      <trkpt lat="43.61998" lon="6.74712">
        <ele>224</ele>
        <time>2023-03-07T13:13:08+01:00</time>
      </trkpt>
      <trkpt lat="43.61996" lon="6.74733">
        <ele>225</ele>
        <time>2023-03-07T13:13:17+01:00</time>
      </trkpt>
      <trkpt lat="43.61994" lon="6.74755">
        <ele>227</ele>
        <time>2023-03-07T13:13:27+01:00</time>
      </trkpt>
      <trkpt lat="43.61988" lon="6.74774">
        <ele>227</ele>
        <time>2023-03-07T13:13:36+01:00</time>
      </trkpt>
      <trkpt lat="43.61981" lon="6.74815">
        <ele>227</ele>
        <time>2023-03-07T13:13:46+01:00</time>
      </trkpt>
      <trkpt lat="43.61973" lon="6.74851">
        <ele>228</ele>
        <time>2023-03-07T13:13:55+01:00</time>
      </trkpt>
      <trkpt lat="43.61957" lon="6.74882">
        <ele>227</ele>
        <time>2023-03-07T13:14:04+01:00</time>
      </trkpt>
      <trkpt lat="43.61937" lon="6.74904">
        <ele>226</ele>
        <time>2023-03-07T13:14:14+01:00</time>
      </trkpt>
      <trkpt lat="43.61946" lon="6.74926">
        <ele>228</ele>
        <time>2023-03-07T13:14:23+01:00</time>
      </trkpt>
      <trkpt lat="43.61954" lon="6.7494">
        <ele>230</ele>
        <time>2023-03-07T13:14:32+01:00</time>
      </trkpt>
      <trkpt lat="43.61965" lon="6.74953">
        <ele>232</ele>
        <time>2023-03-07T13:14:42+01:00</time>
      </trkpt>
      <trkpt lat="43.61971" lon="6.74969">
        <ele>234</ele>
        <time>2023-03-07T13:14:51+01:00</time>
      </trkpt>
      <trkpt lat="43.61977" lon="6.74988">
        <ele>237</ele>
        <time>2023-03-07T13:15:01+01:00</time>
      </trkpt>
      <trkpt lat="43.61983" lon="6.75006">
        <ele>239</ele>
        <time>2023-03-07T13:15:11+01:00</time>
      </trkpt>
      <trkpt lat="43.61988" lon="6.75025">
        <ele>242</ele>
        <time>2023-03-07T13:15:20+01:00</time>
      </trkpt>
      <trkpt lat="43.61991" lon="6.75046">
        <ele>243</ele>
        <time>2023-03-07T13:15:30+01:00</time>
      </trkpt>
      <trkpt lat="43.61992" lon="6.75066">
        <ele>245</ele>
        <time>2023-03-07T13:15:39+01:00</time>
      </trkpt>
      <trkpt lat="43.61996" lon="6.75084">
        <ele>247</ele>
        <time>2023-03-07T13:15:49+01:00</time>
      </trkpt>
      <trkpt lat="43.61997" lon="6.75103">
        <ele>249</ele>
        <time>2023-03-07T13:15:58+01:00</time>
      </trkpt>
      <trkpt lat="43.62002" lon="6.7512">
        <ele>251</ele>
        <time>2023-03-07T13:16:07+01:00</time>
      </trkpt>
      <trkpt lat="43.62007" lon="6.75136">
        <ele>254</ele>
        <time>2023-03-07T13:16:16+01:00</time>
      </trkpt>
      <trkpt lat="43.62007" lon="6.75156">
        <ele>256</ele>
        <time>2023-03-07T13:16:26+01:00</time>
      </trkpt>
      <trkpt lat="43.62007" lon="6.75178">
        <ele>258</ele>
        <time>2023-03-07T13:16:36+01:00</time>
      </trkpt>
      <trkpt lat="43.62006" lon="6.75195">
        <ele>259</ele>
        <time>2023-03-07T13:16:45+01:00</time>
      </trkpt>
      <trkpt lat="43.62002" lon="6.75214">
        <ele>260</ele>
        <time>2023-03-07T13:16:54+01:00</time>
      </trkpt>
      <trkpt lat="43.61996" lon="6.75232">
        <ele>261</ele>
        <time>2023-03-07T13:17:04+01:00</time>
      </trkpt>
      <trkpt lat="43.61994" lon="6.7525">
        <ele>262</ele>
        <time>2023-03-07T13:17:13+01:00</time>
      </trkpt>
      <trkpt lat="43.62009" lon="6.75255">
        <ele>266</ele>
        <time>2023-03-07T13:17:22+01:00</time>
      </trkpt>
      <trkpt lat="43.62022" lon="6.75249">
        <ele>269</ele>
        <time>2023-03-07T13:17:31+01:00</time>
      </trkpt>
      <trkpt lat="43.62035" lon="6.75243">
        <ele>273</ele>
        <time>2023-03-07T13:17:41+01:00</time>
      </trkpt>
      <trkpt lat="43.62048" lon="6.75241">
        <ele>277</ele>
        <time>2023-03-07T13:17:50+01:00</time>
      </trkpt>
      <trkpt lat="43.62061" lon="6.7524">
        <ele>280</ele>
        <time>2023-03-07T13:17:59+01:00</time>
      </trkpt>
      <trkpt lat="43.62074" lon="6.75238">
        <ele>283</ele>
        <time>2023-03-07T13:18:09+01:00</time>
      </trkpt>
      <trkpt lat="43.62087" lon="6.7524">
        <ele>286</ele>
        <time>2023-03-07T13:18:18+01:00</time>
      </trkpt>
      <trkpt lat="43.62095" lon="6.75255">
        <ele>289</ele>
        <time>2023-03-07T13:18:27+01:00</time>
      </trkpt>
      <trkpt lat="43.621" lon="6.75246">
        <ele>290</ele>
        <time>2023-03-07T13:18:37+01:00</time>
      </trkpt>
      <trkpt lat="43.62107" lon="6.7523">
        <ele>292</ele>
        <time>2023-03-07T13:18:47+01:00</time>
      </trkpt>
      <trkpt lat="43.62117" lon="6.75223">
        <ele>295</ele>
        <time>2023-03-07T13:18:56+01:00</time>
      </trkpt>
      <trkpt lat="43.62128" lon="6.7522">
        <ele>297</ele>
        <time>2023-03-07T13:19:05+01:00</time>
      </trkpt>
      <trkpt lat="43.62137" lon="6.75221">
        <ele>299</ele>
        <time>2023-03-07T13:19:15+01:00</time>
      </trkpt>
      <trkpt lat="43.62145" lon="6.75227">
        <ele>300</ele>
        <time>2023-03-07T13:19:24+01:00</time>
      </trkpt>
      <trkpt lat="43.62151" lon="6.75231">
        <ele>301</ele>
        <time>2023-03-07T13:19:34+01:00</time>
      </trkpt>
      <trkpt lat="43.62145" lon="6.75249">
        <ele>301</ele>
        <time>2023-03-07T13:19:43+01:00</time>
      </trkpt>
      <trkpt lat="43.62152" lon="6.75253">
        <ele>302</ele>
        <time>2023-03-07T13:19:52+01:00</time>
      </trkpt>
      <trkpt lat="43.62157" lon="6.75256">
        <ele>302</ele>
        <time>2023-03-07T13:20:02+01:00</time>
      </trkpt>
      <trkpt lat="43.62161" lon="6.75259">
        <ele>303</ele>
        <time>2023-03-07T13:20:11+01:00</time>
      </trkpt>
      <trkpt lat="43.62167" lon="6.7526">
        <ele>303</ele>
      </trkpt>
      <trkpt lat="43.62176" lon="6.75243">
        <ele>303</ele>
        <time>2023-03-07T13:20:20+01:00</time>
      </trkpt>
      <trkpt lat="43.62183" lon="6.75236">
        <ele>303</ele>
        <time>2023-03-07T13:20:29+01:00</time>
      </trkpt>
      <trkpt lat="43.62192" lon="6.7525">
        <ele>305</ele>
        <time>2023-03-07T13:20:38+01:00</time>
      </trkpt>
      <trkpt lat="43.62208" lon="6.75236">
        <ele>305</ele>
      </trkpt>
      <trkpt lat="43.62225" lon="6.7523">
        <ele>307</ele>
        <time>2023-03-07T13:20:48+01:00</time>
      </trkpt>
      <trkpt lat="43.62248" lon="6.7522">
        <ele>309</ele>
        <time>2023-03-07T13:20:57+01:00</time>
      </trkpt>
      <trkpt lat="43.62269" lon="6.75214">
        <ele>309</ele>
        <time>2023-03-07T13:21:06+01:00</time>
      </trkpt>
      <trkpt lat="43.62283" lon="6.7522">
        <ele>310</ele>
        <time>2023-03-07T13:21:15+01:00</time>
      </trkpt>
      <trkpt lat="43.62308" lon="6.75265">
        <ele>315</ele>
        <time>2023-03-07T13:21:25+01:00</time>
      </trkpt>
      <trkpt lat="43.62305" lon="6.75298">
        <ele>318</ele>
        <time>2023-03-07T13:21:34+01:00</time>
      </trkpt>
      <trkpt lat="43.62298" lon="6.75328">
        <ele>319</ele>
        <time>2023-03-07T13:21:44+01:00</time>
      </trkpt>
      <trkpt lat="43.62289" lon="6.7535">
        <ele>319</ele>
        <time>2023-03-07T13:21:53+01:00</time>
      </trkpt>
      <trkpt lat="43.62282" lon="6.75372">
        <ele>319</ele>
        <time>2023-03-07T13:22:03+01:00</time>
      </trkpt>
      <trkpt lat="43.62281" lon="6.75393">
        <ele>319</ele>
        <time>2023-03-07T13:22:12+01:00</time>
      </trkpt>
      <trkpt lat="43.62261" lon="6.75391">
        <ele>315</ele>
        <time>2023-03-07T13:22:21+01:00</time>
      </trkpt>
      <trkpt lat="43.62235" lon="6.75394">
        <ele>311</ele>
        <time>2023-03-07T13:22:30+01:00</time>
      </trkpt>
      <trkpt lat="43.62209" lon="6.75385">
        <ele>308</ele>
        <time>2023-03-07T13:22:40+01:00</time>
      </trkpt>
      <trkpt lat="43.62193" lon="6.75379">
        <ele>306</ele>
        <time>2023-03-07T13:22:49+01:00</time>
      </trkpt>
      <trkpt lat="43.62173" lon="6.75366">
        <ele>304</ele>
        <time>2023-03-07T13:22:58+01:00</time>
      </trkpt>
      <trkpt lat="43.62138" lon="6.75357">
        <ele>298</ele>
        <time>2023-03-07T13:23:07+01:00</time>
      </trkpt>
      <trkpt lat="43.62137" lon="6.75376">
        <ele>296</ele>
        <time>2023-03-07T13:23:17+01:00</time>
      </trkpt>
      <trkpt lat="43.62136" lon="6.75415">
        <ele>290</ele>
        <time>2023-03-07T13:23:26+01:00</time>
      </trkpt>
      <trkpt lat="43.62143" lon="6.75455">
        <ele>286</ele>
        <time>2023-03-07T13:23:35+01:00</time>
      </trkpt>
      <trkpt lat="43.62161" lon="6.7549">
        <ele>285</ele>
        <time>2023-03-07T13:23:44+01:00</time>
      </trkpt>
      <trkpt lat="43.62173" lon="6.75507">
        <ele>285</ele>
        <time>2023-03-07T13:23:53+01:00</time>
      </trkpt>
      <trkpt lat="43.62154" lon="6.75557">
        <ele>276</ele>
        <time>2023-03-07T13:24:03+01:00</time>
      </trkpt>
      <trkpt lat="43.62136" lon="6.75582">
        <ele>270</ele>
        <time>2023-03-07T13:24:12+01:00</time>
      </trkpt>
      <trkpt lat="43.62107" lon="6.75582">
        <ele>266</ele>
        <time>2023-03-07T13:24:21+01:00</time>
      </trkpt>
      <trkpt lat="43.62088" lon="6.75609">
        <ele>260</ele>
        <time>2023-03-07T13:24:30+01:00</time>
      </trkpt>
      <trkpt lat="43.62069" lon="6.75644">
        <ele>255</ele>
        <time>2023-03-07T13:24:39+01:00</time>
      </trkpt>
      <trkpt lat="43.62049" lon="6.75677">
        <ele>251</ele>
        <time>2023-03-07T13:24:48+01:00</time>
      </trkpt>
      <trkpt lat="43.6202" lon="6.75681">
        <ele>247</ele>
        <time>2023-03-07T13:24:58+01:00</time>
      </trkpt>
      <trkpt lat="43.61994" lon="6.7566">
        <ele>243</ele>
        <time>2023-03-07T13:25:07+01:00</time>
      </trkpt>
      <trkpt lat="43.61967" lon="6.75643">
        <ele>239</ele>
        <time>2023-03-07T13:25:16+01:00</time>
      </trkpt>
      <trkpt lat="43.61944" lon="6.75615">
        <ele>237</ele>
        <time>2023-03-07T13:25:25+01:00</time>
      </trkpt>
      <trkpt lat="43.61922" lon="6.75597">
        <ele>232</ele>
        <time>2023-03-07T13:25:34+01:00</time>
      </trkpt>
      <trkpt lat="43.61891" lon="6.7561">
        <ele>231</ele>
        <time>2023-03-07T13:25:44+01:00</time>
      </trkpt>
      <trkpt lat="43.61867" lon="6.756">
        <ele>233</ele>
        <time>2023-03-07T13:25:54+01:00</time>
      </trkpt>
      <trkpt lat="43.61858" lon="6.7561">
        <ele>236</ele>
        <time>2023-03-07T13:26:03+01:00</time>
      </trkpt>
      <trkpt lat="43.61846" lon="6.75619">
        <ele>238</ele>
        <time>2023-03-07T13:26:13+01:00</time>
      </trkpt>
      <trkpt lat="43.61838" lon="6.7563">
        <ele>241</ele>
        <time>2023-03-07T13:26:22+01:00</time>
      </trkpt>
      <trkpt lat="43.61827" lon="6.75638">
        <ele>243</ele>
        <time>2023-03-07T13:26:32+01:00</time>
      </trkpt>
      <trkpt lat="43.61817" lon="6.75646">
        <ele>245</ele>
        <time>2023-03-07T13:26:42+01:00</time>
      </trkpt>
      <trkpt lat="43.61811" lon="6.75658">
        <ele>247</ele>
        <time>2023-03-07T13:26:51+01:00</time>
      </trkpt>
      <trkpt lat="43.61804" lon="6.75672">
        <ele>249</ele>
        <time>2023-03-07T13:27:01+01:00</time>
      </trkpt>
      <trkpt lat="43.61798" lon="6.75689">
        <ele>252</ele>
        <time>2023-03-07T13:27:11+01:00</time>
      </trkpt>
      <trkpt lat="43.61791" lon="6.75707">
        <ele>255</ele>
        <time>2023-03-07T13:27:21+01:00</time>
      </trkpt>
      <trkpt lat="43.61788" lon="6.75724">
        <ele>257</ele>
        <time>2023-03-07T13:27:30+01:00</time>
      </trkpt>
      <trkpt lat="43.61786" lon="6.7574">
        <ele>260</ele>
        <time>2023-03-07T13:27:40+01:00</time>
      </trkpt>
      <trkpt lat="43.61781" lon="6.75757">
        <ele>262</ele>
        <time>2023-03-07T13:27:49+01:00</time>
      </trkpt>
      <trkpt lat="43.61771" lon="6.75772">
        <ele>263</ele>
        <time>2023-03-07T13:27:58+01:00</time>
      </trkpt>
      <trkpt lat="43.6176" lon="6.75783">
        <ele>264</ele>
        <time>2023-03-07T13:28:07+01:00</time>
      </trkpt>
      <trkpt lat="43.61749" lon="6.75795">
        <ele>264</ele>
        <time>2023-03-07T13:28:17+01:00</time>
      </trkpt>
      <trkpt lat="43.61737" lon="6.75809">
        <ele>265</ele>
        <time>2023-03-07T13:28:27+01:00</time>
      </trkpt>
      <trkpt lat="43.61728" lon="6.75823">
        <ele>267</ele>
        <time>2023-03-07T13:28:36+01:00</time>
      </trkpt>
      <trkpt lat="43.61716" lon="6.75837">
        <ele>269</ele>
        <time>2023-03-07T13:28:46+01:00</time>
      </trkpt>
      <trkpt lat="43.61705" lon="6.75852">
        <ele>271</ele>
        <time>2023-03-07T13:28:56+01:00</time>
      </trkpt>
      <trkpt lat="43.61693" lon="6.75864">
        <ele>272</ele>
        <time>2023-03-07T13:29:05+01:00</time>
      </trkpt>
      <trkpt lat="43.61681" lon="6.75878">
        <ele>273</ele>
        <time>2023-03-07T13:29:15+01:00</time>
      </trkpt>
      <trkpt lat="43.61671" lon="6.7589">
        <ele>274</ele>
        <time>2023-03-07T13:29:24+01:00</time>
      </trkpt>
      <trkpt lat="43.61665" lon="6.75905">
        <ele>276</ele>
        <time>2023-03-07T13:29:33+01:00</time>
      </trkpt>
      <trkpt lat="43.61659" lon="6.75922">
        <ele>280</ele>
        <time>2023-03-07T13:29:43+01:00</time>
      </trkpt>
      <trkpt lat="43.61653" lon="6.75938">
        <ele>282</ele>
        <time>2023-03-07T13:29:53+01:00</time>
      </trkpt>
      <trkpt lat="43.61645" lon="6.75956">
        <ele>283</ele>
        <time>2023-03-07T13:30:03+01:00</time>
      </trkpt>
      <trkpt lat="43.61633" lon="6.75979">
        <ele>283</ele>
        <time>2023-03-07T13:30:12+01:00</time>
      </trkpt>
      <trkpt lat="43.61639" lon="6.76014">
        <ele>280</ele>
        <time>2023-03-07T13:30:22+01:00</time>
      </trkpt>
      <trkpt lat="43.61662" lon="6.76028">
        <ele>282</ele>
        <time>2023-03-07T13:30:31+01:00</time>
      </trkpt>
      <trkpt lat="43.61676" lon="6.76038">
        <ele>285</ele>
        <time>2023-03-07T13:30:40+01:00</time>
      </trkpt>
      <trkpt lat="43.61687" lon="6.76034">
        <ele>287</ele>
        <time>2023-03-07T13:30:49+01:00</time>
      </trkpt>
      <trkpt lat="43.61701" lon="6.76032">
        <ele>290</ele>
        <time>2023-03-07T13:30:59+01:00</time>
      </trkpt>
      <trkpt lat="43.61714" lon="6.76037">
        <ele>293</ele>
        <time>2023-03-07T13:31:08+01:00</time>
      </trkpt>
      <trkpt lat="43.61716" lon="6.76051">
        <ele>296</ele>
        <time>2023-03-07T13:31:17+01:00</time>
      </trkpt>
      <trkpt lat="43.6171" lon="6.76066">
        <ele>297</ele>
        <time>2023-03-07T13:31:27+01:00</time>
      </trkpt>
      <trkpt lat="43.61706" lon="6.7608">
        <ele>299</ele>
        <time>2023-03-07T13:31:37+01:00</time>
      </trkpt>
      <trkpt lat="43.61706" lon="6.76096">
        <ele>302</ele>
        <time>2023-03-07T13:31:46+01:00</time>
      </trkpt>
      <trkpt lat="43.6171" lon="6.76109">
        <ele>305</ele>
        <time>2023-03-07T13:31:56+01:00</time>
      </trkpt>
      <trkpt lat="43.61715" lon="6.76124">
        <ele>308</ele>
        <time>2023-03-07T13:32:06+01:00</time>
      </trkpt>
      <trkpt lat="43.6172" lon="6.7614">
        <ele>311</ele>
        <time>2023-03-07T13:32:15+01:00</time>
      </trkpt>
      <trkpt lat="43.61723" lon="6.76162">
        <ele>314</ele>
        <time>2023-03-07T13:32:24+01:00</time>
      </trkpt>
      <trkpt lat="43.61724" lon="6.7618">
        <ele>317</ele>
        <time>2023-03-07T13:32:34+01:00</time>
      </trkpt>
      <trkpt lat="43.61727" lon="6.76196">
        <ele>319</ele>
        <time>2023-03-07T13:32:43+01:00</time>
      </trkpt>
      <trkpt lat="43.61733" lon="6.7621">
        <ele>321</ele>
        <time>2023-03-07T13:32:53+01:00</time>
      </trkpt>
      <trkpt lat="43.61746" lon="6.76211">
        <ele>322</ele>
        <time>2023-03-07T13:33:02+01:00</time>
      </trkpt>
      <trkpt lat="43.61759" lon="6.76208">
        <ele>322</ele>
        <time>2023-03-07T13:33:11+01:00</time>
      </trkpt>
      <trkpt lat="43.61773" lon="6.76209">
        <ele>323</ele>
        <time>2023-03-07T13:33:21+01:00</time>
      </trkpt>
      <trkpt lat="43.61786" lon="6.76215">
        <ele>324</ele>
        <time>2023-03-07T13:33:30+01:00</time>
      </trkpt>
      <trkpt lat="43.61788" lon="6.76236">
        <ele>328</ele>
        <time>2023-03-07T13:33:39+01:00</time>
      </trkpt>
      <trkpt lat="43.61789" lon="6.76253">
        <ele>332</ele>
        <time>2023-03-07T13:33:49+01:00</time>
      </trkpt>
      <trkpt lat="43.61794" lon="6.76269">
        <ele>334</ele>
        <time>2023-03-07T13:33:58+01:00</time>
      </trkpt>
      <trkpt lat="43.61798" lon="6.76285">
        <ele>337</ele>
        <time>2023-03-07T13:34:08+01:00</time>
      </trkpt>
      <trkpt lat="43.61804" lon="6.76301">
        <ele>340</ele>
        <time>2023-03-07T13:34:17+01:00</time>
      </trkpt>
      <trkpt lat="43.61811" lon="6.76318">
        <ele>343</ele>
        <time>2023-03-07T13:34:27+01:00</time>
      </trkpt>
      <trkpt lat="43.61814" lon="6.76335">
        <ele>345</ele>
        <time>2023-03-07T13:34:36+01:00</time>
      </trkpt>
      <trkpt lat="43.61817" lon="6.76351">
        <ele>347</ele>
        <time>2023-03-07T13:34:45+01:00</time>
      </trkpt>
      <trkpt lat="43.61822" lon="6.76368">
        <ele>350</ele>
        <time>2023-03-07T13:34:55+01:00</time>
      </trkpt>
      <trkpt lat="43.61828" lon="6.76386">
        <ele>351</ele>
        <time>2023-03-07T13:35:05+01:00</time>
      </trkpt>
      <trkpt lat="43.6183" lon="6.76406">
        <ele>351</ele>
        <time>2023-03-07T13:35:14+01:00</time>
      </trkpt>
      <trkpt lat="43.61819" lon="6.76417">
        <ele>351</ele>
        <time>2023-03-07T13:35:23+01:00</time>
      </trkpt>
      <trkpt lat="43.61791" lon="6.76422">
        <ele>350</ele>
        <time>2023-03-07T13:35:33+01:00</time>
      </trkpt>
      <trkpt lat="43.61789" lon="6.76441">
        <ele>350</ele>
        <time>2023-03-07T13:35:42+01:00</time>
      </trkpt>
      <trkpt lat="43.61762" lon="6.76443">
        <ele>349</ele>
        <time>2023-03-07T13:35:51+01:00</time>
      </trkpt>
      <trkpt lat="43.61775" lon="6.76492">
        <ele>350</ele>
        <time>2023-03-07T13:36:01+01:00</time>
      </trkpt>
      <trkpt lat="43.61787" lon="6.76516">
        <ele>350</ele>
        <time>2023-03-07T13:36:10+01:00</time>
      </trkpt>
      <trkpt lat="43.61807" lon="6.76514">
        <ele>353</ele>
      </trkpt>
      <trkpt lat="43.61813" lon="6.7653">
        <ele>354</ele>
        <time>2023-03-07T13:36:19+01:00</time>
      </trkpt>
      <trkpt lat="43.61812" lon="6.76556">
        <ele>354</ele>
        <time>2023-03-07T13:36:28+01:00</time>
      </trkpt>
      <trkpt lat="43.61814" lon="6.76582">
        <ele>357</ele>
        <time>2023-03-07T13:36:38+01:00</time>
      </trkpt>
      <trkpt lat="43.61815" lon="6.76602">
        <ele>359</ele>
        <time>2023-03-07T13:36:47+01:00</time>
      </trkpt>
      <trkpt lat="43.61815" lon="6.76632">
        <ele>361</ele>
        <time>2023-03-07T13:36:57+01:00</time>
      </trkpt>
      <trkpt lat="43.61819" lon="6.76664">
        <ele>362</ele>
        <time>2023-03-07T13:37:06+01:00</time>
      </trkpt>
      <trkpt lat="43.61823" lon="6.76696">
        <ele>363</ele>
        <time>2023-03-07T13:37:16+01:00</time>
      </trkpt>
      <trkpt lat="43.61829" lon="6.76719">
        <ele>365</ele>
        <time>2023-03-07T13:37:25+01:00</time>
      </trkpt>
      <trkpt lat="43.61833" lon="6.76742">
        <ele>366</ele>
        <time>2023-03-07T13:37:34+01:00</time>
      </trkpt>
      <trkpt lat="43.61832" lon="6.76776">
        <ele>369</ele>
        <time>2023-03-07T13:37:44+01:00</time>
      </trkpt>
      <trkpt lat="43.61829" lon="6.76805">
        <ele>371</ele>
        <time>2023-03-07T13:37:53+01:00</time>
      </trkpt>
      <trkpt lat="43.61819" lon="6.76836">
        <ele>371</ele>
        <time>2023-03-07T13:38:02+01:00</time>
      </trkpt>
      <trkpt lat="43.61811" lon="6.76867">
        <ele>372</ele>
        <time>2023-03-07T13:38:11+01:00</time>
      </trkpt>
      <trkpt lat="43.61801" lon="6.76899">
        <ele>374</ele>
        <time>2023-03-07T13:38:21+01:00</time>
      </trkpt>
      <trkpt lat="43.61793" lon="6.76928">
        <ele>374</ele>
        <time>2023-03-07T13:38:30+01:00</time>
      </trkpt>
      <trkpt lat="43.61789" lon="6.76959">
        <ele>376</ele>
        <time>2023-03-07T13:38:39+01:00</time>
      </trkpt>
      <trkpt lat="43.61787" lon="6.76991">
        <ele>377</ele>
        <time>2023-03-07T13:38:48+01:00</time>
      </trkpt>
      <trkpt lat="43.61783" lon="6.77023">
        <ele>377</ele>
        <time>2023-03-07T13:38:57+01:00</time>
      </trkpt>
      <trkpt lat="43.61784" lon="6.77054">
        <ele>378</ele>
        <time>2023-03-07T13:39:06+01:00</time>
      </trkpt>
      <trkpt lat="43.61786" lon="6.77087">
        <ele>379</ele>
        <time>2023-03-07T13:39:16+01:00</time>
      </trkpt>
      <trkpt lat="43.61792" lon="6.77117">
        <ele>380</ele>
        <time>2023-03-07T13:39:25+01:00</time>
      </trkpt>
      <trkpt lat="43.61804" lon="6.77145">
        <ele>380</ele>
        <time>2023-03-07T13:39:35+01:00</time>
      </trkpt>
      <trkpt lat="43.61825" lon="6.77167">
        <ele>380</ele>
        <time>2023-03-07T13:39:44+01:00</time>
      </trkpt>
      <trkpt lat="43.61848" lon="6.77168">
        <ele>380</ele>
        <time>2023-03-07T13:39:54+01:00</time>
      </trkpt>
      <trkpt lat="43.61849" lon="6.77207">
        <ele>379</ele>
        <time>2023-03-07T13:40:03+01:00</time>
      </trkpt>
      <trkpt lat="43.61866" lon="6.7724">
        <ele>379</ele>
        <time>2023-03-07T13:40:12+01:00</time>
      </trkpt>
      <trkpt lat="43.6188" lon="6.77273">
        <ele>379</ele>
        <time>2023-03-07T13:40:22+01:00</time>
      </trkpt>
      <trkpt lat="43.61902" lon="6.77269">
        <ele>378</ele>
        <time>2023-03-07T13:40:31+01:00</time>
      </trkpt>
      <trkpt lat="43.61923" lon="6.77235">
        <ele>377</ele>
        <time>2023-03-07T13:40:40+01:00</time>
      </trkpt>
      <trkpt lat="43.61938" lon="6.77195">
        <ele>374</ele>
        <time>2023-03-07T13:40:50+01:00</time>
      </trkpt>
      <trkpt lat="43.61947" lon="6.77156">
        <ele>373</ele>
        <time>2023-03-07T13:40:59+01:00</time>
      </trkpt>
      <trkpt lat="43.61963" lon="6.77119">
        <ele>370</ele>
        <time>2023-03-07T13:41:08+01:00</time>
      </trkpt>
      <trkpt lat="43.6198" lon="6.77125">
        <ele>370</ele>
        <time>2023-03-07T13:41:17+01:00</time>
      </trkpt>
      <trkpt lat="43.61995" lon="6.77134">
        <ele>372</ele>
        <time>2023-03-07T13:41:27+01:00</time>
      </trkpt>
      <trkpt lat="43.62006" lon="6.77147">
        <ele>375</ele>
        <time>2023-03-07T13:41:37+01:00</time>
      </trkpt>
      <trkpt lat="43.62016" lon="6.77156">
        <ele>379</ele>
        <time>2023-03-07T13:41:46+01:00</time>
      </trkpt>
      <trkpt lat="43.62032" lon="6.77154">
        <ele>381</ele>
        <time>2023-03-07T13:41:56+01:00</time>
      </trkpt>
      <trkpt lat="43.62048" lon="6.77148">
        <ele>381</ele>
        <time>2023-03-07T13:42:05+01:00</time>
      </trkpt>
      <trkpt lat="43.62067" lon="6.77147">
        <ele>382</ele>
        <time>2023-03-07T13:42:15+01:00</time>
      </trkpt>
      <trkpt lat="43.62091" lon="6.77155">
        <ele>384</ele>
        <time>2023-03-07T13:42:24+01:00</time>
      </trkpt>
      <trkpt lat="43.62112" lon="6.77167">
        <ele>386</ele>
        <time>2023-03-07T13:42:33+01:00</time>
      </trkpt>
      <trkpt lat="43.62135" lon="6.77179">
        <ele>386</ele>
        <time>2023-03-07T13:42:43+01:00</time>
      </trkpt>
      <trkpt lat="43.62159" lon="6.77193">
        <ele>386</ele>
        <time>2023-03-07T13:42:52+01:00</time>
      </trkpt>
      <trkpt lat="43.62179" lon="6.77212">
        <ele>388</ele>
        <time>2023-03-07T13:43:01+01:00</time>
      </trkpt>
      <trkpt lat="43.622" lon="6.77227">
        <ele>387</ele>
        <time>2023-03-07T13:43:10+01:00</time>
      </trkpt>
      <trkpt lat="43.62223" lon="6.77252">
        <ele>383</ele>
        <time>2023-03-07T13:43:20+01:00</time>
      </trkpt>
      <trkpt lat="43.62252" lon="6.77267">
        <ele>381</ele>
        <time>2023-03-07T13:43:29+01:00</time>
      </trkpt>
      <trkpt lat="43.6228" lon="6.77268">
        <ele>384</ele>
        <time>2023-03-07T13:43:38+01:00</time>
      </trkpt>
      <trkpt lat="43.62307" lon="6.77278">
        <ele>385</ele>
        <time>2023-03-07T13:43:47+01:00</time>
      </trkpt>
      <trkpt lat="43.62333" lon="6.77291">
        <ele>385</ele>
        <time>2023-03-07T13:43:57+01:00</time>
      </trkpt>
      <trkpt lat="43.62354" lon="6.77313">
        <ele>382</ele>
        <time>2023-03-07T13:44:06+01:00</time>
      </trkpt>
      <trkpt lat="43.62376" lon="6.77338">
        <ele>381</ele>
        <time>2023-03-07T13:44:15+01:00</time>
      </trkpt>
      <trkpt lat="43.62397" lon="6.77366">
        <ele>380</ele>
        <time>2023-03-07T13:44:24+01:00</time>
      </trkpt>
      <trkpt lat="43.62416" lon="6.77396">
        <ele>380</ele>
        <time>2023-03-07T13:44:34+01:00</time>
      </trkpt>
      <trkpt lat="43.62413" lon="6.77436">
        <ele>379</ele>
        <time>2023-03-07T13:44:43+01:00</time>
      </trkpt>
      <trkpt lat="43.62406" lon="6.77479">
        <ele>379</ele>
        <time>2023-03-07T13:44:52+01:00</time>
      </trkpt>
      <trkpt lat="43.62401" lon="6.77522">
        <ele>378</ele>
        <time>2023-03-07T13:45:02+01:00</time>
      </trkpt>
      <trkpt lat="43.62426" lon="6.77545">
        <ele>375</ele>
        <time>2023-03-07T13:45:11+01:00</time>
      </trkpt>
      <trkpt lat="43.6245" lon="6.77568">
        <ele>375</ele>
        <time>2023-03-07T13:45:21+01:00</time>
      </trkpt>
      <trkpt lat="43.62476" lon="6.7759">
        <ele>375</ele>
        <time>2023-03-07T13:45:30+01:00</time>
      </trkpt>
      <trkpt lat="43.62498" lon="6.77614">
        <ele>375</ele>
        <time>2023-03-07T13:45:39+01:00</time>
      </trkpt>
      <trkpt lat="43.62515" lon="6.77641">
        <ele>375</ele>
        <time>2023-03-07T13:45:48+01:00</time>
      </trkpt>
      <trkpt lat="43.62533" lon="6.77667">
        <ele>375</ele>
        <time>2023-03-07T13:45:58+01:00</time>
      </trkpt>
      <trkpt lat="43.62553" lon="6.77685">
        <ele>375</ele>
        <time>2023-03-07T13:46:07+01:00</time>
      </trkpt>
      <trkpt lat="43.62572" lon="6.777">
        <ele>375</ele>
        <time>2023-03-07T13:46:16+01:00</time>
      </trkpt>
      <trkpt lat="43.62592" lon="6.77714">
        <ele>376</ele>
        <time>2023-03-07T13:46:25+01:00</time>
      </trkpt>
      <trkpt lat="43.62616" lon="6.77728">
        <ele>376</ele>
        <time>2023-03-07T13:46:35+01:00</time>
      </trkpt>
      <trkpt lat="43.62641" lon="6.77741">
        <ele>377</ele>
        <time>2023-03-07T13:46:44+01:00</time>
      </trkpt>
      <trkpt lat="43.62666" lon="6.77755">
        <ele>376</ele>
        <time>2023-03-07T13:46:54+01:00</time>
      </trkpt>
      <trkpt lat="43.62693" lon="6.77771">
        <ele>376</ele>
        <time>2023-03-07T13:47:03+01:00</time>
      </trkpt>
      <trkpt lat="43.62718" lon="6.77785">
        <ele>374</ele>
        <time>2023-03-07T13:47:12+01:00</time>
      </trkpt>
      <trkpt lat="43.62746" lon="6.77793">
        <ele>373</ele>
        <time>2023-03-07T13:47:21+01:00</time>
      </trkpt>
      <trkpt lat="43.62773" lon="6.77801">
        <ele>372</ele>
        <time>2023-03-07T13:47:30+01:00</time>
      </trkpt>
      <trkpt lat="43.62801" lon="6.77807">
        <ele>371</ele>
        <time>2023-03-07T13:47:40+01:00</time>
      </trkpt>
      <trkpt lat="43.62825" lon="6.77814">
        <ele>371</ele>
        <time>2023-03-07T13:47:49+01:00</time>
      </trkpt>
      <trkpt lat="43.6285" lon="6.77831">
        <ele>370</ele>
        <time>2023-03-07T13:47:58+01:00</time>
      </trkpt>
      <trkpt lat="43.62876" lon="6.77839">
        <ele>370</ele>
        <time>2023-03-07T13:48:08+01:00</time>
      </trkpt>
      <trkpt lat="43.62903" lon="6.77839">
        <ele>370</ele>
        <time>2023-03-07T13:48:17+01:00</time>
      </trkpt>
      <trkpt lat="43.62929" lon="6.77847">
        <ele>370</ele>
        <time>2023-03-07T13:48:26+01:00</time>
      </trkpt>
      <trkpt lat="43.62955" lon="6.77856">
        <ele>370</ele>
        <time>2023-03-07T13:48:36+01:00</time>
      </trkpt>
      <trkpt lat="43.62981" lon="6.7787">
        <ele>370</ele>
        <time>2023-03-07T13:48:45+01:00</time>
      </trkpt>
      <trkpt lat="43.63003" lon="6.77896">
        <ele>370</ele>
        <time>2023-03-07T13:48:54+01:00</time>
      </trkpt>
      <trkpt lat="43.63023" lon="6.77921">
        <ele>370</ele>
        <time>2023-03-07T13:49:03+01:00</time>
      </trkpt>
      <trkpt lat="43.63045" lon="6.77946">
        <ele>370</ele>
        <time>2023-03-07T13:49:13+01:00</time>
      </trkpt>
      <trkpt lat="43.63066" lon="6.77969">
        <ele>370</ele>
        <time>2023-03-07T13:49:22+01:00</time>
      </trkpt>
      <trkpt lat="43.63087" lon="6.77992">
        <ele>370</ele>
        <time>2023-03-07T13:49:32+01:00</time>
      </trkpt>
      <trkpt lat="43.6311" lon="6.78014">
        <ele>370</ele>
        <time>2023-03-07T13:49:41+01:00</time>
      </trkpt>
      <trkpt lat="43.63128" lon="6.78028">
        <ele>372</ele>
        <time>2023-03-07T13:49:50+01:00</time>
      </trkpt>
      <trkpt lat="43.6314" lon="6.7804">
        <ele>373</ele>
        <time>2023-03-07T13:50:00+01:00</time>
      </trkpt>
      <trkpt lat="43.63152" lon="6.78053">
        <ele>375</ele>
        <time>2023-03-07T13:50:10+01:00</time>
      </trkpt>
      <trkpt lat="43.63164" lon="6.78064">
        <ele>376</ele>
        <time>2023-03-07T13:50:19+01:00</time>
      </trkpt>
      <trkpt lat="43.63177" lon="6.78075">
        <ele>377</ele>
        <time>2023-03-07T13:50:29+01:00</time>
      </trkpt>
      <trkpt lat="43.63187" lon="6.78084">
        <ele>378</ele>
        <time>2023-03-07T13:50:39+01:00</time>
      </trkpt>
      <trkpt lat="43.63202" lon="6.78098">
        <ele>379</ele>
        <time>2023-03-07T13:50:49+01:00</time>
      </trkpt>
      <trkpt lat="43.63213" lon="6.78116">
        <ele>381</ele>
        <time>2023-03-07T13:50:59+01:00</time>
      </trkpt>
      <trkpt lat="43.63223" lon="6.78128">
        <ele>383</ele>
        <time>2023-03-07T13:51:08+01:00</time>
      </trkpt>
      <trkpt lat="43.63236" lon="6.78139">
        <ele>385</ele>
        <time>2023-03-07T13:51:18+01:00</time>
      </trkpt>
      <trkpt lat="43.63252" lon="6.78156">
        <ele>387</ele>
        <time>2023-03-07T13:51:27+01:00</time>
      </trkpt>
      <trkpt lat="43.63271" lon="6.78176">
        <ele>387</ele>
        <time>2023-03-07T13:51:37+01:00</time>
      </trkpt>
      <trkpt lat="43.6329" lon="6.78197">
        <ele>387</ele>
        <time>2023-03-07T13:51:46+01:00</time>
      </trkpt>
      <trkpt lat="43.63315" lon="6.78207">
        <ele>388</ele>
        <time>2023-03-07T13:51:55+01:00</time>
      </trkpt>
      <trkpt lat="43.63337" lon="6.78209">
        <ele>388</ele>
        <time>2023-03-07T13:52:05+01:00</time>
      </trkpt>
      <trkpt lat="43.63362" lon="6.78208">
        <ele>389</ele>
        <time>2023-03-07T13:52:14+01:00</time>
      </trkpt>
      <trkpt lat="43.63388" lon="6.7821">
        <ele>388</ele>
        <time>2023-03-07T13:52:23+01:00</time>
      </trkpt>
      <trkpt lat="43.63417" lon="6.78211">
        <ele>388</ele>
        <time>2023-03-07T13:52:33+01:00</time>
      </trkpt>
      <trkpt lat="43.63443" lon="6.78215">
        <ele>386</ele>
        <time>2023-03-07T13:52:42+01:00</time>
      </trkpt>
      <trkpt lat="43.63471" lon="6.78216">
        <ele>384</ele>
        <time>2023-03-07T13:52:51+01:00</time>
      </trkpt>
      <trkpt lat="43.63497" lon="6.78214">
        <ele>383</ele>
        <time>2023-03-07T13:53:01+01:00</time>
      </trkpt>
      <trkpt lat="43.63527" lon="6.78221">
        <ele>380</ele>
        <time>2023-03-07T13:53:10+01:00</time>
      </trkpt>
      <trkpt lat="43.63554" lon="6.78232">
        <ele>378</ele>
        <time>2023-03-07T13:53:19+01:00</time>
      </trkpt>
      <trkpt lat="43.63579" lon="6.78243">
        <ele>377</ele>
        <time>2023-03-07T13:53:28+01:00</time>
      </trkpt>
      <trkpt lat="43.63608" lon="6.78255">
        <ele>378</ele>
        <time>2023-03-07T13:53:38+01:00</time>
      </trkpt>
      <trkpt lat="43.63631" lon="6.78269">
        <ele>381</ele>
        <time>2023-03-07T13:53:47+01:00</time>
      </trkpt>
      <trkpt lat="43.63655" lon="6.78284">
        <ele>382</ele>
        <time>2023-03-07T13:53:56+01:00</time>
      </trkpt>
      <trkpt lat="43.63679" lon="6.78301">
        <ele>381</ele>
        <time>2023-03-07T13:54:05+01:00</time>
      </trkpt>
      <trkpt lat="43.63706" lon="6.7832">
        <ele>378</ele>
        <time>2023-03-07T13:54:14+01:00</time>
      </trkpt>
      <trkpt lat="43.63731" lon="6.78337">
        <ele>377</ele>
        <time>2023-03-07T13:54:24+01:00</time>
      </trkpt>
      <trkpt lat="43.63756" lon="6.78348">
        <ele>376</ele>
        <time>2023-03-07T13:54:33+01:00</time>
      </trkpt>
      <trkpt lat="43.63784" lon="6.7836">
        <ele>375</ele>
        <time>2023-03-07T13:54:42+01:00</time>
      </trkpt>
      <trkpt lat="43.63812" lon="6.78352">
        <ele>374</ele>
        <time>2023-03-07T13:54:51+01:00</time>
      </trkpt>
      <trkpt lat="43.63838" lon="6.78338">
        <ele>374</ele>
        <time>2023-03-07T13:55:00+01:00</time>
      </trkpt>
      <trkpt lat="43.63865" lon="6.78336">
        <ele>373</ele>
        <time>2023-03-07T13:55:10+01:00</time>
      </trkpt>
      <trkpt lat="43.63891" lon="6.78332">
        <ele>373</ele>
        <time>2023-03-07T13:55:19+01:00</time>
      </trkpt>
      <trkpt lat="43.63917" lon="6.78324">
        <ele>374</ele>
        <time>2023-03-07T13:55:29+01:00</time>
      </trkpt>
      <trkpt lat="43.63942" lon="6.78319">
        <ele>374</ele>
        <time>2023-03-07T13:55:38+01:00</time>
      </trkpt>
      <trkpt lat="43.63961" lon="6.78312">
        <ele>375</ele>
        <time>2023-03-07T13:55:47+01:00</time>
      </trkpt>
      <trkpt lat="43.63964" lon="6.78291">
        <ele>376</ele>
        <time>2023-03-07T13:55:57+01:00</time>
      </trkpt>
      <trkpt lat="43.63967" lon="6.78269">
        <ele>376</ele>
        <time>2023-03-07T13:56:06+01:00</time>
      </trkpt>
      <trkpt lat="43.63966" lon="6.78246">
        <ele>377</ele>
        <time>2023-03-07T13:56:16+01:00</time>
      </trkpt>
      <trkpt lat="43.63966" lon="6.78225">
        <ele>377</ele>
        <time>2023-03-07T13:56:25+01:00</time>
      </trkpt>
      <trkpt lat="43.63968" lon="6.782">
        <ele>378</ele>
        <time>2023-03-07T13:56:35+01:00</time>
      </trkpt>
      <trkpt lat="43.6398" lon="6.78171">
        <ele>379</ele>
        <time>2023-03-07T13:56:44+01:00</time>
      </trkpt>
      <trkpt lat="43.64002" lon="6.78151">
        <ele>380</ele>
        <time>2023-03-07T13:56:53+01:00</time>
      </trkpt>
      <trkpt lat="43.64023" lon="6.78127">
        <ele>379</ele>
        <time>2023-03-07T13:57:02+01:00</time>
      </trkpt>
      <trkpt lat="43.64044" lon="6.78104">
        <ele>378</ele>
        <time>2023-03-07T13:57:11+01:00</time>
      </trkpt>
      <trkpt lat="43.64063" lon="6.78074">
        <ele>378</ele>
        <time>2023-03-07T13:57:21+01:00</time>
      </trkpt>
      <trkpt lat="43.64093" lon="6.78047">
        <ele>376</ele>
        <time>2023-03-07T13:57:30+01:00</time>
      </trkpt>
      <trkpt lat="43.64111" lon="6.78025">
        <ele>375</ele>
        <time>2023-03-07T13:57:39+01:00</time>
      </trkpt>
      <trkpt lat="43.6413" lon="6.78006">
        <ele>374</ele>
        <time>2023-03-07T13:57:49+01:00</time>
      </trkpt>
      <trkpt lat="43.64153" lon="6.77993">
        <ele>374</ele>
        <time>2023-03-07T13:57:58+01:00</time>
      </trkpt>
      <trkpt lat="43.64175" lon="6.77981">
        <ele>374</ele>
        <time>2023-03-07T13:58:08+01:00</time>
      </trkpt>
      <trkpt lat="43.64192" lon="6.77948">
        <ele>375</ele>
        <time>2023-03-07T13:58:17+01:00</time>
      </trkpt>
      <trkpt lat="43.64203" lon="6.77915">
        <ele>375</ele>
        <time>2023-03-07T13:58:26+01:00</time>
      </trkpt>
      <trkpt lat="43.64213" lon="6.77891">
        <ele>375</ele>
        <time>2023-03-07T13:58:36+01:00</time>
      </trkpt>
      <trkpt lat="43.64229" lon="6.77869">
        <ele>375</ele>
        <time>2023-03-07T13:58:45+01:00</time>
      </trkpt>
      <trkpt lat="43.64254" lon="6.77845">
        <ele>376</ele>
        <time>2023-03-07T13:58:54+01:00</time>
      </trkpt>
      <trkpt lat="43.64262" lon="6.77823">
        <ele>377</ele>
        <time>2023-03-07T13:59:03+01:00</time>
      </trkpt>
      <trkpt lat="43.64277" lon="6.77797">
        <ele>378</ele>
        <time>2023-03-07T13:59:13+01:00</time>
      </trkpt>
      <trkpt lat="43.64296" lon="6.77781">
        <ele>379</ele>
        <time>2023-03-07T13:59:22+01:00</time>
      </trkpt>
      <trkpt lat="43.64305" lon="6.77751">
        <ele>380</ele>
        <time>2023-03-07T13:59:31+01:00</time>
      </trkpt>
      <trkpt lat="43.64316" lon="6.77728">
        <ele>380</ele>
        <time>2023-03-07T13:59:40+01:00</time>
      </trkpt>
      <trkpt lat="43.6432" lon="6.777">
        <ele>380</ele>
        <time>2023-03-07T13:59:50+01:00</time>
      </trkpt>
      <trkpt lat="43.64331" lon="6.77665">
        <ele>381</ele>
        <time>2023-03-07T13:59:59+01:00</time>
      </trkpt>
      <trkpt lat="43.64345" lon="6.77682">
        <ele>381</ele>
      </trkpt>
      <trkpt lat="43.64349" lon="6.77715">
        <ele>381</ele>
        <time>2023-03-07T14:00:08+01:00</time>
      </trkpt>
      <trkpt lat="43.64357" lon="6.77757">
        <ele>381</ele>
        <time>2023-03-07T14:00:17+01:00</time>
      </trkpt>
      <trkpt lat="43.64359" lon="6.77784">
        <ele>381</ele>
        <time>2023-03-07T14:00:27+01:00</time>
      </trkpt>
      <trkpt lat="43.64362" lon="6.77822">
        <ele>380</ele>
        <time>2023-03-07T14:00:36+01:00</time>
      </trkpt>
      <trkpt lat="43.6436" lon="6.77856">
        <ele>381</ele>
        <time>2023-03-07T14:00:45+01:00</time>
      </trkpt>
      <trkpt lat="43.64362" lon="6.77868">
        <ele>381</ele>
      </trkpt>
      <trkpt lat="43.64354" lon="6.77893">
        <ele>381</ele>
        <time>2023-03-07T14:00:55+01:00</time>
      </trkpt>
      <trkpt lat="43.64368" lon="6.77926">
        <ele>383</ele>
        <time>2023-03-07T14:01:04+01:00</time>
      </trkpt>
      <trkpt lat="43.64388" lon="6.77932">
        <ele>385</ele>
        <time>2023-03-07T14:01:14+01:00</time>
      </trkpt>
      <trkpt lat="43.64399" lon="6.77931">
        <ele>387</ele>
        <time>2023-03-07T14:01:23+01:00</time>
      </trkpt>
      <trkpt lat="43.64412" lon="6.77931">
        <ele>388</ele>
        <time>2023-03-07T14:01:33+01:00</time>
      </trkpt>
      <trkpt lat="43.6442" lon="6.77915">
        <ele>388</ele>
        <time>2023-03-07T14:01:42+01:00</time>
      </trkpt>
      <trkpt lat="43.64433" lon="6.77912">
        <ele>390</ele>
        <time>2023-03-07T14:01:52+01:00</time>
      </trkpt>
      <trkpt lat="43.64446" lon="6.77914">
        <ele>391</ele>
        <time>2023-03-07T14:02:01+01:00</time>
      </trkpt>
      <trkpt lat="43.6446" lon="6.7791">
        <ele>393</ele>
        <time>2023-03-07T14:02:10+01:00</time>
      </trkpt>
      <trkpt lat="43.64473" lon="6.77908">
        <ele>395</ele>
        <time>2023-03-07T14:02:20+01:00</time>
      </trkpt>
      <trkpt lat="43.6449" lon="6.77905">
        <ele>398</ele>
        <time>2023-03-07T14:02:30+01:00</time>
      </trkpt>
      <trkpt lat="43.64496" lon="6.77892">
        <ele>398</ele>
        <time>2023-03-07T14:02:40+01:00</time>
      </trkpt>
      <trkpt lat="43.64505" lon="6.77885">
        <ele>400</ele>
        <time>2023-03-07T14:02:49+01:00</time>
      </trkpt>
      <trkpt lat="43.64515" lon="6.77877">
        <ele>402</ele>
        <time>2023-03-07T14:02:59+01:00</time>
      </trkpt>
      <trkpt lat="43.64525" lon="6.77859">
        <ele>402</ele>
        <time>2023-03-07T14:03:09+01:00</time>
      </trkpt>
      <trkpt lat="43.64538" lon="6.77848">
        <ele>404</ele>
        <time>2023-03-07T14:03:18+01:00</time>
      </trkpt>
      <trkpt lat="43.64549" lon="6.77834">
        <ele>405</ele>
        <time>2023-03-07T14:03:27+01:00</time>
      </trkpt>
      <trkpt lat="43.64557" lon="6.77823">
        <ele>406</ele>
        <time>2023-03-07T14:03:37+01:00</time>
      </trkpt>
      <trkpt lat="43.64566" lon="6.77818">
        <ele>408</ele>
        <time>2023-03-07T14:03:46+01:00</time>
      </trkpt>
      <trkpt lat="43.6458" lon="6.77803">
        <ele>409</ele>
        <time>2023-03-07T14:03:55+01:00</time>
      </trkpt>
      <trkpt lat="43.6459" lon="6.77795">
        <ele>410</ele>
        <time>2023-03-07T14:04:04+01:00</time>
      </trkpt>
      <trkpt lat="43.64612" lon="6.7778">
        <ele>411</ele>
        <time>2023-03-07T14:04:14+01:00</time>
      </trkpt>
      <trkpt lat="43.64626" lon="6.77788">
        <ele>413</ele>
        <time>2023-03-07T14:04:23+01:00</time>
      </trkpt>
      <trkpt lat="43.64639" lon="6.77795">
        <ele>416</ele>
        <time>2023-03-07T14:04:33+01:00</time>
      </trkpt>
      <trkpt lat="43.6465" lon="6.77811">
        <ele>418</ele>
        <time>2023-03-07T14:04:43+01:00</time>
      </trkpt>
      <trkpt lat="43.64662" lon="6.77825">
        <ele>420</ele>
        <time>2023-03-07T14:04:52+01:00</time>
      </trkpt>
      <trkpt lat="43.64674" lon="6.77838">
        <ele>421</ele>
        <time>2023-03-07T14:05:01+01:00</time>
      </trkpt>
      <trkpt lat="43.64681" lon="6.7785">
        <ele>421</ele>
        <time>2023-03-07T14:05:10+01:00</time>
      </trkpt>
      <trkpt lat="43.64693" lon="6.77864">
        <ele>421</ele>
        <time>2023-03-07T14:05:20+01:00</time>
      </trkpt>
      <trkpt lat="43.64686" lon="6.77904">
        <ele>421</ele>
        <time>2023-03-07T14:05:29+01:00</time>
      </trkpt>
      <trkpt lat="43.64686" lon="6.77928">
        <ele>422</ele>
        <time>2023-03-07T14:05:39+01:00</time>
      </trkpt>
      <trkpt lat="43.6468" lon="6.77948">
        <ele>422</ele>
        <time>2023-03-07T14:05:48+01:00</time>
      </trkpt>
      <trkpt lat="43.64664" lon="6.78006">
        <ele>419</ele>
        <time>2023-03-07T14:05:57+01:00</time>
      </trkpt>
      <trkpt lat="43.6468" lon="6.78016">
        <ele>416</ele>
        <time>2023-03-07T14:06:07+01:00</time>
      </trkpt>
      <trkpt lat="43.64708" lon="6.78016">
        <ele>412</ele>
        <time>2023-03-07T14:06:16+01:00</time>
      </trkpt>
      <trkpt lat="43.64706" lon="6.78032">
        <ele>408</ele>
        <time>2023-03-07T14:06:25+01:00</time>
      </trkpt>
      <trkpt lat="43.64711" lon="6.78039">
        <ele>404</ele>
        <time>2023-03-07T14:06:34+01:00</time>
      </trkpt>
      <trkpt lat="43.6473" lon="6.7804">
        <ele>400</ele>
        <time>2023-03-07T14:06:43+01:00</time>
      </trkpt>
      <trkpt lat="43.64757" lon="6.78025">
        <ele>396</ele>
        <time>2023-03-07T14:06:52+01:00</time>
      </trkpt>
      <trkpt lat="43.64777" lon="6.78011">
        <ele>393</ele>
        <time>2023-03-07T14:07:02+01:00</time>
      </trkpt>
      <trkpt lat="43.64803" lon="6.78005">
        <ele>390</ele>
        <time>2023-03-07T14:07:11+01:00</time>
      </trkpt>
      <trkpt lat="43.64827" lon="6.78011">
        <ele>383</ele>
        <time>2023-03-07T14:07:20+01:00</time>
      </trkpt>
      <trkpt lat="43.64851" lon="6.78011">
        <ele>382</ele>
        <time>2023-03-07T14:07:29+01:00</time>
      </trkpt>
      <trkpt lat="43.64874" lon="6.78016">
        <ele>378</ele>
        <time>2023-03-07T14:07:38+01:00</time>
      </trkpt>
      <trkpt lat="43.64891" lon="6.78023">
        <ele>375</ele>
        <time>2023-03-07T14:07:48+01:00</time>
      </trkpt>
      <trkpt lat="43.6491" lon="6.78027">
        <ele>371</ele>
        <time>2023-03-07T14:07:57+01:00</time>
      </trkpt>
      <trkpt lat="43.64931" lon="6.78035">
        <ele>366</ele>
        <time>2023-03-07T14:08:06+01:00</time>
      </trkpt>
      <trkpt lat="43.64949" lon="6.78037">
        <ele>364</ele>
        <time>2023-03-07T14:08:15+01:00</time>
      </trkpt>
      <trkpt lat="43.64966" lon="6.78054">
        <ele>357</ele>
        <time>2023-03-07T14:08:25+01:00</time>
      </trkpt>
      <trkpt lat="43.64977" lon="6.78057">
        <ele>356</ele>
        <time>2023-03-07T14:08:34+01:00</time>
      </trkpt>
      <trkpt lat="43.64993" lon="6.78063">
        <ele>354</ele>
        <time>2023-03-07T14:08:43+01:00</time>
      </trkpt>
      <trkpt lat="43.6501" lon="6.78066">
        <ele>351</ele>
        <time>2023-03-07T14:08:52+01:00</time>
      </trkpt>
      <trkpt lat="43.65031" lon="6.78067">
        <ele>347</ele>
        <time>2023-03-07T14:09:01+01:00</time>
      </trkpt>
      <trkpt lat="43.65043" lon="6.7807">
        <ele>342</ele>
        <time>2023-03-07T14:09:11+01:00</time>
      </trkpt>
      <trkpt lat="43.65031" lon="6.78086">
        <ele>338</ele>
        <time>2023-03-07T14:09:20+01:00</time>
      </trkpt>
      <trkpt lat="43.65016" lon="6.78097">
        <ele>336</ele>
        <time>2023-03-07T14:09:29+01:00</time>
      </trkpt>
      <trkpt lat="43.65019" lon="6.78105">
        <ele>332</ele>
        <time>2023-03-07T14:09:38+01:00</time>
      </trkpt>
      <trkpt lat="43.65036" lon="6.78104">
        <ele>328</ele>
        <time>2023-03-07T14:09:48+01:00</time>
      </trkpt>
      <trkpt lat="43.65054" lon="6.78101">
        <ele>325</ele>
        <time>2023-03-07T14:09:57+01:00</time>
      </trkpt>
      <trkpt lat="43.65065" lon="6.78104">
        <ele>320</ele>
        <time>2023-03-07T14:10:06+01:00</time>
      </trkpt>
      <trkpt lat="43.65076" lon="6.78096">
        <ele>320</ele>
        <time>2023-03-07T14:10:15+01:00</time>
      </trkpt>
      <trkpt lat="43.65096" lon="6.78093">
        <ele>314</ele>
        <time>2023-03-07T14:10:25+01:00</time>
      </trkpt>
      <trkpt lat="43.65118" lon="6.78085">
        <ele>309</ele>
        <time>2023-03-07T14:10:34+01:00</time>
      </trkpt>
      <trkpt lat="43.65133" lon="6.78071">
        <ele>307</ele>
        <time>2023-03-07T14:10:43+01:00</time>
      </trkpt>
      <trkpt lat="43.65151" lon="6.78062">
        <ele>303</ele>
        <time>2023-03-07T14:10:53+01:00</time>
      </trkpt>
      <trkpt lat="43.65174" lon="6.78046">
        <ele>299</ele>
        <time>2023-03-07T14:11:02+01:00</time>
      </trkpt>
      <trkpt lat="43.65193" lon="6.78034">
        <ele>295</ele>
        <time>2023-03-07T14:11:11+01:00</time>
      </trkpt>
      <trkpt lat="43.65215" lon="6.78025">
        <ele>291</ele>
        <time>2023-03-07T14:11:20+01:00</time>
      </trkpt>
      <trkpt lat="43.65244" lon="6.78015">
        <ele>285</ele>
        <time>2023-03-07T14:11:30+01:00</time>
      </trkpt>
      <trkpt lat="43.65268" lon="6.78001">
        <ele>281</ele>
        <time>2023-03-07T14:11:39+01:00</time>
      </trkpt>
      <trkpt lat="43.65285" lon="6.77989">
        <ele>278</ele>
        <time>2023-03-07T14:11:49+01:00</time>
      </trkpt>
      <trkpt lat="43.65306" lon="6.77966">
        <ele>275</ele>
        <time>2023-03-07T14:11:58+01:00</time>
      </trkpt>
      <trkpt lat="43.65323" lon="6.77949">
        <ele>272</ele>
        <time>2023-03-07T14:12:07+01:00</time>
      </trkpt>
      <trkpt lat="43.65334" lon="6.77923">
        <ele>269</ele>
        <time>2023-03-07T14:12:17+01:00</time>
      </trkpt>
      <trkpt lat="43.65342" lon="6.77899">
        <ele>267</ele>
        <time>2023-03-07T14:12:26+01:00</time>
      </trkpt>
      <trkpt lat="43.65357" lon="6.77872">
        <ele>261</ele>
        <time>2023-03-07T14:12:35+01:00</time>
      </trkpt>
      <trkpt lat="43.65373" lon="6.77845">
        <ele>255</ele>
        <time>2023-03-07T14:12:45+01:00</time>
      </trkpt>
      <trkpt lat="43.65381" lon="6.77811">
        <ele>251</ele>
        <time>2023-03-07T14:12:54+01:00</time>
      </trkpt>
      <trkpt lat="43.65391" lon="6.77797">
        <ele>247</ele>
        <time>2023-03-07T14:13:03+01:00</time>
      </trkpt>
      <trkpt lat="43.65417" lon="6.77797">
        <ele>241</ele>
        <time>2023-03-07T14:13:12+01:00</time>
      </trkpt>
      <trkpt lat="43.65433" lon="6.77765">
        <ele>239</ele>
        <time>2023-03-07T14:13:21+01:00</time>
      </trkpt>
      <trkpt lat="43.65452" lon="6.77753">
        <ele>234</ele>
        <time>2023-03-07T14:13:31+01:00</time>
      </trkpt>
      <trkpt lat="43.65477" lon="6.7773">
        <ele>228</ele>
        <time>2023-03-07T14:13:40+01:00</time>
      </trkpt>
      <trkpt lat="43.65496" lon="6.77706">
        <ele>226</ele>
        <time>2023-03-07T14:13:49+01:00</time>
      </trkpt>
      <trkpt lat="43.65514" lon="6.77686">
        <ele>224</ele>
        <time>2023-03-07T14:13:59+01:00</time>
      </trkpt>
      <trkpt lat="43.65532" lon="6.77667">
        <ele>225</ele>
        <time>2023-03-07T14:14:08+01:00</time>
      </trkpt>
      <trkpt lat="43.65557" lon="6.77659">
        <ele>223</ele>
        <time>2023-03-07T14:14:18+01:00</time>
      </trkpt>
      <trkpt lat="43.6557" lon="6.77636">
        <ele>228</ele>
        <time>2023-03-07T14:14:27+01:00</time>
      </trkpt>
      <trkpt lat="43.65586" lon="6.77629">
        <ele>226</ele>
        <time>2023-03-07T14:14:36+01:00</time>
      </trkpt>
      <trkpt lat="43.65609" lon="6.77634">
        <ele>220</ele>
        <time>2023-03-07T14:14:46+01:00</time>
      </trkpt>
      <trkpt lat="43.65626" lon="6.77639">
        <ele>221</ele>
        <time>2023-03-07T14:14:55+01:00</time>
      </trkpt>
      <trkpt lat="43.65648" lon="6.7764">
        <ele>223</ele>
        <time>2023-03-07T14:15:04+01:00</time>
      </trkpt>
      <trkpt lat="43.65675" lon="6.77636">
        <ele>223</ele>
        <time>2023-03-07T14:15:14+01:00</time>
      </trkpt>
      <trkpt lat="43.65697" lon="6.77627">
        <ele>223</ele>
        <time>2023-03-07T14:15:23+01:00</time>
      </trkpt>
      <trkpt lat="43.65712" lon="6.77591">
        <ele>226</ele>
        <time>2023-03-07T14:15:32+01:00</time>
      </trkpt>
      <trkpt lat="43.65735" lon="6.77586">
        <ele>222</ele>
        <time>2023-03-07T14:15:41+01:00</time>
      </trkpt>
      <trkpt lat="43.6575" lon="6.77587">
        <ele>220</ele>
      </trkpt>
      <trkpt lat="43.65766" lon="6.77584">
        <ele>220</ele>
        <time>2023-03-07T14:15:51+01:00</time>
      </trkpt>
      <trkpt lat="43.65776" lon="6.77589">
        <ele>219</ele>
      </trkpt>
      <trkpt lat="43.65782" lon="6.77608">
        <ele>215</ele>
        <time>2023-03-07T14:16:00+01:00</time>
      </trkpt>
      <trkpt lat="43.65796" lon="6.77612">
        <ele>213</ele>
        <time>2023-03-07T14:16:09+01:00</time>
      </trkpt>
      <trkpt lat="43.65814" lon="6.7761">
        <ele>212</ele>
        <time>2023-03-07T14:16:18+01:00</time>
      </trkpt>
      <trkpt lat="43.65827" lon="6.77622">
        <ele>210</ele>
      </trkpt>
      <trkpt lat="43.6584" lon="6.77617">
        <ele>210</ele>
        <time>2023-03-07T14:16:27+01:00</time>
      </trkpt>
      <trkpt lat="43.65877" lon="6.77607">
        <ele>209</ele>
        <time>2023-03-07T14:16:37+01:00</time>
      </trkpt>
      <trkpt lat="43.65905" lon="6.77616">
        <ele>205</ele>
        <time>2023-03-07T14:16:46+01:00</time>
      </trkpt>
      <trkpt lat="43.65912" lon="6.7761">
        <ele>207</ele>
        <time>2023-03-07T14:16:55+01:00</time>
      </trkpt>
      <trkpt lat="43.65922" lon="6.77606">
        <ele>207</ele>
        <time>2023-03-07T14:17:04+01:00</time>
      </trkpt>
      <trkpt lat="43.65957" lon="6.7762">
        <ele>199</ele>
        <time>2023-03-07T14:17:14+01:00</time>
      </trkpt>
      <trkpt lat="43.65974" lon="6.77616">
        <ele>197</ele>
        <time>2023-03-07T14:17:23+01:00</time>
      </trkpt>
      <trkpt lat="43.65966" lon="6.77636">
        <ele>194</ele>
        <time>2023-03-07T14:17:33+01:00</time>
      </trkpt>
      <trkpt lat="43.6598" lon="6.77632">
        <ele>193</ele>
      </trkpt>
      <trkpt lat="43.65988" lon="6.77657">
        <ele>190</ele>
        <time>2023-03-07T14:17:42+01:00</time>
      </trkpt>
      <trkpt lat="43.65996" lon="6.77682">
        <ele>192</ele>
        <time>2023-03-07T14:17:51+01:00</time>
      </trkpt>
      <trkpt lat="43.65982" lon="6.77696">
        <ele>192</ele>
      </trkpt>
      <trkpt lat="43.65967" lon="6.77705">
        <ele>192</ele>
        <time>2023-03-07T14:18:00+01:00</time>
      </trkpt>
      <trkpt lat="43.65956" lon="6.77719">
        <ele>193</ele>
        <time>2023-03-07T14:18:10+01:00</time>
      </trkpt>
      <trkpt lat="43.6595" lon="6.77733">
        <ele>194</ele>
        <time>2023-03-07T14:18:20+01:00</time>
      </trkpt>
      <trkpt lat="43.65941" lon="6.77743">
        <ele>193</ele>
        <time>2023-03-07T14:18:30+01:00</time>
      </trkpt>
      <trkpt lat="43.65939" lon="6.77758">
        <ele>196</ele>
        <time>2023-03-07T14:18:39+01:00</time>
      </trkpt>
      <trkpt lat="43.65931" lon="6.77772">
        <ele>198</ele>
        <time>2023-03-07T14:18:49+01:00</time>
      </trkpt>
      <trkpt lat="43.65925" lon="6.77789">
        <ele>200</ele>
        <time>2023-03-07T14:18:58+01:00</time>
      </trkpt>
      <trkpt lat="43.65921" lon="6.77806">
        <ele>201</ele>
        <time>2023-03-07T14:19:07+01:00</time>
      </trkpt>
      <trkpt lat="43.65913" lon="6.77824">
        <ele>203</ele>
        <time>2023-03-07T14:19:17+01:00</time>
      </trkpt>
      <trkpt lat="43.65907" lon="6.77838">
        <ele>204</ele>
        <time>2023-03-07T14:19:26+01:00</time>
      </trkpt>
      <trkpt lat="43.65896" lon="6.77854">
        <ele>206</ele>
        <time>2023-03-07T14:19:36+01:00</time>
      </trkpt>
      <trkpt lat="43.65897" lon="6.77868">
        <ele>211</ele>
        <time>2023-03-07T14:19:46+01:00</time>
      </trkpt>
      <trkpt lat="43.65881" lon="6.77878">
        <ele>211</ele>
        <time>2023-03-07T14:19:55+01:00</time>
      </trkpt>
      <trkpt lat="43.65871" lon="6.77887">
        <ele>213</ele>
        <time>2023-03-07T14:20:04+01:00</time>
      </trkpt>
      <trkpt lat="43.65858" lon="6.77893">
        <ele>214</ele>
        <time>2023-03-07T14:20:14+01:00</time>
      </trkpt>
      <trkpt lat="43.65857" lon="6.77898">
        <ele>216</ele>
        <time>2023-03-07T14:20:24+01:00</time>
      </trkpt>
      <trkpt lat="43.65869" lon="6.77911">
        <ele>221</ele>
        <time>2023-03-07T14:20:34+01:00</time>
      </trkpt>
      <trkpt lat="43.6586" lon="6.77926">
        <ele>225</ele>
        <time>2023-03-07T14:20:43+01:00</time>
      </trkpt>
      <trkpt lat="43.65844" lon="6.77919">
        <ele>224</ele>
        <time>2023-03-07T14:20:53+01:00</time>
      </trkpt>
      <trkpt lat="43.65834" lon="6.77919">
        <ele>225</ele>
        <time>2023-03-07T14:21:02+01:00</time>
      </trkpt>
      <trkpt lat="43.65824" lon="6.77927">
        <ele>225</ele>
        <time>2023-03-07T14:21:12+01:00</time>
      </trkpt>
      <trkpt lat="43.65814" lon="6.77937">
        <ele>225</ele>
        <time>2023-03-07T14:21:21+01:00</time>
      </trkpt>
      <trkpt lat="43.65811" lon="6.77955">
        <ele>229</ele>
        <time>2023-03-07T14:21:30+01:00</time>
      </trkpt>
      <trkpt lat="43.65805" lon="6.77969">
        <ele>230</ele>
        <time>2023-03-07T14:21:40+01:00</time>
      </trkpt>
      <trkpt lat="43.65798" lon="6.77984">
        <ele>233</ele>
        <time>2023-03-07T14:21:49+01:00</time>
      </trkpt>
      <trkpt lat="43.6579" lon="6.78001">
        <ele>235</ele>
        <time>2023-03-07T14:21:59+01:00</time>
      </trkpt>
      <trkpt lat="43.65783" lon="6.78023">
        <ele>238</ele>
        <time>2023-03-07T14:22:08+01:00</time>
      </trkpt>
      <trkpt lat="43.65772" lon="6.78009">
        <ele>236</ele>
        <time>2023-03-07T14:22:17+01:00</time>
      </trkpt>
      <trkpt lat="43.65762" lon="6.77997">
        <ele>236</ele>
        <time>2023-03-07T14:22:27+01:00</time>
      </trkpt>
      <trkpt lat="43.65743" lon="6.77985">
        <ele>236</ele>
        <time>2023-03-07T14:22:36+01:00</time>
      </trkpt>
      <trkpt lat="43.65732" lon="6.77988">
        <ele>238</ele>
        <time>2023-03-07T14:22:45+01:00</time>
      </trkpt>
      <trkpt lat="43.65725" lon="6.77997">
        <ele>239</ele>
        <time>2023-03-07T14:22:55+01:00</time>
      </trkpt>
      <trkpt lat="43.65726" lon="6.78014">
        <ele>241</ele>
        <time>2023-03-07T14:23:04+01:00</time>
      </trkpt>
      <trkpt lat="43.65732" lon="6.78029">
        <ele>243</ele>
        <time>2023-03-07T14:23:14+01:00</time>
      </trkpt>
      <trkpt lat="43.65742" lon="6.7804">
        <ele>245</ele>
        <time>2023-03-07T14:23:23+01:00</time>
      </trkpt>
      <trkpt lat="43.6575" lon="6.78053">
        <ele>247</ele>
        <time>2023-03-07T14:23:32+01:00</time>
      </trkpt>
      <trkpt lat="43.65759" lon="6.78061">
        <ele>248</ele>
        <time>2023-03-07T14:23:42+01:00</time>
      </trkpt>
      <trkpt lat="43.65768" lon="6.78074">
        <ele>251</ele>
        <time>2023-03-07T14:23:52+01:00</time>
      </trkpt>
      <trkpt lat="43.65779" lon="6.78082">
        <ele>254</ele>
        <time>2023-03-07T14:24:01+01:00</time>
      </trkpt>
      <trkpt lat="43.65789" lon="6.78095">
        <ele>257</ele>
        <time>2023-03-07T14:24:11+01:00</time>
      </trkpt>
      <trkpt lat="43.658" lon="6.78102">
        <ele>259</ele>
        <time>2023-03-07T14:24:21+01:00</time>
      </trkpt>
      <trkpt lat="43.65817" lon="6.78112">
        <ele>265</ele>
        <time>2023-03-07T14:24:31+01:00</time>
      </trkpt>
      <trkpt lat="43.65803" lon="6.78114">
        <ele>263</ele>
        <time>2023-03-07T14:24:41+01:00</time>
      </trkpt>
      <trkpt lat="43.6579" lon="6.78116">
        <ele>263</ele>
        <time>2023-03-07T14:24:50+01:00</time>
      </trkpt>
      <trkpt lat="43.65782" lon="6.78126">
        <ele>266</ele>
        <time>2023-03-07T14:25:00+01:00</time>
      </trkpt>
      <trkpt lat="43.65775" lon="6.78143">
        <ele>270</ele>
        <time>2023-03-07T14:25:10+01:00</time>
      </trkpt>
      <trkpt lat="43.65772" lon="6.78155">
        <ele>271</ele>
        <time>2023-03-07T14:25:19+01:00</time>
      </trkpt>
      <trkpt lat="43.65784" lon="6.78156">
        <ele>274</ele>
        <time>2023-03-07T14:25:29+01:00</time>
      </trkpt>
      <trkpt lat="43.65797" lon="6.78149">
        <ele>274</ele>
        <time>2023-03-07T14:25:38+01:00</time>
      </trkpt>
      <trkpt lat="43.6581" lon="6.78145">
        <ele>275</ele>
        <time>2023-03-07T14:25:47+01:00</time>
      </trkpt>
      <trkpt lat="43.65815" lon="6.7815">
        <ele>277</ele>
        <time>2023-03-07T14:25:57+01:00</time>
      </trkpt>
      <trkpt lat="43.65802" lon="6.78167">
        <ele>280</ele>
        <time>2023-03-07T14:26:06+01:00</time>
      </trkpt>
      <trkpt lat="43.6579" lon="6.78183">
        <ele>282</ele>
        <time>2023-03-07T14:26:16+01:00</time>
      </trkpt>
      <trkpt lat="43.65782" lon="6.78196">
        <ele>283</ele>
        <time>2023-03-07T14:26:25+01:00</time>
      </trkpt>
      <trkpt lat="43.65778" lon="6.78214">
        <ele>287</ele>
        <time>2023-03-07T14:26:35+01:00</time>
      </trkpt>
      <trkpt lat="43.65774" lon="6.78231">
        <ele>289</ele>
        <time>2023-03-07T14:26:45+01:00</time>
      </trkpt>
      <trkpt lat="43.65769" lon="6.78247">
        <ele>290</ele>
        <time>2023-03-07T14:26:55+01:00</time>
      </trkpt>
      <trkpt lat="43.65769" lon="6.78259">
        <ele>292</ele>
        <time>2023-03-07T14:27:05+01:00</time>
      </trkpt>
      <trkpt lat="43.65768" lon="6.7827">
        <ele>294</ele>
        <time>2023-03-07T14:27:14+01:00</time>
      </trkpt>
      <trkpt lat="43.65765" lon="6.78285">
        <ele>296</ele>
        <time>2023-03-07T14:27:24+01:00</time>
      </trkpt>
      <trkpt lat="43.65762" lon="6.783">
        <ele>298</ele>
        <time>2023-03-07T14:27:34+01:00</time>
      </trkpt>
      <trkpt lat="43.65758" lon="6.78317">
        <ele>300</ele>
        <time>2023-03-07T14:27:43+01:00</time>
      </trkpt>
      <trkpt lat="43.65753" lon="6.78334">
        <ele>303</ele>
        <time>2023-03-07T14:27:52+01:00</time>
      </trkpt>
      <trkpt lat="43.65743" lon="6.78347">
        <ele>304</ele>
        <time>2023-03-07T14:28:02+01:00</time>
      </trkpt>
      <trkpt lat="43.65737" lon="6.78362">
        <ele>307</ele>
        <time>2023-03-07T14:28:12+01:00</time>
      </trkpt>
      <trkpt lat="43.65727" lon="6.78375">
        <ele>308</ele>
        <time>2023-03-07T14:28:22+01:00</time>
      </trkpt>
      <trkpt lat="43.65723" lon="6.78391">
        <ele>310</ele>
        <time>2023-03-07T14:28:31+01:00</time>
      </trkpt>
      <trkpt lat="43.65714" lon="6.78405">
        <ele>311</ele>
        <time>2023-03-07T14:28:41+01:00</time>
      </trkpt>
      <trkpt lat="43.65707" lon="6.78422">
        <ele>312</ele>
        <time>2023-03-07T14:28:50+01:00</time>
      </trkpt>
      <trkpt lat="43.657" lon="6.7844">
        <ele>315</ele>
        <time>2023-03-07T14:28:59+01:00</time>
      </trkpt>
      <trkpt lat="43.65687" lon="6.78463">
        <ele>316</ele>
        <time>2023-03-07T14:29:09+01:00</time>
      </trkpt>
      <trkpt lat="43.65677" lon="6.78479">
        <ele>317</ele>
        <time>2023-03-07T14:29:18+01:00</time>
      </trkpt>
      <trkpt lat="43.65666" lon="6.78501">
        <ele>320</ele>
        <time>2023-03-07T14:29:27+01:00</time>
      </trkpt>
      <trkpt lat="43.65659" lon="6.78516">
        <ele>322</ele>
        <time>2023-03-07T14:29:36+01:00</time>
      </trkpt>
      <trkpt lat="43.65653" lon="6.78532">
        <ele>325</ele>
        <time>2023-03-07T14:29:46+01:00</time>
      </trkpt>
      <trkpt lat="43.65644" lon="6.78545">
        <ele>326</ele>
        <time>2023-03-07T14:29:56+01:00</time>
      </trkpt>
      <trkpt lat="43.65637" lon="6.78561">
        <ele>328</ele>
        <time>2023-03-07T14:30:06+01:00</time>
      </trkpt>
      <trkpt lat="43.65631" lon="6.78579">
        <ele>331</ele>
        <time>2023-03-07T14:30:16+01:00</time>
      </trkpt>
      <trkpt lat="43.65626" lon="6.78593">
        <ele>333</ele>
        <time>2023-03-07T14:30:26+01:00</time>
      </trkpt>
      <trkpt lat="43.6562" lon="6.78605">
        <ele>335</ele>
        <time>2023-03-07T14:30:35+01:00</time>
      </trkpt>
      <trkpt lat="43.65612" lon="6.78618">
        <ele>338</ele>
        <time>2023-03-07T14:30:45+01:00</time>
      </trkpt>
      <trkpt lat="43.65602" lon="6.78628">
        <ele>340</ele>
        <time>2023-03-07T14:30:54+01:00</time>
      </trkpt>
      <trkpt lat="43.6559" lon="6.78638">
        <ele>342</ele>
        <time>2023-03-07T14:31:04+01:00</time>
      </trkpt>
      <trkpt lat="43.6558" lon="6.78652">
        <ele>345</ele>
        <time>2023-03-07T14:31:14+01:00</time>
      </trkpt>
      <trkpt lat="43.65571" lon="6.78665">
        <ele>348</ele>
        <time>2023-03-07T14:31:24+01:00</time>
      </trkpt>
      <trkpt lat="43.65562" lon="6.78677">
        <ele>350</ele>
        <time>2023-03-07T14:31:34+01:00</time>
      </trkpt>
      <trkpt lat="43.65555" lon="6.78687">
        <ele>352</ele>
        <time>2023-03-07T14:31:43+01:00</time>
      </trkpt>
      <trkpt lat="43.65548" lon="6.78701">
        <ele>355</ele>
        <time>2023-03-07T14:31:53+01:00</time>
      </trkpt>
      <trkpt lat="43.65541" lon="6.78713">
        <ele>357</ele>
        <time>2023-03-07T14:32:02+01:00</time>
      </trkpt>
      <trkpt lat="43.65532" lon="6.78725">
        <ele>359</ele>
        <time>2023-03-07T14:32:11+01:00</time>
      </trkpt>
      <trkpt lat="43.65525" lon="6.78736">
        <ele>362</ele>
        <time>2023-03-07T14:32:21+01:00</time>
      </trkpt>
      <trkpt lat="43.65516" lon="6.78746">
        <ele>364</ele>
        <time>2023-03-07T14:32:30+01:00</time>
      </trkpt>
      <trkpt lat="43.65505" lon="6.78756">
        <ele>366</ele>
        <time>2023-03-07T14:32:40+01:00</time>
      </trkpt>
      <trkpt lat="43.65496" lon="6.78769">
        <ele>369</ele>
        <time>2023-03-07T14:32:49+01:00</time>
      </trkpt>
      <trkpt lat="43.65486" lon="6.78777">
        <ele>371</ele>
        <time>2023-03-07T14:32:58+01:00</time>
      </trkpt>
      <trkpt lat="43.65482" lon="6.78788">
        <ele>374</ele>
        <time>2023-03-07T14:33:08+01:00</time>
      </trkpt>
      <trkpt lat="43.655" lon="6.78785">
        <ele>377</ele>
        <time>2023-03-07T14:33:18+01:00</time>
      </trkpt>
      <trkpt lat="43.65492" lon="6.78796">
        <ele>379</ele>
        <time>2023-03-07T14:33:28+01:00</time>
      </trkpt>
      <trkpt lat="43.6548" lon="6.78807">
        <ele>381</ele>
        <time>2023-03-07T14:33:37+01:00</time>
      </trkpt>
      <trkpt lat="43.65471" lon="6.78815">
        <ele>382</ele>
        <time>2023-03-07T14:33:47+01:00</time>
      </trkpt>
      <trkpt lat="43.65462" lon="6.78823">
        <ele>384</ele>
        <time>2023-03-07T14:33:57+01:00</time>
      </trkpt>
      <trkpt lat="43.65451" lon="6.78831">
        <ele>386</ele>
        <time>2023-03-07T14:34:06+01:00</time>
      </trkpt>
      <trkpt lat="43.6544" lon="6.78835">
        <ele>388</ele>
        <time>2023-03-07T14:34:16+01:00</time>
      </trkpt>
      <trkpt lat="43.65428" lon="6.78842">
        <ele>390</ele>
        <time>2023-03-07T14:34:26+01:00</time>
      </trkpt>
      <trkpt lat="43.65415" lon="6.78848">
        <ele>392</ele>
        <time>2023-03-07T14:34:36+01:00</time>
      </trkpt>
      <trkpt lat="43.65404" lon="6.78856">
        <ele>394</ele>
        <time>2023-03-07T14:34:46+01:00</time>
      </trkpt>
      <trkpt lat="43.65393" lon="6.78861">
        <ele>395</ele>
        <time>2023-03-07T14:34:55+01:00</time>
      </trkpt>
      <trkpt lat="43.65382" lon="6.78876">
        <ele>399</ele>
        <time>2023-03-07T14:35:05+01:00</time>
      </trkpt>
      <trkpt lat="43.65372" lon="6.78886">
        <ele>402</ele>
        <time>2023-03-07T14:35:14+01:00</time>
      </trkpt>
      <trkpt lat="43.6536" lon="6.78896">
        <ele>403</ele>
        <time>2023-03-07T14:35:24+01:00</time>
      </trkpt>
      <trkpt lat="43.65348" lon="6.78904">
        <ele>403</ele>
        <time>2023-03-07T14:35:33+01:00</time>
      </trkpt>
      <trkpt lat="43.65338" lon="6.78917">
        <ele>406</ele>
        <time>2023-03-07T14:35:43+01:00</time>
      </trkpt>
      <trkpt lat="43.65326" lon="6.78932">
        <ele>406</ele>
        <time>2023-03-07T14:35:52+01:00</time>
      </trkpt>
      <trkpt lat="43.65315" lon="6.78948">
        <ele>407</ele>
        <time>2023-03-07T14:36:01+01:00</time>
      </trkpt>
      <trkpt lat="43.653" lon="6.78967">
        <ele>407</ele>
        <time>2023-03-07T14:36:11+01:00</time>
      </trkpt>
      <trkpt lat="43.65293" lon="6.7898">
        <ele>409</ele>
        <time>2023-03-07T14:36:20+01:00</time>
      </trkpt>
      <trkpt lat="43.65283" lon="6.78995">
        <ele>413</ele>
        <time>2023-03-07T14:36:29+01:00</time>
      </trkpt>
      <trkpt lat="43.65272" lon="6.79003">
        <ele>414</ele>
        <time>2023-03-07T14:36:39+01:00</time>
      </trkpt>
      <trkpt lat="43.65261" lon="6.79012">
        <ele>417</ele>
        <time>2023-03-07T14:36:48+01:00</time>
      </trkpt>
      <trkpt lat="43.65252" lon="6.79022">
        <ele>422</ele>
        <time>2023-03-07T14:36:57+01:00</time>
      </trkpt>
      <trkpt lat="43.65242" lon="6.79025">
        <ele>423</ele>
        <time>2023-03-07T14:37:06+01:00</time>
      </trkpt>
      <trkpt lat="43.65231" lon="6.7903">
        <ele>427</ele>
        <time>2023-03-07T14:37:16+01:00</time>
      </trkpt>
      <trkpt lat="43.65219" lon="6.79036">
        <ele>430</ele>
        <time>2023-03-07T14:37:26+01:00</time>
      </trkpt>
      <trkpt lat="43.65207" lon="6.79037">
        <ele>430</ele>
        <time>2023-03-07T14:37:35+01:00</time>
      </trkpt>
      <trkpt lat="43.65195" lon="6.7904">
        <ele>430</ele>
        <time>2023-03-07T14:37:45+01:00</time>
      </trkpt>
      <trkpt lat="43.65186" lon="6.79051">
        <ele>435</ele>
        <time>2023-03-07T14:37:55+01:00</time>
      </trkpt>
      <trkpt lat="43.65174" lon="6.79059">
        <ele>438</ele>
        <time>2023-03-07T14:38:05+01:00</time>
      </trkpt>
      <trkpt lat="43.65163" lon="6.79064">
        <ele>439</ele>
        <time>2023-03-07T14:38:14+01:00</time>
      </trkpt>
      <trkpt lat="43.65149" lon="6.79071">
        <ele>441</ele>
        <time>2023-03-07T14:38:24+01:00</time>
      </trkpt>
      <trkpt lat="43.65136" lon="6.79082">
        <ele>445</ele>
        <time>2023-03-07T14:38:33+01:00</time>
      </trkpt>
      <trkpt lat="43.65123" lon="6.79095">
        <ele>450</ele>
        <time>2023-03-07T14:38:43+01:00</time>
      </trkpt>
      <trkpt lat="43.65109" lon="6.79099">
        <ele>451</ele>
        <time>2023-03-07T14:38:53+01:00</time>
      </trkpt>
      <trkpt lat="43.65095" lon="6.79105">
        <ele>455</ele>
        <time>2023-03-07T14:39:02+01:00</time>
      </trkpt>
      <trkpt lat="43.65081" lon="6.79107">
        <ele>458</ele>
        <time>2023-03-07T14:39:11+01:00</time>
      </trkpt>
      <trkpt lat="43.65066" lon="6.79112">
        <ele>460</ele>
        <time>2023-03-07T14:39:20+01:00</time>
      </trkpt>
      <trkpt lat="43.65051" lon="6.79112">
        <ele>460</ele>
        <time>2023-03-07T14:39:30+01:00</time>
      </trkpt>
      <trkpt lat="43.65046" lon="6.79113">
        <ele>459</ele>
        <time>2023-03-07T14:39:39+01:00</time>
      </trkpt>
      <trkpt lat="43.6507" lon="6.79118">
        <ele>462</ele>
        <time>2023-03-07T14:39:48+01:00</time>
      </trkpt>
      <trkpt lat="43.65093" lon="6.79125">
        <ele>464</ele>
        <time>2023-03-07T14:39:58+01:00</time>
      </trkpt>
      <trkpt lat="43.65109" lon="6.79132">
        <ele>466</ele>
        <time>2023-03-07T14:40:07+01:00</time>
      </trkpt>
      <trkpt lat="43.65135" lon="6.79132">
        <ele>467</ele>
        <time>2023-03-07T14:40:17+01:00</time>
      </trkpt>
      <trkpt lat="43.65136" lon="6.79139">
        <ele>469</ele>
        <time>2023-03-07T14:40:26+01:00</time>
      </trkpt>
      <trkpt lat="43.65122" lon="6.79155">
        <ele>469</ele>
        <time>2023-03-07T14:40:35+01:00</time>
      </trkpt>
      <trkpt lat="43.6512" lon="6.79159">
        <ele>469</ele>
        <time>2023-03-07T14:40:38+01:00</time>
      </trkpt>
      <trkpt lat="43.65021" lon="6.79138">
        <ele>464</ele>
        <time>2023-03-07T09:12:50+01:00</time>
      </trkpt>
      <trkpt lat="43.65025" lon="6.7914">
        <ele>465</ele>
        <time>2023-03-07T09:12:59+01:00</time>
      </trkpt>
      <trkpt lat="43.65039" lon="6.79145">
        <ele>467</ele>
        <time>2023-03-07T09:13:09+01:00</time>
      </trkpt>
      <trkpt lat="43.65069" lon="6.79143">
        <ele>468</ele>
        <time>2023-03-07T09:13:18+01:00</time>
      </trkpt>
      <trkpt lat="43.65106" lon="6.79138">
        <ele>468</ele>
        <time>2023-03-07T09:13:27+01:00</time>
      </trkpt>
      <trkpt lat="43.65138" lon="6.79141">
        <ele>469</ele>
        <time>2023-03-07T09:13:37+01:00</time>
      </trkpt>
      <trkpt lat="43.6517" lon="6.79133">
        <ele>465</ele>
        <time>2023-03-07T09:13:46+01:00</time>
      </trkpt>
      <trkpt lat="43.65205" lon="6.79131">
        <ele>461</ele>
        <time>2023-03-07T09:13:55+01:00</time>
      </trkpt>
      <trkpt lat="43.65236" lon="6.79132">
        <ele>460</ele>
        <time>2023-03-07T09:14:05+01:00</time>
      </trkpt>
      <trkpt lat="43.65265" lon="6.79135">
        <ele>460</ele>
        <time>2023-03-07T09:14:14+01:00</time>
      </trkpt>
      <trkpt lat="43.65295" lon="6.79142">
        <ele>460</ele>
        <time>2023-03-07T09:14:24+01:00</time>
      </trkpt>
      <trkpt lat="43.65318" lon="6.79149">
        <ele>461</ele>
        <time>2023-03-07T09:14:33+01:00</time>
      </trkpt>
      <trkpt lat="43.6535" lon="6.79156">
        <ele>462</ele>
        <time>2023-03-07T09:14:43+01:00</time>
      </trkpt>
      <trkpt lat="43.65379" lon="6.79162">
        <ele>461</ele>
        <time>2023-03-07T09:14:52+01:00</time>
      </trkpt>
      <trkpt lat="43.65411" lon="6.79163">
        <ele>461</ele>
        <time>2023-03-07T09:15:02+01:00</time>
      </trkpt>
      <trkpt lat="43.65439" lon="6.7916">
        <ele>461</ele>
        <time>2023-03-07T09:15:11+01:00</time>
      </trkpt>
      <trkpt lat="43.65467" lon="6.79151">
        <ele>460</ele>
        <time>2023-03-07T09:15:21+01:00</time>
      </trkpt>
      <trkpt lat="43.65494" lon="6.79147">
        <ele>461</ele>
        <time>2023-03-07T09:15:30+01:00</time>
      </trkpt>
      <trkpt lat="43.65524" lon="6.79161">
        <ele>461</ele>
        <time>2023-03-07T09:15:39+01:00</time>
      </trkpt>
      <trkpt lat="43.65552" lon="6.79161">
        <ele>463</ele>
        <time>2023-03-07T09:15:49+01:00</time>
      </trkpt>
      <trkpt lat="43.65574" lon="6.79128">
        <ele>463</ele>
        <time>2023-03-07T09:15:58+01:00</time>
      </trkpt>
      <trkpt lat="43.65592" lon="6.79096">
        <ele>463</ele>
        <time>2023-03-07T09:16:08+01:00</time>
      </trkpt>
      <trkpt lat="43.65614" lon="6.79066">
        <ele>462</ele>
        <time>2023-03-07T09:16:17+01:00</time>
      </trkpt>
      <trkpt lat="43.65633" lon="6.79034">
        <ele>459</ele>
        <time>2023-03-07T09:16:26+01:00</time>
      </trkpt>
      <trkpt lat="43.65655" lon="6.79007">
        <ele>456</ele>
        <time>2023-03-07T09:16:36+01:00</time>
      </trkpt>
      <trkpt lat="43.65681" lon="6.78986">
        <ele>454</ele>
        <time>2023-03-07T09:16:45+01:00</time>
      </trkpt>
      <trkpt lat="43.65704" lon="6.78958">
        <ele>451</ele>
        <time>2023-03-07T09:16:54+01:00</time>
      </trkpt>
      <trkpt lat="43.65726" lon="6.78927">
        <ele>449</ele>
        <time>2023-03-07T09:17:04+01:00</time>
      </trkpt>
      <trkpt lat="43.65738" lon="6.78887">
        <ele>448</ele>
        <time>2023-03-07T09:17:13+01:00</time>
      </trkpt>
      <trkpt lat="43.65742" lon="6.78844">
        <ele>445</ele>
        <time>2023-03-07T09:17:23+01:00</time>
      </trkpt>
      <trkpt lat="43.65752" lon="6.78802">
        <ele>442</ele>
        <time>2023-03-07T09:17:32+01:00</time>
      </trkpt>
      <trkpt lat="43.65772" lon="6.78768">
        <ele>441</ele>
        <time>2023-03-07T09:17:41+01:00</time>
      </trkpt>
      <trkpt lat="43.65797" lon="6.78737">
        <ele>441</ele>
        <time>2023-03-07T09:17:51+01:00</time>
      </trkpt>
      <trkpt lat="43.65819" lon="6.78705">
        <ele>438</ele>
        <time>2023-03-07T09:18:00+01:00</time>
      </trkpt>
      <trkpt lat="43.65845" lon="6.78682">
        <ele>438</ele>
        <time>2023-03-07T09:18:09+01:00</time>
      </trkpt>
      <trkpt lat="43.65871" lon="6.78655">
        <ele>437</ele>
        <time>2023-03-07T09:18:19+01:00</time>
      </trkpt>
      <trkpt lat="43.65895" lon="6.78635">
        <ele>438</ele>
        <time>2023-03-07T09:18:28+01:00</time>
      </trkpt>
      <trkpt lat="43.6592" lon="6.78616">
        <ele>439</ele>
        <time>2023-03-07T09:18:37+01:00</time>
      </trkpt>
      <trkpt lat="43.65946" lon="6.78599">
        <ele>439</ele>
        <time>2023-03-07T09:18:47+01:00</time>
      </trkpt>
      <trkpt lat="43.65963" lon="6.78563">
        <ele>437</ele>
        <time>2023-03-07T09:18:56+01:00</time>
      </trkpt>
      <trkpt lat="43.65985" lon="6.78545">
        <ele>438</ele>
        <time>2023-03-07T09:19:05+01:00</time>
      </trkpt>
      <trkpt lat="43.6601" lon="6.78529">
        <ele>441</ele>
        <time>2023-03-07T09:19:15+01:00</time>
      </trkpt>
      <trkpt lat="43.66036" lon="6.78517">
        <ele>442</ele>
        <time>2023-03-07T09:19:24+01:00</time>
      </trkpt>
      <trkpt lat="43.66059" lon="6.78496">
        <ele>443</ele>
        <time>2023-03-07T09:19:33+01:00</time>
      </trkpt>
      <trkpt lat="43.66083" lon="6.78478">
        <ele>442</ele>
        <time>2023-03-07T09:19:43+01:00</time>
      </trkpt>
      <trkpt lat="43.66102" lon="6.78446">
        <ele>441</ele>
        <time>2023-03-07T09:19:52+01:00</time>
      </trkpt>
      <trkpt lat="43.66112" lon="6.78401">
        <ele>442</ele>
        <time>2023-03-07T09:20:01+01:00</time>
      </trkpt>
      <trkpt lat="43.66121" lon="6.78361">
        <ele>441</ele>
        <time>2023-03-07T09:20:11+01:00</time>
      </trkpt>
      <trkpt lat="43.66135" lon="6.78329">
        <ele>441</ele>
        <time>2023-03-07T09:20:20+01:00</time>
      </trkpt>
      <trkpt lat="43.66154" lon="6.78305">
        <ele>442</ele>
        <time>2023-03-07T09:20:29+01:00</time>
      </trkpt>
      <trkpt lat="43.66173" lon="6.78277">
        <ele>442</ele>
        <time>2023-03-07T09:20:38+01:00</time>
      </trkpt>
      <trkpt lat="43.66193" lon="6.78248">
        <ele>442</ele>
        <time>2023-03-07T09:20:48+01:00</time>
      </trkpt>
      <trkpt lat="43.66211" lon="6.78222">
        <ele>443</ele>
        <time>2023-03-07T09:20:57+01:00</time>
      </trkpt>
      <trkpt lat="43.66227" lon="6.78183">
        <ele>442</ele>
        <time>2023-03-07T09:21:07+01:00</time>
      </trkpt>
      <trkpt lat="43.66241" lon="6.78148">
        <ele>441</ele>
        <time>2023-03-07T09:21:16+01:00</time>
      </trkpt>
      <trkpt lat="43.66263" lon="6.78116">
        <ele>442</ele>
        <time>2023-03-07T09:21:25+01:00</time>
      </trkpt>
      <trkpt lat="43.66276" lon="6.7808">
        <ele>441</ele>
        <time>2023-03-07T09:21:34+01:00</time>
      </trkpt>
      <trkpt lat="43.66288" lon="6.7804">
        <ele>439</ele>
        <time>2023-03-07T09:21:43+01:00</time>
      </trkpt>
      <trkpt lat="43.66302" lon="6.78001">
        <ele>439</ele>
        <time>2023-03-07T09:21:53+01:00</time>
      </trkpt>
      <trkpt lat="43.66318" lon="6.77971">
        <ele>439</ele>
        <time>2023-03-07T09:22:02+01:00</time>
      </trkpt>
      <trkpt lat="43.66332" lon="6.77942">
        <ele>441</ele>
        <time>2023-03-07T09:22:11+01:00</time>
      </trkpt>
      <trkpt lat="43.66346" lon="6.77907">
        <ele>441</ele>
        <time>2023-03-07T09:22:21+01:00</time>
      </trkpt>
      <trkpt lat="43.6636" lon="6.77875">
        <ele>443</ele>
        <time>2023-03-07T09:22:30+01:00</time>
      </trkpt>
      <trkpt lat="43.66374" lon="6.77846">
        <ele>444</ele>
        <time>2023-03-07T09:22:39+01:00</time>
      </trkpt>
      <trkpt lat="43.66388" lon="6.7782">
        <ele>445</ele>
        <time>2023-03-07T09:22:49+01:00</time>
      </trkpt>
      <trkpt lat="43.66402" lon="6.77795">
        <ele>447</ele>
        <time>2023-03-07T09:22:58+01:00</time>
      </trkpt>
      <trkpt lat="43.66416" lon="6.77768">
        <ele>449</ele>
        <time>2023-03-07T09:23:07+01:00</time>
      </trkpt>
      <trkpt lat="43.66431" lon="6.77741">
        <ele>451</ele>
        <time>2023-03-07T09:23:16+01:00</time>
      </trkpt>
      <trkpt lat="43.66446" lon="6.77713">
        <ele>453</ele>
        <time>2023-03-07T09:23:26+01:00</time>
      </trkpt>
      <trkpt lat="43.66459" lon="6.77685">
        <ele>456</ele>
        <time>2023-03-07T09:23:35+01:00</time>
      </trkpt>
      <trkpt lat="43.66471" lon="6.77658">
        <ele>458</ele>
        <time>2023-03-07T09:23:44+01:00</time>
      </trkpt>
      <trkpt lat="43.66483" lon="6.77626">
        <ele>459</ele>
        <time>2023-03-07T09:23:53+01:00</time>
      </trkpt>
      <trkpt lat="43.66493" lon="6.77592">
        <ele>459</ele>
        <time>2023-03-07T09:24:03+01:00</time>
      </trkpt>
      <trkpt lat="43.66505" lon="6.77557">
        <ele>459</ele>
        <time>2023-03-07T09:24:12+01:00</time>
      </trkpt>
      <trkpt lat="43.66518" lon="6.77522">
        <ele>458</ele>
        <time>2023-03-07T09:24:22+01:00</time>
      </trkpt>
      <trkpt lat="43.66535" lon="6.77492">
        <ele>457</ele>
        <time>2023-03-07T09:24:31+01:00</time>
      </trkpt>
      <trkpt lat="43.66554" lon="6.77459">
        <ele>455</ele>
        <time>2023-03-07T09:24:41+01:00</time>
      </trkpt>
      <trkpt lat="43.66564" lon="6.77418">
        <ele>454</ele>
        <time>2023-03-07T09:24:50+01:00</time>
      </trkpt>
      <trkpt lat="43.66569" lon="6.77379">
        <ele>452</ele>
        <time>2023-03-07T09:24:59+01:00</time>
      </trkpt>
      <trkpt lat="43.66576" lon="6.7734">
        <ele>451</ele>
        <time>2023-03-07T09:25:08+01:00</time>
      </trkpt>
      <trkpt lat="43.66584" lon="6.77301">
        <ele>451</ele>
        <time>2023-03-07T09:25:18+01:00</time>
      </trkpt>
      <trkpt lat="43.66595" lon="6.77264">
        <ele>451</ele>
        <time>2023-03-07T09:25:27+01:00</time>
      </trkpt>
      <trkpt lat="43.66609" lon="6.77227">
        <ele>452</ele>
        <time>2023-03-07T09:25:37+01:00</time>
      </trkpt>
      <trkpt lat="43.66623" lon="6.77193">
        <ele>452</ele>
        <time>2023-03-07T09:25:46+01:00</time>
      </trkpt>
      <trkpt lat="43.66629" lon="6.77154">
        <ele>451</ele>
        <time>2023-03-07T09:25:55+01:00</time>
      </trkpt>
      <trkpt lat="43.66634" lon="6.77114">
        <ele>450</ele>
        <time>2023-03-07T09:26:04+01:00</time>
      </trkpt>
      <trkpt lat="43.66636" lon="6.77075">
        <ele>450</ele>
        <time>2023-03-07T09:26:13+01:00</time>
      </trkpt>
      <trkpt lat="43.66639" lon="6.77034">
        <ele>449</ele>
        <time>2023-03-07T09:26:22+01:00</time>
      </trkpt>
      <trkpt lat="43.66643" lon="6.7699">
        <ele>449</ele>
        <time>2023-03-07T09:26:32+01:00</time>
      </trkpt>
      <trkpt lat="43.66648" lon="6.76952">
        <ele>450</ele>
        <time>2023-03-07T09:26:41+01:00</time>
      </trkpt>
      <trkpt lat="43.66646" lon="6.76912">
        <ele>449</ele>
        <time>2023-03-07T09:26:50+01:00</time>
      </trkpt>
      <trkpt lat="43.66645" lon="6.76872">
        <ele>449</ele>
        <time>2023-03-07T09:27:00+01:00</time>
      </trkpt>
      <trkpt lat="43.66643" lon="6.7683">
        <ele>449</ele>
        <time>2023-03-07T09:27:09+01:00</time>
      </trkpt>
      <trkpt lat="43.66642" lon="6.7679">
        <ele>450</ele>
        <time>2023-03-07T09:27:18+01:00</time>
      </trkpt>
      <trkpt lat="43.66639" lon="6.76748">
        <ele>450</ele>
        <time>2023-03-07T09:27:27+01:00</time>
      </trkpt>
      <trkpt lat="43.66637" lon="6.76706">
        <ele>450</ele>
        <time>2023-03-07T09:27:37+01:00</time>
      </trkpt>
      <trkpt lat="43.66635" lon="6.76664">
        <ele>449</ele>
        <time>2023-03-07T09:27:46+01:00</time>
      </trkpt>
      <trkpt lat="43.66634" lon="6.76621">
        <ele>447</ele>
        <time>2023-03-07T09:27:56+01:00</time>
      </trkpt>
      <trkpt lat="43.66629" lon="6.76581">
        <ele>445</ele>
        <time>2023-03-07T09:28:05+01:00</time>
      </trkpt>
      <trkpt lat="43.66597" lon="6.76539">
        <ele>442</ele>
        <time>2023-03-07T09:28:14+01:00</time>
      </trkpt>
      <trkpt lat="43.66606" lon="6.76506">
        <ele>440</ele>
        <time>2023-03-07T09:28:24+01:00</time>
      </trkpt>
      <trkpt lat="43.66628" lon="6.76489">
        <ele>436</ele>
        <time>2023-03-07T09:28:33+01:00</time>
      </trkpt>
      <trkpt lat="43.66657" lon="6.7648">
        <ele>433</ele>
        <time>2023-03-07T09:28:43+01:00</time>
      </trkpt>
      <trkpt lat="43.66691" lon="6.76468">
        <ele>427</ele>
        <time>2023-03-07T09:28:52+01:00</time>
      </trkpt>
      <trkpt lat="43.66714" lon="6.76475">
        <ele>422</ele>
        <time>2023-03-07T09:29:01+01:00</time>
      </trkpt>
      <trkpt lat="43.66727" lon="6.76514">
        <ele>420</ele>
        <time>2023-03-07T09:29:11+01:00</time>
      </trkpt>
      <trkpt lat="43.6674" lon="6.76501">
        <ele>416</ele>
        <time>2023-03-07T09:29:20+01:00</time>
      </trkpt>
      <trkpt lat="43.66762" lon="6.76458">
        <ele>407</ele>
        <time>2023-03-07T09:29:29+01:00</time>
      </trkpt>
      <trkpt lat="43.66791" lon="6.76441">
        <ele>402</ele>
        <time>2023-03-07T09:29:39+01:00</time>
      </trkpt>
      <trkpt lat="43.66819" lon="6.76451">
        <ele>403</ele>
        <time>2023-03-07T09:29:48+01:00</time>
      </trkpt>
      <trkpt lat="43.66846" lon="6.76453">
        <ele>400</ele>
        <time>2023-03-07T09:29:57+01:00</time>
      </trkpt>
      <trkpt lat="43.66839" lon="6.76434">
        <ele>394</ele>
        <time>2023-03-07T09:30:06+01:00</time>
      </trkpt>
      <trkpt lat="43.66856" lon="6.76439">
        <ele>393</ele>
        <time>2023-03-07T09:30:15+01:00</time>
      </trkpt>
      <trkpt lat="43.66889" lon="6.76451">
        <ele>389</ele>
        <time>2023-03-07T09:30:25+01:00</time>
      </trkpt>
      <trkpt lat="43.66916" lon="6.76448">
        <ele>384</ele>
        <time>2023-03-07T09:30:34+01:00</time>
      </trkpt>
      <trkpt lat="43.66946" lon="6.76422">
        <ele>377</ele>
        <time>2023-03-07T09:30:43+01:00</time>
      </trkpt>
      <trkpt lat="43.66973" lon="6.76407">
        <ele>374</ele>
        <time>2023-03-07T09:30:52+01:00</time>
      </trkpt>
      <trkpt lat="43.6699" lon="6.76376">
        <ele>367</ele>
        <time>2023-03-07T09:31:02+01:00</time>
      </trkpt>
      <trkpt lat="43.66994" lon="6.76362">
        <ele>364</ele>
      </trkpt>
      <trkpt lat="43.67015" lon="6.76352">
        <ele>366</ele>
        <time>2023-03-07T09:31:11+01:00</time>
      </trkpt>
      <trkpt lat="43.67047" lon="6.7634">
        <ele>367</ele>
        <time>2023-03-07T09:31:20+01:00</time>
      </trkpt>
      <trkpt lat="43.67077" lon="6.76328">
        <ele>366</ele>
        <time>2023-03-07T09:31:30+01:00</time>
      </trkpt>
      <trkpt lat="43.67101" lon="6.76313">
        <ele>365</ele>
        <time>2023-03-07T09:31:39+01:00</time>
      </trkpt>
      <trkpt lat="43.67123" lon="6.76282">
        <ele>362</ele>
        <time>2023-03-07T09:31:48+01:00</time>
      </trkpt>
      <trkpt lat="43.67147" lon="6.76263">
        <ele>363</ele>
        <time>2023-03-07T09:31:58+01:00</time>
      </trkpt>
      <trkpt lat="43.67167" lon="6.76251">
        <ele>367</ele>
        <time>2023-03-07T09:32:07+01:00</time>
      </trkpt>
      <trkpt lat="43.67177" lon="6.76215">
        <ele>361</ele>
        <time>2023-03-07T09:32:16+01:00</time>
      </trkpt>
      <trkpt lat="43.67179" lon="6.76186">
        <ele>357</ele>
        <time>2023-03-07T09:32:26+01:00</time>
      </trkpt>
      <trkpt lat="43.67205" lon="6.76157">
        <ele>354</ele>
        <time>2023-03-07T09:32:35+01:00</time>
      </trkpt>
      <trkpt lat="43.67236" lon="6.76163">
        <ele>357</ele>
        <time>2023-03-07T09:32:44+01:00</time>
      </trkpt>
      <trkpt lat="43.67261" lon="6.76168">
        <ele>355</ele>
        <time>2023-03-07T09:32:53+01:00</time>
      </trkpt>
      <trkpt lat="43.67292" lon="6.76182">
        <ele>349</ele>
        <time>2023-03-07T09:33:03+01:00</time>
      </trkpt>
      <trkpt lat="43.6729" lon="6.76169">
        <ele>347</ele>
        <time>2023-03-07T09:33:12+01:00</time>
      </trkpt>
      <trkpt lat="43.67258" lon="6.76148">
        <ele>345</ele>
        <time>2023-03-07T09:33:21+01:00</time>
      </trkpt>
      <trkpt lat="43.67251" lon="6.76125">
        <ele>330</ele>
        <time>2023-03-07T09:33:31+01:00</time>
      </trkpt>
      <trkpt lat="43.67276" lon="6.76119">
        <ele>322</ele>
        <time>2023-03-07T09:33:40+01:00</time>
      </trkpt>
      <trkpt lat="43.67319" lon="6.76126">
        <ele>325</ele>
        <time>2023-03-07T09:33:49+01:00</time>
      </trkpt>
      <trkpt lat="43.67339" lon="6.76129">
        <ele>321</ele>
        <time>2023-03-07T09:33:58+01:00</time>
      </trkpt>
      <trkpt lat="43.67354" lon="6.76176">
        <ele>316</ele>
        <time>2023-03-07T09:34:08+01:00</time>
      </trkpt>
      <trkpt lat="43.67363" lon="6.76205">
        <ele>316</ele>
        <time>2023-03-07T09:34:17+01:00</time>
      </trkpt>
      <trkpt lat="43.67367" lon="6.76175">
        <ele>309</ele>
        <time>2023-03-07T09:34:26+01:00</time>
      </trkpt>
      <trkpt lat="43.6737" lon="6.7613">
        <ele>304</ele>
        <time>2023-03-07T09:34:36+01:00</time>
      </trkpt>
      <trkpt lat="43.67363" lon="6.76109">
        <ele>305</ele>
        <time>2023-03-07T09:34:45+01:00</time>
      </trkpt>
      <trkpt lat="43.67358" lon="6.7611">
        <ele>308</ele>
        <time>2023-03-07T09:34:55+01:00</time>
      </trkpt>
      <trkpt lat="43.67359" lon="6.76109">
        <ele>307</ele>
        <time>2023-03-07T09:35:05+01:00</time>
      </trkpt>
      <trkpt lat="43.67354" lon="6.76106">
        <ele>308</ele>
        <time>2023-03-07T09:35:15+01:00</time>
      </trkpt>
      <trkpt lat="43.67362" lon="6.761">
        <ele>302</ele>
        <time>2023-03-07T09:35:25+01:00</time>
      </trkpt>
      <trkpt lat="43.67357" lon="6.76097">
        <ele>302</ele>
        <time>2023-03-07T09:35:35+01:00</time>
      </trkpt>
      <trkpt lat="43.67364" lon="6.76091">
        <ele>298</ele>
        <time>2023-03-07T09:35:44+01:00</time>
      </trkpt>
      <trkpt lat="43.67354" lon="6.76088">
        <ele>299</ele>
        <time>2023-03-07T09:35:53+01:00</time>
      </trkpt>
      <trkpt lat="43.67365" lon="6.76072">
        <ele>290</ele>
        <time>2023-03-07T09:36:02+01:00</time>
      </trkpt>
      <trkpt lat="43.67367" lon="6.76049">
        <ele>280</ele>
      </trkpt>
      <trkpt lat="43.67387" lon="6.76034">
        <ele>278</ele>
        <time>2023-03-07T09:36:12+01:00</time>
      </trkpt>
      <trkpt lat="43.67401" lon="6.76058">
        <ele>275</ele>
        <time>2023-03-07T09:36:21+01:00</time>
      </trkpt>
      <trkpt lat="43.67408" lon="6.76081">
        <ele>272</ele>
        <time>2023-03-07T09:36:30+01:00</time>
      </trkpt>
      <trkpt lat="43.67419" lon="6.76103">
        <ele>268</ele>
        <time>2023-03-07T09:36:39+01:00</time>
      </trkpt>
      <trkpt lat="43.67445" lon="6.76102">
        <ele>253</ele>
        <time>2023-03-07T09:36:49+01:00</time>
      </trkpt>
      <trkpt lat="43.67449" lon="6.7609">
        <ele>257</ele>
        <time>2023-03-07T09:36:59+01:00</time>
      </trkpt>
      <trkpt lat="43.67457" lon="6.76092">
        <ele>263</ele>
        <time>2023-03-07T09:37:09+01:00</time>
      </trkpt>
      <trkpt lat="43.67454" lon="6.76073">
        <ele>263</ele>
        <time>2023-03-07T09:37:18+01:00</time>
      </trkpt>
      <trkpt lat="43.6745" lon="6.76057">
        <ele>262</ele>
        <time>2023-03-07T09:37:28+01:00</time>
      </trkpt>
      <trkpt lat="43.6745" lon="6.76049">
        <ele>263</ele>
        <time>2023-03-07T09:37:37+01:00</time>
      </trkpt>
      <trkpt lat="43.67461" lon="6.7606">
        <ele>270</ele>
        <time>2023-03-07T09:37:47+01:00</time>
      </trkpt>
      <trkpt lat="43.67452" lon="6.76027">
        <ele>269</ele>
        <time>2023-03-07T09:37:57+01:00</time>
      </trkpt>
      <trkpt lat="43.67472" lon="6.7606">
        <ele>279</ele>
        <time>2023-03-07T09:38:06+01:00</time>
      </trkpt>
      <trkpt lat="43.67481" lon="6.76064">
        <ele>285</ele>
        <time>2023-03-07T09:38:16+01:00</time>
      </trkpt>
      <trkpt lat="43.67477" lon="6.7605">
        <ele>285</ele>
        <time>2023-03-07T09:38:25+01:00</time>
      </trkpt>
      <trkpt lat="43.67473" lon="6.76027">
        <ele>289</ele>
        <time>2023-03-07T09:38:35+01:00</time>
      </trkpt>
      <trkpt lat="43.67459" lon="6.76003">
        <ele>282</ele>
        <time>2023-03-07T09:38:44+01:00</time>
      </trkpt>
      <trkpt lat="43.67454" lon="6.75979">
        <ele>285</ele>
        <time>2023-03-07T09:38:54+01:00</time>
      </trkpt>
      <trkpt lat="43.67448" lon="6.75954">
        <ele>286</ele>
        <time>2023-03-07T09:39:03+01:00</time>
      </trkpt>
      <trkpt lat="43.67444" lon="6.75942">
        <ele>287</ele>
        <time>2023-03-07T09:39:13+01:00</time>
      </trkpt>
      <trkpt lat="43.67443" lon="6.7593">
        <ele>289</ele>
        <time>2023-03-07T09:39:23+01:00</time>
      </trkpt>
      <trkpt lat="43.67436" lon="6.75916">
        <ele>288</ele>
        <time>2023-03-07T09:39:33+01:00</time>
      </trkpt>
      <trkpt lat="43.6743" lon="6.75899">
        <ele>290</ele>
        <time>2023-03-07T09:39:43+01:00</time>
      </trkpt>
      <trkpt lat="43.67425" lon="6.75881">
        <ele>294</ele>
        <time>2023-03-07T09:39:53+01:00</time>
      </trkpt>
      <trkpt lat="43.67423" lon="6.75872">
        <ele>297</ele>
        <time>2023-03-07T09:40:02+01:00</time>
      </trkpt>
      <trkpt lat="43.67417" lon="6.75861">
        <ele>299</ele>
        <time>2023-03-07T09:40:11+01:00</time>
      </trkpt>
      <trkpt lat="43.674" lon="6.75851">
        <ele>303</ele>
        <time>2023-03-07T09:40:21+01:00</time>
      </trkpt>
      <trkpt lat="43.67404" lon="6.75847">
        <ele>307</ele>
        <time>2023-03-07T09:40:31+01:00</time>
      </trkpt>
      <trkpt lat="43.67417" lon="6.7585">
        <ele>307</ele>
        <time>2023-03-07T09:40:40+01:00</time>
      </trkpt>
      <trkpt lat="43.67428" lon="6.75851">
        <ele>310</ele>
        <time>2023-03-07T09:40:50+01:00</time>
      </trkpt>
      <trkpt lat="43.6744" lon="6.75849">
        <ele>316</ele>
        <time>2023-03-07T09:40:59+01:00</time>
      </trkpt>
      <trkpt lat="43.67452" lon="6.75872">
        <ele>313</ele>
        <time>2023-03-07T09:41:09+01:00</time>
      </trkpt>
      <trkpt lat="43.67461" lon="6.75887">
        <ele>314</ele>
        <time>2023-03-07T09:41:18+01:00</time>
      </trkpt>
      <trkpt lat="43.67467" lon="6.75899">
        <ele>316</ele>
        <time>2023-03-07T09:41:28+01:00</time>
      </trkpt>
      <trkpt lat="43.67477" lon="6.75914">
        <ele>321</ele>
        <time>2023-03-07T09:41:37+01:00</time>
      </trkpt>
      <trkpt lat="43.67482" lon="6.75934">
        <ele>322</ele>
        <time>2023-03-07T09:41:47+01:00</time>
      </trkpt>
      <trkpt lat="43.67488" lon="6.75951">
        <ele>323</ele>
        <time>2023-03-07T09:41:56+01:00</time>
      </trkpt>
      <trkpt lat="43.67495" lon="6.75959">
        <ele>327</ele>
        <time>2023-03-07T09:42:06+01:00</time>
      </trkpt>
      <trkpt lat="43.67499" lon="6.7596">
        <ele>330</ele>
        <time>2023-03-07T09:42:16+01:00</time>
      </trkpt>
      <trkpt lat="43.67498" lon="6.7594">
        <ele>332</ele>
        <time>2023-03-07T09:42:26+01:00</time>
      </trkpt>
      <trkpt lat="43.67502" lon="6.75938">
        <ele>335</ele>
        <time>2023-03-07T09:42:36+01:00</time>
      </trkpt>
      <trkpt lat="43.6751" lon="6.75954">
        <ele>336</ele>
        <time>2023-03-07T09:42:46+01:00</time>
      </trkpt>
      <trkpt lat="43.67518" lon="6.75967">
        <ele>337</ele>
        <time>2023-03-07T09:42:56+01:00</time>
      </trkpt>
      <trkpt lat="43.67521" lon="6.75956">
        <ele>341</ele>
        <time>2023-03-07T09:43:06+01:00</time>
      </trkpt>
      <trkpt lat="43.67518" lon="6.75945">
        <ele>342</ele>
        <time>2023-03-07T09:43:15+01:00</time>
      </trkpt>
      <trkpt lat="43.67522" lon="6.75935">
        <ele>346</ele>
        <time>2023-03-07T09:43:24+01:00</time>
      </trkpt>
      <trkpt lat="43.67527" lon="6.75931">
        <ele>349</ele>
        <time>2023-03-07T09:43:33+01:00</time>
      </trkpt>
      <trkpt lat="43.67536" lon="6.7594">
        <ele>350</ele>
        <time>2023-03-07T09:44:02+01:00</time>
      </trkpt>
      <trkpt lat="43.67543" lon="6.75945">
        <ele>350</ele>
        <time>2023-03-07T09:44:12+01:00</time>
      </trkpt>
      <trkpt lat="43.67553" lon="6.75941">
        <ele>353</ele>
        <time>2023-03-07T09:44:21+01:00</time>
      </trkpt>
      <trkpt lat="43.67545" lon="6.75932">
        <ele>354</ele>
        <time>2023-03-07T09:44:31+01:00</time>
      </trkpt>
      <trkpt lat="43.6754" lon="6.75924">
        <ele>355</ele>
        <time>2023-03-07T09:44:41+01:00</time>
      </trkpt>
      <trkpt lat="43.67537" lon="6.75909">
        <ele>358</ele>
        <time>2023-03-07T09:44:50+01:00</time>
      </trkpt>
      <trkpt lat="43.67532" lon="6.75882">
        <ele>363</ele>
        <time>2023-03-07T09:45:00+01:00</time>
      </trkpt>
      <trkpt lat="43.67541" lon="6.75888">
        <ele>366</ele>
      </trkpt>
      <trkpt lat="43.67556" lon="6.7591">
        <ele>366</ele>
        <time>2023-03-07T09:45:09+01:00</time>
      </trkpt>
      <trkpt lat="43.67555" lon="6.75893">
        <ele>372</ele>
        <time>2023-03-07T09:45:19+01:00</time>
      </trkpt>
      <trkpt lat="43.6755" lon="6.75876">
        <ele>375</ele>
        <time>2023-03-07T09:45:29+01:00</time>
      </trkpt>
      <trkpt lat="43.67548" lon="6.75864">
        <ele>377</ele>
        <time>2023-03-07T09:45:38+01:00</time>
      </trkpt>
      <trkpt lat="43.67568" lon="6.75881">
        <ele>380</ele>
        <time>2023-03-07T09:45:48+01:00</time>
      </trkpt>
      <trkpt lat="43.67583" lon="6.75887">
        <ele>381</ele>
        <time>2023-03-07T09:45:58+01:00</time>
      </trkpt>
      <trkpt lat="43.67599" lon="6.75887">
        <ele>383</ele>
        <time>2023-03-07T09:46:08+01:00</time>
      </trkpt>
      <trkpt lat="43.67615" lon="6.75886">
        <ele>385</ele>
        <time>2023-03-07T09:46:18+01:00</time>
      </trkpt>
      <trkpt lat="43.67636" lon="6.75889">
        <ele>385</ele>
        <time>2023-03-07T09:46:27+01:00</time>
      </trkpt>
      <trkpt lat="43.67657" lon="6.75887">
        <ele>388</ele>
        <time>2023-03-07T09:46:37+01:00</time>
      </trkpt>
      <trkpt lat="43.67679" lon="6.75891">
        <ele>389</ele>
        <time>2023-03-07T09:46:46+01:00</time>
      </trkpt>
      <trkpt lat="43.67698" lon="6.759">
        <ele>389</ele>
        <time>2023-03-07T09:46:55+01:00</time>
      </trkpt>
      <trkpt lat="43.67712" lon="6.75903">
        <ele>391</ele>
        <time>2023-03-07T09:47:05+01:00</time>
      </trkpt>
      <trkpt lat="43.67724" lon="6.75904">
        <ele>394</ele>
        <time>2023-03-07T09:47:15+01:00</time>
      </trkpt>
      <trkpt lat="43.67737" lon="6.75908">
        <ele>394</ele>
        <time>2023-03-07T09:47:25+01:00</time>
      </trkpt>
      <trkpt lat="43.67743" lon="6.75899">
        <ele>399</ele>
        <time>2023-03-07T09:47:35+01:00</time>
      </trkpt>
      <trkpt lat="43.67747" lon="6.75894">
        <ele>402</ele>
        <time>2023-03-07T09:47:45+01:00</time>
      </trkpt>
      <trkpt lat="43.67763" lon="6.75898">
        <ele>403</ele>
        <time>2023-03-07T09:47:55+01:00</time>
      </trkpt>
      <trkpt lat="43.67776" lon="6.75893">
        <ele>408</ele>
        <time>2023-03-07T09:48:04+01:00</time>
      </trkpt>
      <trkpt lat="43.67788" lon="6.75886">
        <ele>411</ele>
        <time>2023-03-07T09:48:14+01:00</time>
      </trkpt>
      <trkpt lat="43.67799" lon="6.75881">
        <ele>412</ele>
        <time>2023-03-07T09:48:24+01:00</time>
      </trkpt>
      <trkpt lat="43.67811" lon="6.7587">
        <ele>416</ele>
        <time>2023-03-07T09:48:34+01:00</time>
      </trkpt>
      <trkpt lat="43.67824" lon="6.75857">
        <ele>420</ele>
        <time>2023-03-07T09:48:43+01:00</time>
      </trkpt>
      <trkpt lat="43.67802" lon="6.75853">
        <ele>423</ele>
        <time>2023-03-07T09:48:53+01:00</time>
      </trkpt>
      <trkpt lat="43.67789" lon="6.75849">
        <ele>425</ele>
        <time>2023-03-07T09:49:02+01:00</time>
      </trkpt>
      <trkpt lat="43.67776" lon="6.75843">
        <ele>427</ele>
        <time>2023-03-07T09:49:11+01:00</time>
      </trkpt>
      <trkpt lat="43.67764" lon="6.75837">
        <ele>429</ele>
        <time>2023-03-07T09:49:21+01:00</time>
      </trkpt>
      <trkpt lat="43.67757" lon="6.75833">
        <ele>430</ele>
        <time>2023-03-07T09:49:31+01:00</time>
      </trkpt>
      <trkpt lat="43.67773" lon="6.75828">
        <ele>433</ele>
        <time>2023-03-07T09:49:41+01:00</time>
      </trkpt>
      <trkpt lat="43.67786" lon="6.75822">
        <ele>435</ele>
        <time>2023-03-07T09:49:50+01:00</time>
      </trkpt>
      <trkpt lat="43.67805" lon="6.75817">
        <ele>435</ele>
        <time>2023-03-07T09:50:00+01:00</time>
      </trkpt>
      <trkpt lat="43.67827" lon="6.75814">
        <ele>437</ele>
        <time>2023-03-07T09:50:09+01:00</time>
      </trkpt>
      <trkpt lat="43.67847" lon="6.75809">
        <ele>439</ele>
        <time>2023-03-07T09:50:19+01:00</time>
      </trkpt>
      <trkpt lat="43.67868" lon="6.75806">
        <ele>440</ele>
        <time>2023-03-07T09:50:28+01:00</time>
      </trkpt>
      <trkpt lat="43.67878" lon="6.75788">
        <ele>446</ele>
        <time>2023-03-07T09:50:37+01:00</time>
      </trkpt>
      <trkpt lat="43.67886" lon="6.75765">
        <ele>452</ele>
        <time>2023-03-07T09:50:46+01:00</time>
      </trkpt>
      <trkpt lat="43.67906" lon="6.75743">
        <ele>454</ele>
        <time>2023-03-07T09:50:56+01:00</time>
      </trkpt>
      <trkpt lat="43.67908" lon="6.75727">
        <ele>457</ele>
        <time>2023-03-07T09:51:05+01:00</time>
      </trkpt>
      <trkpt lat="43.67919" lon="6.75699">
        <ele>460</ele>
        <time>2023-03-07T09:51:15+01:00</time>
      </trkpt>
      <trkpt lat="43.67926" lon="6.75671">
        <ele>460</ele>
        <time>2023-03-07T09:51:25+01:00</time>
      </trkpt>
      <trkpt lat="43.67931" lon="6.75651">
        <ele>461</ele>
        <time>2023-03-07T09:51:34+01:00</time>
      </trkpt>
      <trkpt lat="43.67939" lon="6.75636">
        <ele>460</ele>
        <time>2023-03-07T09:51:44+01:00</time>
      </trkpt>
      <trkpt lat="43.67937" lon="6.75605">
        <ele>462</ele>
        <time>2023-03-07T09:51:53+01:00</time>
      </trkpt>
      <trkpt lat="43.67941" lon="6.7558">
        <ele>462</ele>
        <time>2023-03-07T09:52:03+01:00</time>
      </trkpt>
      <trkpt lat="43.67938" lon="6.75546">
        <ele>464</ele>
        <time>2023-03-07T09:52:12+01:00</time>
      </trkpt>
      <trkpt lat="43.67942" lon="6.75515">
        <ele>464</ele>
        <time>2023-03-07T09:52:21+01:00</time>
      </trkpt>
      <trkpt lat="43.67946" lon="6.75483">
        <ele>464</ele>
        <time>2023-03-07T09:52:31+01:00</time>
      </trkpt>
      <trkpt lat="43.67949" lon="6.75449">
        <ele>465</ele>
        <time>2023-03-07T09:52:40+01:00</time>
      </trkpt>
      <trkpt lat="43.6795" lon="6.75411">
        <ele>465</ele>
        <time>2023-03-07T09:52:49+01:00</time>
      </trkpt>
      <trkpt lat="43.67956" lon="6.75384">
        <ele>466</ele>
        <time>2023-03-07T09:52:58+01:00</time>
      </trkpt>
      <trkpt lat="43.67966" lon="6.75361">
        <ele>467</ele>
        <time>2023-03-07T09:53:08+01:00</time>
      </trkpt>
      <trkpt lat="43.67978" lon="6.75338">
        <ele>467</ele>
        <time>2023-03-07T09:53:17+01:00</time>
      </trkpt>
      <trkpt lat="43.67985" lon="6.75309">
        <ele>469</ele>
        <time>2023-03-07T09:53:26+01:00</time>
      </trkpt>
      <trkpt lat="43.67992" lon="6.75288">
        <ele>470</ele>
        <time>2023-03-07T09:53:36+01:00</time>
      </trkpt>
      <trkpt lat="43.67989" lon="6.7524">
        <ele>473</ele>
        <time>2023-03-07T09:53:45+01:00</time>
      </trkpt>
      <trkpt lat="43.67986" lon="6.75199">
        <ele>472</ele>
        <time>2023-03-07T09:53:54+01:00</time>
      </trkpt>
      <trkpt lat="43.67979" lon="6.7517">
        <ele>472</ele>
        <time>2023-03-07T09:54:04+01:00</time>
      </trkpt>
      <trkpt lat="43.67964" lon="6.75133">
        <ele>473</ele>
        <time>2023-03-07T09:54:13+01:00</time>
      </trkpt>
      <trkpt lat="43.67957" lon="6.75097">
        <ele>471</ele>
        <time>2023-03-07T09:54:22+01:00</time>
      </trkpt>
      <trkpt lat="43.67953" lon="6.7506">
        <ele>470</ele>
        <time>2023-03-07T09:54:31+01:00</time>
      </trkpt>
      <trkpt lat="43.67951" lon="6.75022">
        <ele>470</ele>
        <time>2023-03-07T09:54:41+01:00</time>
      </trkpt>
      <trkpt lat="43.67961" lon="6.74999">
        <ele>471</ele>
        <time>2023-03-07T09:54:50+01:00</time>
      </trkpt>
      <trkpt lat="43.67974" lon="6.7497">
        <ele>470</ele>
        <time>2023-03-07T09:54:59+01:00</time>
      </trkpt>
      <trkpt lat="43.67991" lon="6.74946">
        <ele>472</ele>
        <time>2023-03-07T09:55:09+01:00</time>
      </trkpt>
      <trkpt lat="43.67992" lon="6.7492">
        <ele>474</ele>
      </trkpt>
      <trkpt lat="43.67984" lon="6.74898">
        <ele>477</ele>
        <time>2023-03-07T09:55:18+01:00</time>
      </trkpt>
      <trkpt lat="43.67996" lon="6.74905">
        <ele>474</ele>
        <time>2023-03-07T09:55:27+01:00</time>
      </trkpt>
      <trkpt lat="43.68011" lon="6.74928">
        <ele>475</ele>
        <time>2023-03-07T09:55:36+01:00</time>
      </trkpt>
      <trkpt lat="43.68016" lon="6.74951">
        <ele>476</ele>
        <time>2023-03-07T09:55:45+01:00</time>
      </trkpt>
      <trkpt lat="43.68013" lon="6.74967">
        <ele>476</ele>
        <time>2023-03-07T09:55:54+01:00</time>
      </trkpt>
      <trkpt lat="43.68013" lon="6.74984">
        <ele>478</ele>
        <time>2023-03-07T09:56:04+01:00</time>
      </trkpt>
      <trkpt lat="43.68021" lon="6.74975">
        <ele>480</ele>
        <time>2023-03-07T09:56:13+01:00</time>
      </trkpt>
      <trkpt lat="43.68029" lon="6.74956">
        <ele>481</ele>
        <time>2023-03-07T09:56:22+01:00</time>
      </trkpt>
      <trkpt lat="43.68035" lon="6.74931">
        <ele>482</ele>
        <time>2023-03-07T09:56:31+01:00</time>
      </trkpt>
      <trkpt lat="43.68037" lon="6.74904">
        <ele>483</ele>
        <time>2023-03-07T09:56:41+01:00</time>
      </trkpt>
      <trkpt lat="43.68035" lon="6.74872">
        <ele>485</ele>
        <time>2023-03-07T09:56:50+01:00</time>
      </trkpt>
      <trkpt lat="43.68038" lon="6.74847">
        <ele>488</ele>
        <time>2023-03-07T09:56:59+01:00</time>
      </trkpt>
      <trkpt lat="43.68039" lon="6.74832">
        <ele>489</ele>
        <time>2023-03-07T09:57:09+01:00</time>
      </trkpt>
      <trkpt lat="43.68071" lon="6.74815">
        <ele>494</ele>
        <time>2023-03-07T09:57:18+01:00</time>
      </trkpt>
      <trkpt lat="43.68085" lon="6.74812">
        <ele>496</ele>
        <time>2023-03-07T09:57:27+01:00</time>
      </trkpt>
      <trkpt lat="43.68107" lon="6.74812">
        <ele>499</ele>
        <time>2023-03-07T09:57:36+01:00</time>
      </trkpt>
      <trkpt lat="43.68124" lon="6.74794">
        <ele>500</ele>
        <time>2023-03-07T09:57:45+01:00</time>
      </trkpt>
      <trkpt lat="43.68135" lon="6.74756">
        <ele>500</ele>
        <time>2023-03-07T09:57:54+01:00</time>
      </trkpt>
      <trkpt lat="43.68145" lon="6.74725">
        <ele>500</ele>
        <time>2023-03-07T09:58:04+01:00</time>
      </trkpt>
      <trkpt lat="43.68142" lon="6.74706">
        <ele>501</ele>
        <time>2023-03-07T09:58:13+01:00</time>
      </trkpt>
      <trkpt lat="43.68137" lon="6.74688">
        <ele>503</ele>
        <time>2023-03-07T09:58:23+01:00</time>
      </trkpt>
      <trkpt lat="43.68142" lon="6.74672">
        <ele>506</ele>
        <time>2023-03-07T09:58:32+01:00</time>
      </trkpt>
      <trkpt lat="43.68154" lon="6.74656">
        <ele>508</ele>
        <time>2023-03-07T09:58:42+01:00</time>
      </trkpt>
      <trkpt lat="43.68169" lon="6.74646">
        <ele>508</ele>
        <time>2023-03-07T09:58:51+01:00</time>
      </trkpt>
      <trkpt lat="43.68197" lon="6.74643">
        <ele>508</ele>
        <time>2023-03-07T09:59:00+01:00</time>
      </trkpt>
      <trkpt lat="43.68223" lon="6.74654">
        <ele>507</ele>
        <time>2023-03-07T09:59:10+01:00</time>
      </trkpt>
      <trkpt lat="43.68241" lon="6.74684">
        <ele>505</ele>
        <time>2023-03-07T09:59:19+01:00</time>
      </trkpt>
      <trkpt lat="43.68256" lon="6.74715">
        <ele>504</ele>
        <time>2023-03-07T09:59:29+01:00</time>
      </trkpt>
      <trkpt lat="43.68276" lon="6.74731">
        <ele>505</ele>
        <time>2023-03-07T09:59:38+01:00</time>
      </trkpt>
      <trkpt lat="43.68293" lon="6.74729">
        <ele>507</ele>
        <time>2023-03-07T09:59:47+01:00</time>
      </trkpt>
      <trkpt lat="43.68304" lon="6.74717">
        <ele>510</ele>
        <time>2023-03-07T09:59:57+01:00</time>
      </trkpt>
      <trkpt lat="43.68316" lon="6.74708">
        <ele>512</ele>
        <time>2023-03-07T10:00:06+01:00</time>
      </trkpt>
      <trkpt lat="43.68326" lon="6.74694">
        <ele>515</ele>
        <time>2023-03-07T10:00:16+01:00</time>
      </trkpt>
      <trkpt lat="43.68334" lon="6.7468">
        <ele>517</ele>
        <time>2023-03-07T10:00:25+01:00</time>
      </trkpt>
      <trkpt lat="43.68339" lon="6.74665">
        <ele>520</ele>
        <time>2023-03-07T10:00:35+01:00</time>
      </trkpt>
      <trkpt lat="43.68343" lon="6.74655">
        <ele>523</ele>
        <time>2023-03-07T10:00:45+01:00</time>
      </trkpt>
      <trkpt lat="43.68349" lon="6.74643">
        <ele>527</ele>
        <time>2023-03-07T10:00:54+01:00</time>
      </trkpt>
      <trkpt lat="43.68353" lon="6.74634">
        <ele>530</ele>
        <time>2023-03-07T10:01:04+01:00</time>
      </trkpt>
      <trkpt lat="43.68358" lon="6.74623">
        <ele>532</ele>
        <time>2023-03-07T10:01:14+01:00</time>
      </trkpt>
      <trkpt lat="43.6836" lon="6.74612">
        <ele>535</ele>
        <time>2023-03-07T10:01:24+01:00</time>
      </trkpt>
      <trkpt lat="43.68365" lon="6.746">
        <ele>538</ele>
        <time>2023-03-07T10:01:34+01:00</time>
      </trkpt>
      <trkpt lat="43.68369" lon="6.74589">
        <ele>541</ele>
        <time>2023-03-07T10:01:43+01:00</time>
      </trkpt>
      <trkpt lat="43.68372" lon="6.74583">
        <ele>543</ele>
        <time>2023-03-07T10:01:53+01:00</time>
      </trkpt>
      <trkpt lat="43.68376" lon="6.74575">
        <ele>546</ele>
        <time>2023-03-07T10:02:02+01:00</time>
      </trkpt>
      <trkpt lat="43.68377" lon="6.74563">
        <ele>549</ele>
        <time>2023-03-07T10:02:12+01:00</time>
      </trkpt>
      <trkpt lat="43.68378" lon="6.74555">
        <ele>552</ele>
        <time>2023-03-07T10:02:22+01:00</time>
      </trkpt>
      <trkpt lat="43.68392" lon="6.74551">
        <ele>555</ele>
        <time>2023-03-07T10:02:32+01:00</time>
      </trkpt>
      <trkpt lat="43.68403" lon="6.74547">
        <ele>558</ele>
        <time>2023-03-07T10:02:41+01:00</time>
      </trkpt>
      <trkpt lat="43.68416" lon="6.74543">
        <ele>561</ele>
        <time>2023-03-07T10:02:51+01:00</time>
      </trkpt>
      <trkpt lat="43.6843" lon="6.74539">
        <ele>565</ele>
        <time>2023-03-07T10:03:01+01:00</time>
      </trkpt>
      <trkpt lat="43.68442" lon="6.74543">
        <ele>565</ele>
        <time>2023-03-07T10:03:10+01:00</time>
      </trkpt>
      <trkpt lat="43.6845" lon="6.74547">
        <ele>564</ele>
        <time>2023-03-07T10:03:19+01:00</time>
      </trkpt>
      <trkpt lat="43.68469" lon="6.74542">
        <ele>565</ele>
        <time>2023-03-07T10:03:28+01:00</time>
      </trkpt>
      <trkpt lat="43.68489" lon="6.74534">
        <ele>567</ele>
        <time>2023-03-07T10:03:37+01:00</time>
      </trkpt>
      <trkpt lat="43.68503" lon="6.74521">
        <ele>570</ele>
        <time>2023-03-07T10:03:47+01:00</time>
      </trkpt>
      <trkpt lat="43.68514" lon="6.74514">
        <ele>571</ele>
        <time>2023-03-07T10:03:56+01:00</time>
      </trkpt>
      <trkpt lat="43.68524" lon="6.74505">
        <ele>573</ele>
        <time>2023-03-07T10:04:06+01:00</time>
      </trkpt>
      <trkpt lat="43.68518" lon="6.74492">
        <ele>576</ele>
        <time>2023-03-07T10:04:15+01:00</time>
      </trkpt>
      <trkpt lat="43.68512" lon="6.74479">
        <ele>578</ele>
        <time>2023-03-07T10:04:25+01:00</time>
      </trkpt>
      <trkpt lat="43.68525" lon="6.74477">
        <ele>580</ele>
        <time>2023-03-07T10:04:35+01:00</time>
      </trkpt>
      <trkpt lat="43.68539" lon="6.7448">
        <ele>581</ele>
        <time>2023-03-07T10:04:45+01:00</time>
      </trkpt>
      <trkpt lat="43.68547" lon="6.74482">
        <ele>581</ele>
      </trkpt>
      <trkpt lat="43.68555" lon="6.74479">
        <ele>583</ele>
        <time>2023-03-07T10:04:54+01:00</time>
      </trkpt>
      <trkpt lat="43.68547" lon="6.74468">
        <ele>586</ele>
        <time>2023-03-07T10:05:04+01:00</time>
      </trkpt>
      <trkpt lat="43.68537" lon="6.74457">
        <ele>587</ele>
        <time>2023-03-07T10:05:13+01:00</time>
      </trkpt>
      <trkpt lat="43.68531" lon="6.74445">
        <ele>589</ele>
        <time>2023-03-07T10:05:22+01:00</time>
      </trkpt>
      <trkpt lat="43.68523" lon="6.74418">
        <ele>591</ele>
        <time>2023-03-07T10:05:32+01:00</time>
      </trkpt>
      <trkpt lat="43.68512" lon="6.74396">
        <ele>591</ele>
        <time>2023-03-07T10:05:42+01:00</time>
      </trkpt>
      <trkpt lat="43.68505" lon="6.7438">
        <ele>591</ele>
        <time>2023-03-07T10:05:51+01:00</time>
      </trkpt>
      <trkpt lat="43.68496" lon="6.74362">
        <ele>592</ele>
        <time>2023-03-07T10:06:01+01:00</time>
      </trkpt>
      <trkpt lat="43.68482" lon="6.74342">
        <ele>591</ele>
        <time>2023-03-07T10:06:10+01:00</time>
      </trkpt>
      <trkpt lat="43.68468" lon="6.74312">
        <ele>591</ele>
        <time>2023-03-07T10:06:19+01:00</time>
      </trkpt>
      <trkpt lat="43.68456" lon="6.74288">
        <ele>590</ele>
        <time>2023-03-07T10:06:29+01:00</time>
      </trkpt>
      <trkpt lat="43.68429" lon="6.74248">
        <ele>585</ele>
        <time>2023-03-07T10:06:38+01:00</time>
      </trkpt>
      <trkpt lat="43.68419" lon="6.74223">
        <ele>583</ele>
        <time>2023-03-07T10:06:47+01:00</time>
      </trkpt>
      <trkpt lat="43.68408" lon="6.74193">
        <ele>578</ele>
        <time>2023-03-07T10:06:57+01:00</time>
      </trkpt>
      <trkpt lat="43.68402" lon="6.74157">
        <ele>578</ele>
      </trkpt>
      <trkpt lat="43.68392" lon="6.74141">
        <ele>577</ele>
        <time>2023-03-07T10:07:06+01:00</time>
      </trkpt>
      <trkpt lat="43.68367" lon="6.74125">
        <ele>577</ele>
        <time>2023-03-07T10:07:15+01:00</time>
      </trkpt>
      <trkpt lat="43.68342" lon="6.74121">
        <ele>579</ele>
        <time>2023-03-07T10:07:24+01:00</time>
      </trkpt>
      <trkpt lat="43.68321" lon="6.74115">
        <ele>581</ele>
        <time>2023-03-07T10:07:33+01:00</time>
      </trkpt>
      <trkpt lat="43.68305" lon="6.74111">
        <ele>582</ele>
        <time>2023-03-07T10:07:43+01:00</time>
      </trkpt>
      <trkpt lat="43.68287" lon="6.74104">
        <ele>584</ele>
        <time>2023-03-07T10:07:52+01:00</time>
      </trkpt>
      <trkpt lat="43.68267" lon="6.74097">
        <ele>584</ele>
        <time>2023-03-07T10:08:01+01:00</time>
      </trkpt>
      <trkpt lat="43.68249" lon="6.74079">
        <ele>584</ele>
        <time>2023-03-07T10:08:10+01:00</time>
      </trkpt>
      <trkpt lat="43.68237" lon="6.74045">
        <ele>584</ele>
        <time>2023-03-07T10:08:20+01:00</time>
      </trkpt>
      <trkpt lat="43.68223" lon="6.74014">
        <ele>583</ele>
        <time>2023-03-07T10:08:29+01:00</time>
      </trkpt>
      <trkpt lat="43.68209" lon="6.73975">
        <ele>582</ele>
        <time>2023-03-07T10:08:38+01:00</time>
      </trkpt>
      <trkpt lat="43.68203" lon="6.73937">
        <ele>583</ele>
        <time>2023-03-07T10:08:47+01:00</time>
      </trkpt>
      <trkpt lat="43.68203" lon="6.739">
        <ele>584</ele>
        <time>2023-03-07T10:08:57+01:00</time>
      </trkpt>
      <trkpt lat="43.68204" lon="6.73867">
        <ele>586</ele>
        <time>2023-03-07T10:09:06+01:00</time>
      </trkpt>
      <trkpt lat="43.68205" lon="6.73834">
        <ele>588</ele>
        <time>2023-03-07T10:09:15+01:00</time>
      </trkpt>
      <trkpt lat="43.68195" lon="6.73802">
        <ele>588</ele>
        <time>2023-03-07T10:09:24+01:00</time>
      </trkpt>
      <trkpt lat="43.68177" lon="6.73781">
        <ele>590</ele>
        <time>2023-03-07T10:09:33+01:00</time>
      </trkpt>
      <trkpt lat="43.68164" lon="6.73755">
        <ele>592</ele>
        <time>2023-03-07T10:09:42+01:00</time>
      </trkpt>
      <trkpt lat="43.68152" lon="6.73726">
        <ele>593</ele>
        <time>2023-03-07T10:09:52+01:00</time>
      </trkpt>
      <trkpt lat="43.68141" lon="6.73696">
        <ele>595</ele>
        <time>2023-03-07T10:10:01+01:00</time>
      </trkpt>
      <trkpt lat="43.68145" lon="6.7367">
        <ele>597</ele>
        <time>2023-03-07T10:10:10+01:00</time>
      </trkpt>
      <trkpt lat="43.68147" lon="6.73651">
        <ele>599</ele>
        <time>2023-03-07T10:10:20+01:00</time>
      </trkpt>
      <trkpt lat="43.6815" lon="6.73635">
        <ele>600</ele>
        <time>2023-03-07T10:10:29+01:00</time>
      </trkpt>
      <trkpt lat="43.68146" lon="6.73614">
        <ele>603</ele>
        <time>2023-03-07T10:10:39+01:00</time>
      </trkpt>
      <trkpt lat="43.68141" lon="6.73594">
        <ele>604</ele>
        <time>2023-03-07T10:10:48+01:00</time>
      </trkpt>
      <trkpt lat="43.68135" lon="6.73572">
        <ele>606</ele>
        <time>2023-03-07T10:10:57+01:00</time>
      </trkpt>
      <trkpt lat="43.68128" lon="6.73549">
        <ele>608</ele>
        <time>2023-03-07T10:11:06+01:00</time>
      </trkpt>
      <trkpt lat="43.68126" lon="6.7352">
        <ele>611</ele>
        <time>2023-03-07T10:11:16+01:00</time>
      </trkpt>
      <trkpt lat="43.68119" lon="6.7349">
        <ele>613</ele>
        <time>2023-03-07T10:11:25+01:00</time>
      </trkpt>
      <trkpt lat="43.68113" lon="6.73473">
        <ele>614</ele>
        <time>2023-03-07T10:11:34+01:00</time>
      </trkpt>
      <trkpt lat="43.68102" lon="6.73454">
        <ele>615</ele>
        <time>2023-03-07T10:11:44+01:00</time>
      </trkpt>
      <trkpt lat="43.68089" lon="6.73434">
        <ele>617</ele>
        <time>2023-03-07T10:11:53+01:00</time>
      </trkpt>
      <trkpt lat="43.68077" lon="6.73412">
        <ele>618</ele>
        <time>2023-03-07T10:12:02+01:00</time>
      </trkpt>
      <trkpt lat="43.68072" lon="6.73389">
        <ele>620</ele>
        <time>2023-03-07T10:12:11+01:00</time>
      </trkpt>
      <trkpt lat="43.68077" lon="6.73364">
        <ele>621</ele>
        <time>2023-03-07T10:12:20+01:00</time>
      </trkpt>
      <trkpt lat="43.6808" lon="6.73334">
        <ele>623</ele>
        <time>2023-03-07T10:12:30+01:00</time>
      </trkpt>
      <trkpt lat="43.68082" lon="6.73304">
        <ele>625</ele>
        <time>2023-03-07T10:12:39+01:00</time>
      </trkpt>
      <trkpt lat="43.68087" lon="6.73283">
        <ele>627</ele>
        <time>2023-03-07T10:12:49+01:00</time>
      </trkpt>
      <trkpt lat="43.68091" lon="6.73263">
        <ele>629</ele>
        <time>2023-03-07T10:12:58+01:00</time>
      </trkpt>
      <trkpt lat="43.68096" lon="6.73241">
        <ele>631</ele>
        <time>2023-03-07T10:13:07+01:00</time>
      </trkpt>
      <trkpt lat="43.68105" lon="6.73213">
        <ele>632</ele>
        <time>2023-03-07T10:13:17+01:00</time>
      </trkpt>
      <trkpt lat="43.68122" lon="6.73191">
        <ele>635</ele>
        <time>2023-03-07T10:13:27+01:00</time>
      </trkpt>
      <trkpt lat="43.68134" lon="6.73178">
        <ele>637</ele>
        <time>2023-03-07T10:13:36+01:00</time>
      </trkpt>
      <trkpt lat="43.68139" lon="6.7315">
        <ele>639</ele>
        <time>2023-03-07T10:13:45+01:00</time>
      </trkpt>
      <trkpt lat="43.68129" lon="6.7311">
        <ele>640</ele>
        <time>2023-03-07T10:13:54+01:00</time>
      </trkpt>
      <trkpt lat="43.68118" lon="6.73075">
        <ele>639</ele>
        <time>2023-03-07T10:14:04+01:00</time>
      </trkpt>
      <trkpt lat="43.68106" lon="6.73042">
        <ele>639</ele>
        <time>2023-03-07T10:14:13+01:00</time>
      </trkpt>
      <trkpt lat="43.68094" lon="6.73007">
        <ele>639</ele>
        <time>2023-03-07T10:14:22+01:00</time>
      </trkpt>
      <trkpt lat="43.68084" lon="6.72973">
        <ele>639</ele>
        <time>2023-03-07T10:14:32+01:00</time>
      </trkpt>
      <trkpt lat="43.6808" lon="6.72935">
        <ele>639</ele>
        <time>2023-03-07T10:14:41+01:00</time>
      </trkpt>
      <trkpt lat="43.68077" lon="6.72897">
        <ele>640</ele>
        <time>2023-03-07T10:14:50+01:00</time>
      </trkpt>
      <trkpt lat="43.68079" lon="6.72865">
        <ele>640</ele>
        <time>2023-03-07T10:14:59+01:00</time>
      </trkpt>
      <trkpt lat="43.68085" lon="6.72828">
        <ele>640</ele>
        <time>2023-03-07T10:15:09+01:00</time>
      </trkpt>
      <trkpt lat="43.68089" lon="6.72795">
        <ele>640</ele>
        <time>2023-03-07T10:15:18+01:00</time>
      </trkpt>
      <trkpt lat="43.68091" lon="6.72766">
        <ele>639</ele>
        <time>2023-03-07T10:15:27+01:00</time>
      </trkpt>
      <trkpt lat="43.68099" lon="6.72729">
        <ele>639</ele>
        <time>2023-03-07T10:15:36+01:00</time>
      </trkpt>
      <trkpt lat="43.68109" lon="6.72696">
        <ele>640</ele>
        <time>2023-03-07T10:15:46+01:00</time>
      </trkpt>
      <trkpt lat="43.68113" lon="6.7266">
        <ele>640</ele>
        <time>2023-03-07T10:15:55+01:00</time>
      </trkpt>
      <trkpt lat="43.68128" lon="6.72628">
        <ele>640</ele>
        <time>2023-03-07T10:16:04+01:00</time>
      </trkpt>
      <trkpt lat="43.68144" lon="6.72597">
        <ele>640</ele>
        <time>2023-03-07T10:16:13+01:00</time>
      </trkpt>
      <trkpt lat="43.68162" lon="6.72569">
        <ele>639</ele>
        <time>2023-03-07T10:16:22+01:00</time>
      </trkpt>
      <trkpt lat="43.68187" lon="6.72548">
        <ele>639</ele>
        <time>2023-03-07T10:16:31+01:00</time>
      </trkpt>
      <trkpt lat="43.68207" lon="6.72515">
        <ele>639</ele>
        <time>2023-03-07T10:16:41+01:00</time>
      </trkpt>
      <trkpt lat="43.68225" lon="6.72486">
        <ele>639</ele>
        <time>2023-03-07T10:16:50+01:00</time>
      </trkpt>
      <trkpt lat="43.68242" lon="6.72461">
        <ele>640</ele>
        <time>2023-03-07T10:16:59+01:00</time>
      </trkpt>
      <trkpt lat="43.68258" lon="6.7244">
        <ele>641</ele>
        <time>2023-03-07T10:17:08+01:00</time>
      </trkpt>
      <trkpt lat="43.68271" lon="6.72413">
        <ele>641</ele>
        <time>2023-03-07T10:17:17+01:00</time>
      </trkpt>
      <trkpt lat="43.68286" lon="6.72381">
        <ele>641</ele>
        <time>2023-03-07T10:17:27+01:00</time>
      </trkpt>
      <trkpt lat="43.68304" lon="6.72351">
        <ele>640</ele>
        <time>2023-03-07T10:17:36+01:00</time>
      </trkpt>
      <trkpt lat="43.68325" lon="6.72329">
        <ele>640</ele>
        <time>2023-03-07T10:17:46+01:00</time>
      </trkpt>
      <trkpt lat="43.68348" lon="6.72309">
        <ele>640</ele>
        <time>2023-03-07T10:17:55+01:00</time>
      </trkpt>
      <trkpt lat="43.6837" lon="6.7229">
        <ele>641</ele>
        <time>2023-03-07T10:18:04+01:00</time>
      </trkpt>
      <trkpt lat="43.68393" lon="6.72272">
        <ele>641</ele>
        <time>2023-03-07T10:18:14+01:00</time>
      </trkpt>
      <trkpt lat="43.68415" lon="6.72251">
        <ele>641</ele>
        <time>2023-03-07T10:18:23+01:00</time>
      </trkpt>
      <trkpt lat="43.68439" lon="6.7223">
        <ele>641</ele>
        <time>2023-03-07T10:18:32+01:00</time>
      </trkpt>
      <trkpt lat="43.68461" lon="6.72215">
        <ele>640</ele>
        <time>2023-03-07T10:18:41+01:00</time>
      </trkpt>
      <trkpt lat="43.68479" lon="6.72203">
        <ele>640</ele>
        <time>2023-03-07T10:18:50+01:00</time>
      </trkpt>
      <trkpt lat="43.68504" lon="6.72199">
        <ele>641</ele>
        <time>2023-03-07T10:18:59+01:00</time>
      </trkpt>
      <trkpt lat="43.68528" lon="6.72207">
        <ele>642</ele>
        <time>2023-03-07T10:19:09+01:00</time>
      </trkpt>
      <trkpt lat="43.68552" lon="6.7221">
        <ele>641</ele>
        <time>2023-03-07T10:19:18+01:00</time>
      </trkpt>
      <trkpt lat="43.68575" lon="6.72213">
        <ele>639</ele>
        <time>2023-03-07T10:19:27+01:00</time>
      </trkpt>
      <trkpt lat="43.68595" lon="6.72225">
        <ele>639</ele>
        <time>2023-03-07T10:19:36+01:00</time>
      </trkpt>
      <trkpt lat="43.6862" lon="6.72226">
        <ele>636</ele>
        <time>2023-03-07T10:19:46+01:00</time>
      </trkpt>
      <trkpt lat="43.68642" lon="6.72227">
        <ele>634</ele>
        <time>2023-03-07T10:19:55+01:00</time>
      </trkpt>
      <trkpt lat="43.68653" lon="6.72229">
        <ele>636</ele>
        <time>2023-03-07T10:20:04+01:00</time>
      </trkpt>
      <trkpt lat="43.68658" lon="6.72219">
        <ele>636</ele>
        <time>2023-03-07T10:20:13+01:00</time>
      </trkpt>
      <trkpt lat="43.68659" lon="6.72205">
        <ele>637</ele>
        <time>2023-03-07T10:20:23+01:00</time>
      </trkpt>
      <trkpt lat="43.68658" lon="6.72189">
        <ele>637</ele>
        <time>2023-03-07T10:20:32+01:00</time>
      </trkpt>
      <trkpt lat="43.68655" lon="6.72169">
        <ele>639</ele>
        <time>2023-03-07T10:20:42+01:00</time>
      </trkpt>
      <trkpt lat="43.68651" lon="6.72152">
        <ele>640</ele>
        <time>2023-03-07T10:20:52+01:00</time>
      </trkpt>
      <trkpt lat="43.68653" lon="6.72136">
        <ele>644</ele>
        <time>2023-03-07T10:21:02+01:00</time>
      </trkpt>
      <trkpt lat="43.68651" lon="6.72125">
        <ele>646</ele>
        <time>2023-03-07T10:21:11+01:00</time>
      </trkpt>
      <trkpt lat="43.6865" lon="6.72101">
        <ele>651</ele>
        <time>2023-03-07T10:21:21+01:00</time>
      </trkpt>
      <trkpt lat="43.68646" lon="6.72083">
        <ele>654</ele>
        <time>2023-03-07T10:21:30+01:00</time>
      </trkpt>
      <trkpt lat="43.68646" lon="6.72068">
        <ele>657</ele>
        <time>2023-03-07T10:21:40+01:00</time>
      </trkpt>
      <trkpt lat="43.68645" lon="6.72057">
        <ele>660</ele>
        <time>2023-03-07T10:21:49+01:00</time>
      </trkpt>
      <trkpt lat="43.68644" lon="6.72048">
        <ele>660</ele>
        <time>2023-03-07T10:21:58+01:00</time>
      </trkpt>
      <trkpt lat="43.68643" lon="6.72033">
        <ele>662</ele>
        <time>2023-03-07T10:22:08+01:00</time>
      </trkpt>
      <trkpt lat="43.68641" lon="6.72012">
        <ele>664</ele>
        <time>2023-03-07T10:22:18+01:00</time>
      </trkpt>
      <trkpt lat="43.68641" lon="6.71994">
        <ele>665</ele>
        <time>2023-03-07T10:22:27+01:00</time>
      </trkpt>
      <trkpt lat="43.68642" lon="6.71966">
        <ele>668</ele>
        <time>2023-03-07T10:22:36+01:00</time>
      </trkpt>
      <trkpt lat="43.68648" lon="6.71948">
        <ele>671</ele>
        <time>2023-03-07T10:22:46+01:00</time>
      </trkpt>
      <trkpt lat="43.68656" lon="6.71944">
        <ele>673</ele>
        <time>2023-03-07T10:22:55+01:00</time>
      </trkpt>
      <trkpt lat="43.68664" lon="6.71932">
        <ele>675</ele>
        <time>2023-03-07T10:23:05+01:00</time>
      </trkpt>
      <trkpt lat="43.68669" lon="6.71937">
        <ele>677</ele>
        <time>2023-03-07T10:23:14+01:00</time>
      </trkpt>
      <trkpt lat="43.68681" lon="6.71944">
        <ele>681</ele>
        <time>2023-03-07T10:23:24+01:00</time>
      </trkpt>
      <trkpt lat="43.68682" lon="6.71961">
        <ele>682</ele>
        <time>2023-03-07T10:23:34+01:00</time>
      </trkpt>
      <trkpt lat="43.68681" lon="6.71973">
        <ele>682</ele>
        <time>2023-03-07T10:23:43+01:00</time>
      </trkpt>
      <trkpt lat="43.68683" lon="6.71982">
        <ele>682</ele>
        <time>2023-03-07T10:23:53+01:00</time>
      </trkpt>
      <trkpt lat="43.6869" lon="6.72">
        <ele>683</ele>
        <time>2023-03-07T10:24:02+01:00</time>
      </trkpt>
      <trkpt lat="43.68694" lon="6.72003">
        <ele>684</ele>
        <time>2023-03-07T10:24:12+01:00</time>
      </trkpt>
      <trkpt lat="43.687" lon="6.71969">
        <ele>688</ele>
        <time>2023-03-07T10:24:21+01:00</time>
      </trkpt>
      <trkpt lat="43.6871" lon="6.71956">
        <ele>691</ele>
        <time>2023-03-07T10:24:31+01:00</time>
      </trkpt>
      <trkpt lat="43.68716" lon="6.71939">
        <ele>692</ele>
        <time>2023-03-07T10:24:41+01:00</time>
      </trkpt>
      <trkpt lat="43.68724" lon="6.71938">
        <ele>694</ele>
        <time>2023-03-07T10:24:51+01:00</time>
      </trkpt>
      <trkpt lat="43.68721" lon="6.71965">
        <ele>695</ele>
        <time>2023-03-07T10:25:00+01:00</time>
      </trkpt>
      <trkpt lat="43.68726" lon="6.71995">
        <ele>696</ele>
        <time>2023-03-07T10:25:10+01:00</time>
      </trkpt>
      <trkpt lat="43.68734" lon="6.72017">
        <ele>697</ele>
        <time>2023-03-07T10:25:19+01:00</time>
      </trkpt>
      <trkpt lat="43.68741" lon="6.72019">
        <ele>699</ele>
        <time>2023-03-07T10:25:29+01:00</time>
      </trkpt>
      <trkpt lat="43.68746" lon="6.71992">
        <ele>702</ele>
        <time>2023-03-07T10:25:38+01:00</time>
      </trkpt>
      <trkpt lat="43.68748" lon="6.7197">
        <ele>703</ele>
        <time>2023-03-07T10:25:47+01:00</time>
      </trkpt>
      <trkpt lat="43.68765" lon="6.71941">
        <ele>707</ele>
        <time>2023-03-07T10:25:57+01:00</time>
      </trkpt>
      <trkpt lat="43.68776" lon="6.71927">
        <ele>709</ele>
        <time>2023-03-07T10:26:06+01:00</time>
      </trkpt>
      <trkpt lat="43.68786" lon="6.71914">
        <ele>711</ele>
        <time>2023-03-07T10:26:16+01:00</time>
      </trkpt>
      <trkpt lat="43.68797" lon="6.71902">
        <ele>714</ele>
        <time>2023-03-07T10:26:25+01:00</time>
      </trkpt>
      <trkpt lat="43.68809" lon="6.71887">
        <ele>717</ele>
        <time>2023-03-07T10:26:34+01:00</time>
      </trkpt>
      <trkpt lat="43.68818" lon="6.71873">
        <ele>717</ele>
        <time>2023-03-07T10:26:44+01:00</time>
      </trkpt>
      <trkpt lat="43.68829" lon="6.71863">
        <ele>719</ele>
        <time>2023-03-07T10:26:53+01:00</time>
      </trkpt>
      <trkpt lat="43.6884" lon="6.71854">
        <ele>722</ele>
        <time>2023-03-07T10:27:02+01:00</time>
      </trkpt>
      <trkpt lat="43.68851" lon="6.71843">
        <ele>724</ele>
        <time>2023-03-07T10:27:12+01:00</time>
      </trkpt>
      <trkpt lat="43.68859" lon="6.71827">
        <ele>725</ele>
        <time>2023-03-07T10:27:21+01:00</time>
      </trkpt>
      <trkpt lat="43.68867" lon="6.71815">
        <ele>726</ele>
        <time>2023-03-07T10:27:31+01:00</time>
      </trkpt>
      <trkpt lat="43.68878" lon="6.71801">
        <ele>728</ele>
        <time>2023-03-07T10:27:41+01:00</time>
      </trkpt>
      <trkpt lat="43.68889" lon="6.71789">
        <ele>731</ele>
        <time>2023-03-07T10:27:51+01:00</time>
      </trkpt>
      <trkpt lat="43.68903" lon="6.71779">
        <ele>734</ele>
        <time>2023-03-07T10:28:01+01:00</time>
      </trkpt>
      <trkpt lat="43.68915" lon="6.71771">
        <ele>736</ele>
        <time>2023-03-07T10:28:10+01:00</time>
      </trkpt>
      <trkpt lat="43.68928" lon="6.71763">
        <ele>738</ele>
        <time>2023-03-07T10:28:20+01:00</time>
      </trkpt>
      <trkpt lat="43.68941" lon="6.71755">
        <ele>739</ele>
        <time>2023-03-07T10:28:29+01:00</time>
      </trkpt>
      <trkpt lat="43.68953" lon="6.71752">
        <ele>742</ele>
        <time>2023-03-07T10:28:39+01:00</time>
      </trkpt>
      <trkpt lat="43.68964" lon="6.71746">
        <ele>744</ele>
        <time>2023-03-07T10:28:48+01:00</time>
      </trkpt>
      <trkpt lat="43.68976" lon="6.71738">
        <ele>747</ele>
        <time>2023-03-07T10:28:57+01:00</time>
      </trkpt>
      <trkpt lat="43.68988" lon="6.71727">
        <ele>748</ele>
        <time>2023-03-07T10:29:07+01:00</time>
      </trkpt>
      <trkpt lat="43.68999" lon="6.71714">
        <ele>750</ele>
        <time>2023-03-07T10:29:16+01:00</time>
      </trkpt>
      <trkpt lat="43.69013" lon="6.71701">
        <ele>753</ele>
        <time>2023-03-07T10:29:25+01:00</time>
      </trkpt>
      <trkpt lat="43.69025" lon="6.7169">
        <ele>755</ele>
        <time>2023-03-07T10:29:34+01:00</time>
      </trkpt>
      <trkpt lat="43.69035" lon="6.71679">
        <ele>757</ele>
        <time>2023-03-07T10:29:44+01:00</time>
      </trkpt>
      <trkpt lat="43.69044" lon="6.71668">
        <ele>758</ele>
        <time>2023-03-07T10:29:53+01:00</time>
      </trkpt>
      <trkpt lat="43.69054" lon="6.71656">
        <ele>760</ele>
        <time>2023-03-07T10:30:02+01:00</time>
      </trkpt>
      <trkpt lat="43.69062" lon="6.71645">
        <ele>761</ele>
        <time>2023-03-07T10:30:11+01:00</time>
      </trkpt>
      <trkpt lat="43.69072" lon="6.71634">
        <ele>764</ele>
        <time>2023-03-07T10:30:20+01:00</time>
      </trkpt>
      <trkpt lat="43.69084" lon="6.71622">
        <ele>767</ele>
        <time>2023-03-07T10:30:29+01:00</time>
      </trkpt>
      <trkpt lat="43.691" lon="6.71615">
        <ele>770</ele>
        <time>2023-03-07T10:30:38+01:00</time>
      </trkpt>
      <trkpt lat="43.69113" lon="6.71603">
        <ele>773</ele>
        <time>2023-03-07T10:30:48+01:00</time>
      </trkpt>
      <trkpt lat="43.69125" lon="6.71594">
        <ele>775</ele>
        <time>2023-03-07T10:30:57+01:00</time>
      </trkpt>
      <trkpt lat="43.69133" lon="6.71586">
        <ele>777</ele>
        <time>2023-03-07T10:31:07+01:00</time>
      </trkpt>
      <trkpt lat="43.69144" lon="6.71579">
        <ele>779</ele>
        <time>2023-03-07T10:31:16+01:00</time>
      </trkpt>
      <trkpt lat="43.69155" lon="6.71569">
        <ele>782</ele>
        <time>2023-03-07T10:31:25+01:00</time>
      </trkpt>
      <trkpt lat="43.6916" lon="6.71579">
        <ele>786</ele>
        <time>2023-03-07T10:31:34+01:00</time>
      </trkpt>
      <trkpt lat="43.6915" lon="6.71603">
        <ele>786</ele>
        <time>2023-03-07T10:31:44+01:00</time>
      </trkpt>
      <trkpt lat="43.6916" lon="6.71599">
        <ele>789</ele>
        <time>2023-03-07T10:31:53+01:00</time>
      </trkpt>
      <trkpt lat="43.69172" lon="6.71585">
        <ele>790</ele>
        <time>2023-03-07T10:32:02+01:00</time>
      </trkpt>
      <trkpt lat="43.69188" lon="6.71578">
        <ele>793</ele>
        <time>2023-03-07T10:32:12+01:00</time>
      </trkpt>
      <trkpt lat="43.69201" lon="6.7157">
        <ele>795</ele>
        <time>2023-03-07T10:32:21+01:00</time>
      </trkpt>
      <trkpt lat="43.69211" lon="6.71555">
        <ele>796</ele>
        <time>2023-03-07T10:32:31+01:00</time>
      </trkpt>
      <trkpt lat="43.69216" lon="6.7154">
        <ele>796</ele>
        <time>2023-03-07T10:32:40+01:00</time>
      </trkpt>
      <trkpt lat="43.69218" lon="6.71522">
        <ele>796</ele>
        <time>2023-03-07T10:32:50+01:00</time>
      </trkpt>
      <trkpt lat="43.6923" lon="6.71517">
        <ele>800</ele>
        <time>2023-03-07T10:32:59+01:00</time>
      </trkpt>
      <trkpt lat="43.6924" lon="6.71506">
        <ele>803</ele>
        <time>2023-03-07T10:33:08+01:00</time>
      </trkpt>
      <trkpt lat="43.69226" lon="6.71482">
        <ele>803</ele>
        <time>2023-03-07T10:33:18+01:00</time>
      </trkpt>
      <trkpt lat="43.69211" lon="6.71468">
        <ele>802</ele>
        <time>2023-03-07T10:33:27+01:00</time>
      </trkpt>
      <trkpt lat="43.69194" lon="6.71472">
        <ele>799</ele>
        <time>2023-03-07T10:33:36+01:00</time>
      </trkpt>
      <trkpt lat="43.69162" lon="6.71457">
        <ele>798</ele>
        <time>2023-03-07T10:33:46+01:00</time>
      </trkpt>
      <trkpt lat="43.69168" lon="6.71441">
        <ele>800</ele>
        <time>2023-03-07T10:33:55+01:00</time>
      </trkpt>
      <trkpt lat="43.69155" lon="6.71434">
        <ele>800</ele>
        <time>2023-03-07T10:34:04+01:00</time>
      </trkpt>
      <trkpt lat="43.69146" lon="6.71446">
        <ele>799</ele>
      </trkpt>
      <trkpt lat="43.69132" lon="6.71444">
        <ele>798</ele>
      </trkpt>
      <trkpt lat="43.69114" lon="6.71434">
        <ele>798</ele>
        <time>2023-03-07T10:34:13+01:00</time>
      </trkpt>
      <trkpt lat="43.6911" lon="6.71452">
        <ele>794</ele>
      </trkpt>
      <trkpt lat="43.69078" lon="6.7144">
        <ele>794</ele>
        <time>2023-03-07T10:34:22+01:00</time>
      </trkpt>
      <trkpt lat="43.6907" lon="6.71432">
        <ele>796</ele>
      </trkpt>
      <trkpt lat="43.69053" lon="6.71435">
        <ele>795</ele>
        <time>2023-03-07T10:34:31+01:00</time>
      </trkpt>
      <trkpt lat="43.69039" lon="6.7144">
        <ele>794</ele>
        <time>2023-03-07T10:34:41+01:00</time>
      </trkpt>
      <trkpt lat="43.69007" lon="6.71431">
        <ele>796</ele>
        <time>2023-03-07T10:34:50+01:00</time>
      </trkpt>
      <trkpt lat="43.69007" lon="6.71422">
        <ele>798</ele>
        <time>2023-03-07T10:35:00+01:00</time>
      </trkpt>
      <trkpt lat="43.68973" lon="6.71398">
        <ele>799</ele>
        <time>2023-03-07T10:35:10+01:00</time>
      </trkpt>
      <trkpt lat="43.68961" lon="6.71384">
        <ele>798</ele>
        <time>2023-03-07T10:35:19+01:00</time>
      </trkpt>
      <trkpt lat="43.68951" lon="6.71371">
        <ele>799</ele>
      </trkpt>
      <trkpt lat="43.68968" lon="6.71349">
        <ele>800</ele>
        <time>2023-03-07T10:35:28+01:00</time>
      </trkpt>
      <trkpt lat="43.68983" lon="6.71359">
        <ele>800</ele>
        <time>2023-03-07T10:35:38+01:00</time>
      </trkpt>
      <trkpt lat="43.69006" lon="6.71364">
        <ele>800</ele>
        <time>2023-03-07T10:35:47+01:00</time>
      </trkpt>
      <trkpt lat="43.69028" lon="6.71368">
        <ele>800</ele>
        <time>2023-03-07T10:35:57+01:00</time>
      </trkpt>
      <trkpt lat="43.69045" lon="6.71367">
        <ele>800</ele>
        <time>2023-03-07T10:36:06+01:00</time>
      </trkpt>
      <trkpt lat="43.69065" lon="6.71374">
        <ele>800</ele>
        <time>2023-03-07T10:36:16+01:00</time>
      </trkpt>
      <trkpt lat="43.69081" lon="6.71334">
        <ele>800</ele>
        <time>2023-03-07T10:36:25+01:00</time>
      </trkpt>
      <trkpt lat="43.69102" lon="6.71338">
        <ele>800</ele>
        <time>2023-03-07T10:36:34+01:00</time>
      </trkpt>
      <trkpt lat="43.69132" lon="6.71347">
        <ele>798</ele>
        <time>2023-03-07T10:36:43+01:00</time>
      </trkpt>
      <trkpt lat="43.69161" lon="6.7136">
        <ele>797</ele>
        <time>2023-03-07T10:36:52+01:00</time>
      </trkpt>
      <trkpt lat="43.69187" lon="6.71379">
        <ele>796</ele>
        <time>2023-03-07T10:37:02+01:00</time>
      </trkpt>
      <trkpt lat="43.6921" lon="6.71399">
        <ele>797</ele>
        <time>2023-03-07T10:37:11+01:00</time>
      </trkpt>
      <trkpt lat="43.69231" lon="6.7142">
        <ele>800</ele>
        <time>2023-03-07T10:37:20+01:00</time>
      </trkpt>
      <trkpt lat="43.69229" lon="6.71416">
        <ele>800</ele>
        <time>2023-03-07T10:37:29+01:00</time>
      </trkpt>
      <trkpt lat="43.69202" lon="6.71387">
        <ele>796</ele>
        <time>2023-03-07T10:37:38+01:00</time>
      </trkpt>
      <trkpt lat="43.69179" lon="6.71358">
        <ele>794</ele>
        <time>2023-03-07T10:37:47+01:00</time>
      </trkpt>
      <trkpt lat="43.69156" lon="6.71333">
        <ele>794</ele>
        <time>2023-03-07T10:37:57+01:00</time>
      </trkpt>
      <trkpt lat="43.69134" lon="6.71308">
        <ele>790</ele>
        <time>2023-03-07T10:38:06+01:00</time>
      </trkpt>
      <trkpt lat="43.69114" lon="6.71283">
        <ele>785</ele>
        <time>2023-03-07T10:38:15+01:00</time>
      </trkpt>
      <trkpt lat="43.69094" lon="6.71262">
        <ele>783</ele>
        <time>2023-03-07T10:38:25+01:00</time>
      </trkpt>
      <trkpt lat="43.6907" lon="6.71237">
        <ele>780</ele>
        <time>2023-03-07T10:38:34+01:00</time>
      </trkpt>
      <trkpt lat="43.69051" lon="6.71213">
        <ele>780</ele>
        <time>2023-03-07T10:38:43+01:00</time>
      </trkpt>
      <trkpt lat="43.69034" lon="6.71189">
        <ele>780</ele>
        <time>2023-03-07T10:38:53+01:00</time>
      </trkpt>
      <trkpt lat="43.69025" lon="6.71169">
        <ele>781</ele>
        <time>2023-03-07T10:39:02+01:00</time>
      </trkpt>
      <trkpt lat="43.69017" lon="6.71151">
        <ele>782</ele>
        <time>2023-03-07T10:39:12+01:00</time>
      </trkpt>
      <trkpt lat="43.69007" lon="6.71137">
        <ele>782</ele>
        <time>2023-03-07T10:39:21+01:00</time>
      </trkpt>
      <trkpt lat="43.69" lon="6.71118">
        <ele>783</ele>
        <time>2023-03-07T10:39:30+01:00</time>
      </trkpt>
      <trkpt lat="43.68991" lon="6.71093">
        <ele>785</ele>
        <time>2023-03-07T10:39:40+01:00</time>
      </trkpt>
      <trkpt lat="43.68983" lon="6.71081">
        <ele>786</ele>
        <time>2023-03-07T10:39:50+01:00</time>
      </trkpt>
      <trkpt lat="43.68974" lon="6.71069">
        <ele>787</ele>
        <time>2023-03-07T10:39:59+01:00</time>
      </trkpt>
      <trkpt lat="43.68962" lon="6.71056">
        <ele>787</ele>
        <time>2023-03-07T10:40:09+01:00</time>
      </trkpt>
      <trkpt lat="43.68953" lon="6.71038">
        <ele>788</ele>
        <time>2023-03-07T10:40:18+01:00</time>
      </trkpt>
      <trkpt lat="43.68947" lon="6.71018">
        <ele>790</ele>
        <time>2023-03-07T10:40:28+01:00</time>
      </trkpt>
      <trkpt lat="43.68946" lon="6.71002">
        <ele>793</ele>
        <time>2023-03-07T10:40:37+01:00</time>
      </trkpt>
      <trkpt lat="43.68935" lon="6.70986">
        <ele>794</ele>
        <time>2023-03-07T10:40:47+01:00</time>
      </trkpt>
      <trkpt lat="43.68926" lon="6.70972">
        <ele>795</ele>
        <time>2023-03-07T10:40:56+01:00</time>
      </trkpt>
      <trkpt lat="43.68912" lon="6.70958">
        <ele>796</ele>
        <time>2023-03-07T10:41:05+01:00</time>
      </trkpt>
      <trkpt lat="43.68893" lon="6.70937">
        <ele>798</ele>
        <time>2023-03-07T10:41:15+01:00</time>
      </trkpt>
      <trkpt lat="43.68882" lon="6.70925">
        <ele>799</ele>
        <time>2023-03-07T10:41:24+01:00</time>
      </trkpt>
      <trkpt lat="43.68861" lon="6.70913">
        <ele>798</ele>
        <time>2023-03-07T10:41:33+01:00</time>
      </trkpt>
      <trkpt lat="43.68835" lon="6.70893">
        <ele>799</ele>
        <time>2023-03-07T10:41:43+01:00</time>
      </trkpt>
      <trkpt lat="43.68815" lon="6.70867">
        <ele>801</ele>
        <time>2023-03-07T10:41:52+01:00</time>
      </trkpt>
      <trkpt lat="43.68798" lon="6.70843">
        <ele>802</ele>
        <time>2023-03-07T10:42:01+01:00</time>
      </trkpt>
      <trkpt lat="43.68781" lon="6.70818">
        <ele>803</ele>
        <time>2023-03-07T10:42:10+01:00</time>
      </trkpt>
      <trkpt lat="43.68764" lon="6.7079">
        <ele>805</ele>
        <time>2023-03-07T10:42:20+01:00</time>
      </trkpt>
      <trkpt lat="43.68749" lon="6.70768">
        <ele>806</ele>
        <time>2023-03-07T10:42:29+01:00</time>
      </trkpt>
      <trkpt lat="43.68749" lon="6.7074">
        <ele>809</ele>
        <time>2023-03-07T10:42:38+01:00</time>
      </trkpt>
      <trkpt lat="43.68736" lon="6.70718">
        <ele>809</ele>
        <time>2023-03-07T10:42:47+01:00</time>
      </trkpt>
      <trkpt lat="43.68719" lon="6.70699">
        <ele>808</ele>
        <time>2023-03-07T10:42:57+01:00</time>
      </trkpt>
      <trkpt lat="43.68703" lon="6.70679">
        <ele>808</ele>
        <time>2023-03-07T10:43:06+01:00</time>
      </trkpt>
      <trkpt lat="43.6869" lon="6.7065">
        <ele>808</ele>
        <time>2023-03-07T10:43:15+01:00</time>
      </trkpt>
      <trkpt lat="43.68683" lon="6.70621">
        <ele>809</ele>
        <time>2023-03-07T10:43:24+01:00</time>
      </trkpt>
      <trkpt lat="43.68675" lon="6.70591">
        <ele>811</ele>
        <time>2023-03-07T10:43:33+01:00</time>
      </trkpt>
      <trkpt lat="43.68677" lon="6.7056">
        <ele>812</ele>
        <time>2023-03-07T10:43:43+01:00</time>
      </trkpt>
      <trkpt lat="43.68679" lon="6.70524">
        <ele>812</ele>
        <time>2023-03-07T10:43:52+01:00</time>
      </trkpt>
      <trkpt lat="43.68681" lon="6.70491">
        <ele>812</ele>
        <time>2023-03-07T10:44:01+01:00</time>
      </trkpt>
      <trkpt lat="43.68682" lon="6.70455">
        <ele>812</ele>
        <time>2023-03-07T10:44:11+01:00</time>
      </trkpt>
      <trkpt lat="43.68682" lon="6.70422">
        <ele>812</ele>
        <time>2023-03-07T10:44:20+01:00</time>
      </trkpt>
      <trkpt lat="43.68685" lon="6.70386">
        <ele>812</ele>
        <time>2023-03-07T10:44:30+01:00</time>
      </trkpt>
      <trkpt lat="43.6869" lon="6.70353">
        <ele>812</ele>
        <time>2023-03-07T10:44:39+01:00</time>
      </trkpt>
      <trkpt lat="43.68694" lon="6.7032">
        <ele>811</ele>
        <time>2023-03-07T10:44:48+01:00</time>
      </trkpt>
      <trkpt lat="43.68692" lon="6.70282">
        <ele>810</ele>
        <time>2023-03-07T10:44:58+01:00</time>
      </trkpt>
      <trkpt lat="43.68694" lon="6.70244">
        <ele>810</ele>
        <time>2023-03-07T10:45:07+01:00</time>
      </trkpt>
      <trkpt lat="43.68695" lon="6.70203">
        <ele>808</ele>
        <time>2023-03-07T10:45:16+01:00</time>
      </trkpt>
      <trkpt lat="43.68695" lon="6.70162">
        <ele>807</ele>
        <time>2023-03-07T10:45:26+01:00</time>
      </trkpt>
      <trkpt lat="43.68697" lon="6.70121">
        <ele>807</ele>
        <time>2023-03-07T10:45:35+01:00</time>
      </trkpt>
      <trkpt lat="43.68698" lon="6.70085">
        <ele>808</ele>
        <time>2023-03-07T10:45:45+01:00</time>
      </trkpt>
      <trkpt lat="43.687" lon="6.70051">
        <ele>809</ele>
        <time>2023-03-07T10:45:54+01:00</time>
      </trkpt>
      <trkpt lat="43.687" lon="6.70016">
        <ele>809</ele>
        <time>2023-03-07T10:46:03+01:00</time>
      </trkpt>
      <trkpt lat="43.68701" lon="6.69978">
        <ele>809</ele>
        <time>2023-03-07T10:46:13+01:00</time>
      </trkpt>
      <trkpt lat="43.68701" lon="6.69942">
        <ele>809</ele>
        <time>2023-03-07T10:46:22+01:00</time>
      </trkpt>
      <trkpt lat="43.68703" lon="6.69905">
        <ele>809</ele>
        <time>2023-03-07T10:46:31+01:00</time>
      </trkpt>
      <trkpt lat="43.68703" lon="6.69868">
        <ele>808</ele>
        <time>2023-03-07T10:46:40+01:00</time>
      </trkpt>
      <trkpt lat="43.68703" lon="6.69834">
        <ele>808</ele>
        <time>2023-03-07T10:46:50+01:00</time>
      </trkpt>
      <trkpt lat="43.68705" lon="6.698">
        <ele>808</ele>
        <time>2023-03-07T10:46:59+01:00</time>
      </trkpt>
      <trkpt lat="43.68705" lon="6.69767">
        <ele>809</ele>
        <time>2023-03-07T10:47:08+01:00</time>
      </trkpt>
      <trkpt lat="43.68706" lon="6.69732">
        <ele>811</ele>
        <time>2023-03-07T10:47:17+01:00</time>
      </trkpt>
      <trkpt lat="43.68705" lon="6.69696">
        <ele>811</ele>
        <time>2023-03-07T10:47:27+01:00</time>
      </trkpt>
      <trkpt lat="43.68708" lon="6.69665">
        <ele>810</ele>
        <time>2023-03-07T10:47:36+01:00</time>
      </trkpt>
      <trkpt lat="43.68714" lon="6.69633">
        <ele>809</ele>
        <time>2023-03-07T10:47:46+01:00</time>
      </trkpt>
      <trkpt lat="43.68716" lon="6.69592">
        <ele>803</ele>
        <time>2023-03-07T10:47:55+01:00</time>
      </trkpt>
      <trkpt lat="43.68728" lon="6.69571">
        <ele>799</ele>
        <time>2023-03-07T10:48:04+01:00</time>
      </trkpt>
      <trkpt lat="43.68755" lon="6.69576">
        <ele>796</ele>
        <time>2023-03-07T10:48:13+01:00</time>
      </trkpt>
      <trkpt lat="43.68773" lon="6.69584">
        <ele>791</ele>
        <time>2023-03-07T10:48:22+01:00</time>
      </trkpt>
      <trkpt lat="43.68772" lon="6.69549">
        <ele>788</ele>
        <time>2023-03-07T10:48:31+01:00</time>
      </trkpt>
      <trkpt lat="43.68771" lon="6.69519">
        <ele>783</ele>
        <time>2023-03-07T10:48:40+01:00</time>
      </trkpt>
      <trkpt lat="43.68768" lon="6.69491">
        <ele>780</ele>
        <time>2023-03-07T10:48:50+01:00</time>
      </trkpt>
      <trkpt lat="43.68764" lon="6.69462">
        <ele>778</ele>
        <time>2023-03-07T10:48:59+01:00</time>
      </trkpt>
      <trkpt lat="43.68761" lon="6.69432">
        <ele>774</ele>
        <time>2023-03-07T10:49:08+01:00</time>
      </trkpt>
      <trkpt lat="43.68756" lon="6.69405">
        <ele>772</ele>
        <time>2023-03-07T10:49:17+01:00</time>
      </trkpt>
      <trkpt lat="43.68751" lon="6.69376">
        <ele>769</ele>
        <time>2023-03-07T10:49:26+01:00</time>
      </trkpt>
      <trkpt lat="43.68742" lon="6.69333">
        <ele>762</ele>
      </trkpt>
      <trkpt lat="43.68729" lon="6.69312">
        <ele>759</ele>
        <time>2023-03-07T10:49:35+01:00</time>
      </trkpt>
      <trkpt lat="43.68741" lon="6.69304">
        <ele>757</ele>
        <time>2023-03-07T10:49:44+01:00</time>
      </trkpt>
      <trkpt lat="43.68761" lon="6.69305">
        <ele>755</ele>
        <time>2023-03-07T10:49:53+01:00</time>
      </trkpt>
      <trkpt lat="43.68778" lon="6.69307">
        <ele>752</ele>
        <time>2023-03-07T10:50:02+01:00</time>
      </trkpt>
      <trkpt lat="43.68765" lon="6.69274">
        <ele>748</ele>
        <time>2023-03-07T10:50:12+01:00</time>
      </trkpt>
      <trkpt lat="43.68759" lon="6.69251">
        <ele>744</ele>
        <time>2023-03-07T10:50:21+01:00</time>
      </trkpt>
      <trkpt lat="43.68792" lon="6.69259">
        <ele>736</ele>
        <time>2023-03-07T10:50:30+01:00</time>
      </trkpt>
      <trkpt lat="43.68795" lon="6.69242">
        <ele>731</ele>
        <time>2023-03-07T10:50:39+01:00</time>
      </trkpt>
      <trkpt lat="43.68777" lon="6.69214">
        <ele>729</ele>
        <time>2023-03-07T10:50:48+01:00</time>
      </trkpt>
      <trkpt lat="43.68801" lon="6.69213">
        <ele>723</ele>
        <time>2023-03-07T10:50:58+01:00</time>
      </trkpt>
      <trkpt lat="43.68815" lon="6.69225">
        <ele>721</ele>
        <time>2023-03-07T10:51:07+01:00</time>
      </trkpt>
      <trkpt lat="43.68803" lon="6.69199">
        <ele>719</ele>
        <time>2023-03-07T10:51:16+01:00</time>
      </trkpt>
      <trkpt lat="43.68827" lon="6.69199">
        <ele>713</ele>
        <time>2023-03-07T10:51:25+01:00</time>
      </trkpt>
      <trkpt lat="43.6881" lon="6.69185">
        <ele>714</ele>
        <time>2023-03-07T10:51:35+01:00</time>
      </trkpt>
      <trkpt lat="43.688" lon="6.69165">
        <ele>712</ele>
        <time>2023-03-07T10:51:44+01:00</time>
      </trkpt>
      <trkpt lat="43.68815" lon="6.69163">
        <ele>713</ele>
        <time>2023-03-07T10:51:54+01:00</time>
      </trkpt>
      <trkpt lat="43.68825" lon="6.69159">
        <ele>714</ele>
        <time>2023-03-07T10:52:04+01:00</time>
      </trkpt>
      <trkpt lat="43.68835" lon="6.69155">
        <ele>716</ele>
        <time>2023-03-07T10:52:13+01:00</time>
      </trkpt>
      <trkpt lat="43.68846" lon="6.69143">
        <ele>720</ele>
        <time>2023-03-07T10:52:22+01:00</time>
      </trkpt>
      <trkpt lat="43.68854" lon="6.69136">
        <ele>721</ele>
        <time>2023-03-07T10:52:32+01:00</time>
      </trkpt>
      <trkpt lat="43.6886" lon="6.69125">
        <ele>723</ele>
        <time>2023-03-07T10:52:41+01:00</time>
      </trkpt>
      <trkpt lat="43.68867" lon="6.69115">
        <ele>726</ele>
        <time>2023-03-07T10:52:51+01:00</time>
      </trkpt>
      <trkpt lat="43.68871" lon="6.691">
        <ele>728</ele>
        <time>2023-03-07T10:53:00+01:00</time>
      </trkpt>
      <trkpt lat="43.6887" lon="6.69083">
        <ele>732</ele>
        <time>2023-03-07T10:53:10+01:00</time>
      </trkpt>
      <trkpt lat="43.68866" lon="6.69076">
        <ele>733</ele>
        <time>2023-03-07T10:53:20+01:00</time>
      </trkpt>
      <trkpt lat="43.68866" lon="6.69065">
        <ele>734</ele>
        <time>2023-03-07T10:53:30+01:00</time>
      </trkpt>
      <trkpt lat="43.68861" lon="6.69057">
        <ele>735</ele>
        <time>2023-03-07T10:53:40+01:00</time>
      </trkpt>
      <trkpt lat="43.6885" lon="6.69043">
        <ele>738</ele>
        <time>2023-03-07T10:53:49+01:00</time>
      </trkpt>
      <trkpt lat="43.6884" lon="6.69026">
        <ele>741</ele>
        <time>2023-03-07T10:53:59+01:00</time>
      </trkpt>
      <trkpt lat="43.68825" lon="6.6902">
        <ele>743</ele>
        <time>2023-03-07T10:54:08+01:00</time>
      </trkpt>
      <trkpt lat="43.68817" lon="6.69029">
        <ele>745</ele>
        <time>2023-03-07T10:54:17+01:00</time>
      </trkpt>
      <trkpt lat="43.68805" lon="6.69038">
        <ele>746</ele>
        <time>2023-03-07T10:54:27+01:00</time>
      </trkpt>
      <trkpt lat="43.68794" lon="6.69048">
        <ele>747</ele>
        <time>2023-03-07T10:54:36+01:00</time>
      </trkpt>
      <trkpt lat="43.68779" lon="6.69045">
        <ele>750</ele>
        <time>2023-03-07T10:54:46+01:00</time>
      </trkpt>
      <trkpt lat="43.68774" lon="6.69024">
        <ele>753</ele>
        <time>2023-03-07T10:54:55+01:00</time>
      </trkpt>
      <trkpt lat="43.68769" lon="6.69003">
        <ele>755</ele>
        <time>2023-03-07T10:55:05+01:00</time>
      </trkpt>
      <trkpt lat="43.68763" lon="6.68986">
        <ele>757</ele>
        <time>2023-03-07T10:55:14+01:00</time>
      </trkpt>
      <trkpt lat="43.68755" lon="6.68969">
        <ele>759</ele>
        <time>2023-03-07T10:55:24+01:00</time>
      </trkpt>
      <trkpt lat="43.68752" lon="6.68948">
        <ele>761</ele>
        <time>2023-03-07T10:55:34+01:00</time>
      </trkpt>
      <trkpt lat="43.68742" lon="6.68934">
        <ele>764</ele>
        <time>2023-03-07T10:55:44+01:00</time>
      </trkpt>
      <trkpt lat="43.68735" lon="6.68918">
        <ele>766</ele>
        <time>2023-03-07T10:55:53+01:00</time>
      </trkpt>
      <trkpt lat="43.68727" lon="6.68901">
        <ele>768</ele>
        <time>2023-03-07T10:56:02+01:00</time>
      </trkpt>
      <trkpt lat="43.68721" lon="6.68881">
        <ele>770</ele>
        <time>2023-03-07T10:56:12+01:00</time>
      </trkpt>
      <trkpt lat="43.68715" lon="6.68862">
        <ele>771</ele>
        <time>2023-03-07T10:56:21+01:00</time>
      </trkpt>
      <trkpt lat="43.68701" lon="6.68839">
        <ele>773</ele>
        <time>2023-03-07T10:56:30+01:00</time>
      </trkpt>
      <trkpt lat="43.68686" lon="6.68812">
        <ele>774</ele>
        <time>2023-03-07T10:56:40+01:00</time>
      </trkpt>
      <trkpt lat="43.68671" lon="6.68788">
        <ele>777</ele>
        <time>2023-03-07T10:56:49+01:00</time>
      </trkpt>
      <trkpt lat="43.68657" lon="6.68767">
        <ele>778</ele>
        <time>2023-03-07T10:56:58+01:00</time>
      </trkpt>
      <trkpt lat="43.6864" lon="6.68748">
        <ele>781</ele>
        <time>2023-03-07T10:57:07+01:00</time>
      </trkpt>
      <trkpt lat="43.68629" lon="6.68734">
        <ele>782</ele>
        <time>2023-03-07T10:57:17+01:00</time>
      </trkpt>
      <trkpt lat="43.68619" lon="6.68721">
        <ele>783</ele>
        <time>2023-03-07T10:57:26+01:00</time>
      </trkpt>
      <trkpt lat="43.68606" lon="6.68702">
        <ele>784</ele>
        <time>2023-03-07T10:57:35+01:00</time>
      </trkpt>
      <trkpt lat="43.68587" lon="6.68685">
        <ele>787</ele>
        <time>2023-03-07T10:57:45+01:00</time>
      </trkpt>
      <trkpt lat="43.68572" lon="6.68662">
        <ele>788</ele>
        <time>2023-03-07T10:57:54+01:00</time>
      </trkpt>
      <trkpt lat="43.68555" lon="6.6864">
        <ele>789</ele>
        <time>2023-03-07T10:58:04+01:00</time>
      </trkpt>
      <trkpt lat="43.68535" lon="6.6862">
        <ele>790</ele>
        <time>2023-03-07T10:58:13+01:00</time>
      </trkpt>
      <trkpt lat="43.68516" lon="6.68596">
        <ele>790</ele>
        <time>2023-03-07T10:58:22+01:00</time>
      </trkpt>
      <trkpt lat="43.685" lon="6.68571">
        <ele>790</ele>
        <time>2023-03-07T10:58:31+01:00</time>
      </trkpt>
      <trkpt lat="43.68481" lon="6.68543">
        <ele>790</ele>
        <time>2023-03-07T10:58:41+01:00</time>
      </trkpt>
      <trkpt lat="43.68461" lon="6.68514">
        <ele>789</ele>
        <time>2023-03-07T10:58:50+01:00</time>
      </trkpt>
      <trkpt lat="43.68442" lon="6.68486">
        <ele>788</ele>
        <time>2023-03-07T10:59:00+01:00</time>
      </trkpt>
      <trkpt lat="43.68422" lon="6.68463">
        <ele>789</ele>
        <time>2023-03-07T10:59:09+01:00</time>
      </trkpt>
      <trkpt lat="43.68399" lon="6.68434">
        <ele>789</ele>
        <time>2023-03-07T10:59:18+01:00</time>
      </trkpt>
      <trkpt lat="43.6838" lon="6.68405">
        <ele>789</ele>
        <time>2023-03-07T10:59:27+01:00</time>
      </trkpt>
      <trkpt lat="43.68358" lon="6.68379">
        <ele>788</ele>
        <time>2023-03-07T10:59:37+01:00</time>
      </trkpt>
      <trkpt lat="43.68338" lon="6.6835">
        <ele>788</ele>
        <time>2023-03-07T10:59:46+01:00</time>
      </trkpt>
      <trkpt lat="43.68319" lon="6.68322">
        <ele>787</ele>
        <time>2023-03-07T10:59:55+01:00</time>
      </trkpt>
      <trkpt lat="43.68299" lon="6.68295">
        <ele>786</ele>
        <time>2023-03-07T11:00:04+01:00</time>
      </trkpt>
      <trkpt lat="43.68281" lon="6.68263">
        <ele>785</ele>
        <time>2023-03-07T11:00:13+01:00</time>
      </trkpt>
      <trkpt lat="43.68262" lon="6.68235">
        <ele>785</ele>
        <time>2023-03-07T11:00:22+01:00</time>
      </trkpt>
      <trkpt lat="43.68243" lon="6.68204">
        <ele>784</ele>
        <time>2023-03-07T11:00:32+01:00</time>
      </trkpt>
      <trkpt lat="43.68225" lon="6.6817">
        <ele>782</ele>
        <time>2023-03-07T11:00:41+01:00</time>
      </trkpt>
      <trkpt lat="43.68206" lon="6.68139">
        <ele>780</ele>
        <time>2023-03-07T11:00:50+01:00</time>
      </trkpt>
      <trkpt lat="43.6819" lon="6.68103">
        <ele>779</ele>
        <time>2023-03-07T11:00:59+01:00</time>
      </trkpt>
      <trkpt lat="43.68173" lon="6.68069">
        <ele>777</ele>
        <time>2023-03-07T11:01:08+01:00</time>
      </trkpt>
      <trkpt lat="43.68153" lon="6.68033">
        <ele>775</ele>
        <time>2023-03-07T11:01:18+01:00</time>
      </trkpt>
      <trkpt lat="43.68135" lon="6.68">
        <ele>774</ele>
        <time>2023-03-07T11:01:27+01:00</time>
      </trkpt>
      <trkpt lat="43.68115" lon="6.67964">
        <ele>771</ele>
        <time>2023-03-07T11:01:36+01:00</time>
      </trkpt>
      <trkpt lat="43.68096" lon="6.6793">
        <ele>767</ele>
        <time>2023-03-07T11:01:46+01:00</time>
      </trkpt>
      <trkpt lat="43.68077" lon="6.67897">
        <ele>764</ele>
        <time>2023-03-07T11:01:55+01:00</time>
      </trkpt>
      <trkpt lat="43.68059" lon="6.67863">
        <ele>762</ele>
        <time>2023-03-07T11:02:05+01:00</time>
      </trkpt>
      <trkpt lat="43.68042" lon="6.67827">
        <ele>761</ele>
        <time>2023-03-07T11:02:14+01:00</time>
      </trkpt>
      <trkpt lat="43.68029" lon="6.6779">
        <ele>759</ele>
        <time>2023-03-07T11:02:23+01:00</time>
      </trkpt>
      <trkpt lat="43.68011" lon="6.67758">
        <ele>756</ele>
        <time>2023-03-07T11:02:32+01:00</time>
      </trkpt>
      <trkpt lat="43.67981" lon="6.67765">
        <ele>753</ele>
        <time>2023-03-07T11:02:42+01:00</time>
      </trkpt>
      <trkpt lat="43.67953" lon="6.67769">
        <ele>750</ele>
        <time>2023-03-07T11:02:51+01:00</time>
      </trkpt>
      <trkpt lat="43.67924" lon="6.67787">
        <ele>747</ele>
        <time>2023-03-07T11:03:00+01:00</time>
      </trkpt>
      <trkpt lat="43.67896" lon="6.67807">
        <ele>745</ele>
        <time>2023-03-07T11:03:09+01:00</time>
      </trkpt>
      <trkpt lat="43.67872" lon="6.67825">
        <ele>744</ele>
        <time>2023-03-07T11:03:18+01:00</time>
      </trkpt>
      <trkpt lat="43.67847" lon="6.67845">
        <ele>742</ele>
        <time>2023-03-07T11:03:28+01:00</time>
      </trkpt>
      <trkpt lat="43.67819" lon="6.67864">
        <ele>741</ele>
        <time>2023-03-07T11:03:37+01:00</time>
      </trkpt>
      <trkpt lat="43.67789" lon="6.67884">
        <ele>740</ele>
        <time>2023-03-07T11:03:47+01:00</time>
      </trkpt>
      <trkpt lat="43.67759" lon="6.67897">
        <ele>739</ele>
        <time>2023-03-07T11:03:56+01:00</time>
      </trkpt>
      <trkpt lat="43.67737" lon="6.67919">
        <ele>737</ele>
        <time>2023-03-07T11:04:05+01:00</time>
      </trkpt>
      <trkpt lat="43.67714" lon="6.67948">
        <ele>736</ele>
        <time>2023-03-07T11:04:15+01:00</time>
      </trkpt>
      <trkpt lat="43.67687" lon="6.67967">
        <ele>734</ele>
        <time>2023-03-07T11:04:24+01:00</time>
      </trkpt>
      <trkpt lat="43.67656" lon="6.67971">
        <ele>733</ele>
        <time>2023-03-07T11:04:34+01:00</time>
      </trkpt>
      <trkpt lat="43.6763" lon="6.67964">
        <ele>733</ele>
        <time>2023-03-07T11:04:43+01:00</time>
      </trkpt>
      <trkpt lat="43.67605" lon="6.6796">
        <ele>733</ele>
        <time>2023-03-07T11:04:52+01:00</time>
      </trkpt>
      <trkpt lat="43.67576" lon="6.67963">
        <ele>733</ele>
        <time>2023-03-07T11:05:02+01:00</time>
      </trkpt>
      <trkpt lat="43.67552" lon="6.67973">
        <ele>734</ele>
        <time>2023-03-07T11:05:11+01:00</time>
      </trkpt>
      <trkpt lat="43.67535" lon="6.67977">
        <ele>736</ele>
        <time>2023-03-07T11:05:21+01:00</time>
      </trkpt>
      <trkpt lat="43.67522" lon="6.67981">
        <ele>738</ele>
        <time>2023-03-07T11:05:31+01:00</time>
      </trkpt>
      <trkpt lat="43.67509" lon="6.67979">
        <ele>739</ele>
        <time>2023-03-07T11:05:41+01:00</time>
      </trkpt>
      <trkpt lat="43.67497" lon="6.67983">
        <ele>740</ele>
        <time>2023-03-07T11:05:50+01:00</time>
      </trkpt>
      <trkpt lat="43.67484" lon="6.67982">
        <ele>740</ele>
        <time>2023-03-07T11:05:59+01:00</time>
      </trkpt>
      <trkpt lat="43.67474" lon="6.6798">
        <ele>740</ele>
        <time>2023-03-07T11:06:08+01:00</time>
      </trkpt>
      <trkpt lat="43.6746" lon="6.6798">
        <ele>741</ele>
        <time>2023-03-07T11:06:18+01:00</time>
      </trkpt>
      <trkpt lat="43.67448" lon="6.67986">
        <ele>742</ele>
        <time>2023-03-07T11:06:27+01:00</time>
      </trkpt>
      <trkpt lat="43.67435" lon="6.67997">
        <ele>743</ele>
        <time>2023-03-07T11:06:37+01:00</time>
      </trkpt>
      <trkpt lat="43.67421" lon="6.68006">
        <ele>744</ele>
        <time>2023-03-07T11:06:47+01:00</time>
      </trkpt>
      <trkpt lat="43.67408" lon="6.6801">
        <ele>745</ele>
        <time>2023-03-07T11:06:56+01:00</time>
      </trkpt>
      <trkpt lat="43.67392" lon="6.68011">
        <ele>745</ele>
        <time>2023-03-07T11:07:06+01:00</time>
      </trkpt>
      <trkpt lat="43.67376" lon="6.68012">
        <ele>746</ele>
        <time>2023-03-07T11:07:15+01:00</time>
      </trkpt>
      <trkpt lat="43.67356" lon="6.68015">
        <ele>748</ele>
        <time>2023-03-07T11:07:24+01:00</time>
      </trkpt>
      <trkpt lat="43.67335" lon="6.68019">
        <ele>750</ele>
        <time>2023-03-07T11:07:33+01:00</time>
      </trkpt>
      <trkpt lat="43.67316" lon="6.68023">
        <ele>753</ele>
        <time>2023-03-07T11:07:42+01:00</time>
      </trkpt>
      <trkpt lat="43.67302" lon="6.68029">
        <ele>754</ele>
        <time>2023-03-07T11:07:52+01:00</time>
      </trkpt>
      <trkpt lat="43.67287" lon="6.68032">
        <ele>756</ele>
        <time>2023-03-07T11:08:01+01:00</time>
      </trkpt>
      <trkpt lat="43.67273" lon="6.68033">
        <ele>758</ele>
        <time>2023-03-07T11:08:10+01:00</time>
      </trkpt>
      <trkpt lat="43.67259" lon="6.68038">
        <ele>760</ele>
        <time>2023-03-07T11:08:20+01:00</time>
      </trkpt>
      <trkpt lat="43.67247" lon="6.68045">
        <ele>762</ele>
        <time>2023-03-07T11:08:29+01:00</time>
      </trkpt>
      <trkpt lat="43.67234" lon="6.68049">
        <ele>763</ele>
        <time>2023-03-07T11:08:38+01:00</time>
      </trkpt>
      <trkpt lat="43.67218" lon="6.68043">
        <ele>765</ele>
        <time>2023-03-07T11:08:48+01:00</time>
      </trkpt>
      <trkpt lat="43.67205" lon="6.68048">
        <ele>766</ele>
        <time>2023-03-07T11:08:57+01:00</time>
      </trkpt>
      <trkpt lat="43.67192" lon="6.68061">
        <ele>768</ele>
        <time>2023-03-07T11:09:07+01:00</time>
      </trkpt>
      <trkpt lat="43.67179" lon="6.68071">
        <ele>769</ele>
        <time>2023-03-07T11:09:16+01:00</time>
      </trkpt>
      <trkpt lat="43.67159" lon="6.68068">
        <ele>771</ele>
        <time>2023-03-07T11:09:25+01:00</time>
      </trkpt>
      <trkpt lat="43.67136" lon="6.68063">
        <ele>774</ele>
        <time>2023-03-07T11:09:34+01:00</time>
      </trkpt>
      <trkpt lat="43.67113" lon="6.68065">
        <ele>776</ele>
        <time>2023-03-07T11:09:43+01:00</time>
      </trkpt>
      <trkpt lat="43.67092" lon="6.6807">
        <ele>776</ele>
        <time>2023-03-07T11:09:52+01:00</time>
      </trkpt>
      <trkpt lat="43.67071" lon="6.68071">
        <ele>777</ele>
        <time>2023-03-07T11:10:02+01:00</time>
      </trkpt>
      <trkpt lat="43.67046" lon="6.68058">
        <ele>779</ele>
        <time>2023-03-07T11:10:11+01:00</time>
      </trkpt>
      <trkpt lat="43.67021" lon="6.68047">
        <ele>780</ele>
        <time>2023-03-07T11:10:20+01:00</time>
      </trkpt>
      <trkpt lat="43.66996" lon="6.68032">
        <ele>779</ele>
        <time>2023-03-07T11:10:29+01:00</time>
      </trkpt>
      <trkpt lat="43.66971" lon="6.68016">
        <ele>777</ele>
        <time>2023-03-07T11:10:38+01:00</time>
      </trkpt>
      <trkpt lat="43.66945" lon="6.67999">
        <ele>775</ele>
        <time>2023-03-07T11:10:47+01:00</time>
      </trkpt>
      <trkpt lat="43.66918" lon="6.67986">
        <ele>772</ele>
        <time>2023-03-07T11:10:57+01:00</time>
      </trkpt>
      <trkpt lat="43.66895" lon="6.67973">
        <ele>768</ele>
        <time>2023-03-07T11:11:06+01:00</time>
      </trkpt>
      <trkpt lat="43.66878" lon="6.67947">
        <ele>765</ele>
        <time>2023-03-07T11:11:15+01:00</time>
      </trkpt>
      <trkpt lat="43.66871" lon="6.67908">
        <ele>763</ele>
        <time>2023-03-07T11:11:24+01:00</time>
      </trkpt>
      <trkpt lat="43.66863" lon="6.67891">
        <ele>761</ele>
        <time>2023-03-07T11:11:33+01:00</time>
      </trkpt>
      <trkpt lat="43.66855" lon="6.67916">
        <ele>759</ele>
        <time>2023-03-07T11:11:43+01:00</time>
      </trkpt>
      <trkpt lat="43.66842" lon="6.67949">
        <ele>756</ele>
        <time>2023-03-07T11:11:52+01:00</time>
      </trkpt>
      <trkpt lat="43.66823" lon="6.67973">
        <ele>752</ele>
        <time>2023-03-07T11:12:01+01:00</time>
      </trkpt>
      <trkpt lat="43.668" lon="6.68008">
        <ele>750</ele>
        <time>2023-03-07T11:12:10+01:00</time>
      </trkpt>
      <trkpt lat="43.66781" lon="6.68034">
        <ele>752</ele>
        <time>2023-03-07T11:12:20+01:00</time>
      </trkpt>
      <trkpt lat="43.66766" lon="6.68018">
        <ele>754</ele>
        <time>2023-03-07T11:12:29+01:00</time>
      </trkpt>
      <trkpt lat="43.66751" lon="6.6799">
        <ele>754</ele>
        <time>2023-03-07T11:12:38+01:00</time>
      </trkpt>
      <trkpt lat="43.66737" lon="6.67967">
        <ele>754</ele>
        <time>2023-03-07T11:12:47+01:00</time>
      </trkpt>
      <trkpt lat="43.66729" lon="6.67951">
        <ele>753</ele>
        <time>2023-03-07T11:12:56+01:00</time>
      </trkpt>
      <trkpt lat="43.66724" lon="6.67946">
        <ele>753</ele>
        <time>2023-03-07T11:13:06+01:00</time>
      </trkpt>
      <trkpt lat="43.66725" lon="6.67946">
        <ele>753</ele>
        <time>2023-03-07T11:13:16+01:00</time>
      </trkpt>
      <trkpt lat="43.66724" lon="6.67948">
        <ele>753</ele>
        <time>2023-03-07T11:13:25+01:00</time>
      </trkpt>
      <trkpt lat="43.66724" lon="6.67949">
        <ele>754</ele>
        <time>2023-03-07T11:13:35+01:00</time>
      </trkpt>
      <trkpt lat="43.66725" lon="6.6795">
        <ele>754</ele>
        <time>2023-03-07T11:13:46+01:00</time>
      </trkpt>
      <trkpt lat="43.66725" lon="6.67949">
        <ele>753</ele>
        <time>2023-03-07T11:14:04+01:00</time>
      </trkpt>
      <trkpt lat="43.66724" lon="6.67949">
        <ele>754</ele>
        <time>2023-03-07T11:14:50+01:00</time>
      </trkpt>
      <trkpt lat="43.66723" lon="6.67943">
        <ele>753</ele>
        <time>2023-03-07T11:14:59+01:00</time>
      </trkpt>
      <trkpt lat="43.66714" lon="6.67928">
        <ele>752</ele>
        <time>2023-03-07T11:15:08+01:00</time>
      </trkpt>
      <trkpt lat="43.66701" lon="6.67903">
        <ele>750</ele>
        <time>2023-03-07T11:15:18+01:00</time>
      </trkpt>
      <trkpt lat="43.66675" lon="6.67871">
        <ele>748</ele>
        <time>2023-03-07T11:15:27+01:00</time>
      </trkpt>
      <trkpt lat="43.66648" lon="6.67843">
        <ele>746</ele>
        <time>2023-03-07T11:15:37+01:00</time>
      </trkpt>
      <trkpt lat="43.66621" lon="6.67816">
        <ele>744</ele>
        <time>2023-03-07T11:15:46+01:00</time>
      </trkpt>
      <trkpt lat="43.66595" lon="6.67791">
        <ele>743</ele>
        <time>2023-03-07T11:15:56+01:00</time>
      </trkpt>
      <trkpt lat="43.6657" lon="6.67768">
        <ele>742</ele>
        <time>2023-03-07T11:16:05+01:00</time>
      </trkpt>
      <trkpt lat="43.66545" lon="6.67739">
        <ele>742</ele>
        <time>2023-03-07T11:16:14+01:00</time>
      </trkpt>
      <trkpt lat="43.66523" lon="6.67714">
        <ele>742</ele>
        <time>2023-03-07T11:16:23+01:00</time>
      </trkpt>
      <trkpt lat="43.66504" lon="6.67685">
        <ele>742</ele>
        <time>2023-03-07T11:16:32+01:00</time>
      </trkpt>
      <trkpt lat="43.66484" lon="6.67654">
        <ele>742</ele>
        <time>2023-03-07T11:16:42+01:00</time>
      </trkpt>
      <trkpt lat="43.66466" lon="6.67623">
        <ele>742</ele>
        <time>2023-03-07T11:16:51+01:00</time>
      </trkpt>
      <trkpt lat="43.66451" lon="6.67591">
        <ele>740</ele>
        <time>2023-03-07T11:17:00+01:00</time>
      </trkpt>
      <trkpt lat="43.66436" lon="6.67556">
        <ele>738</ele>
        <time>2023-03-07T11:17:10+01:00</time>
      </trkpt>
      <trkpt lat="43.6642" lon="6.6752">
        <ele>737</ele>
        <time>2023-03-07T11:17:19+01:00</time>
      </trkpt>
      <trkpt lat="43.66405" lon="6.67484">
        <ele>735</ele>
        <time>2023-03-07T11:17:29+01:00</time>
      </trkpt>
      <trkpt lat="43.66386" lon="6.6745">
        <ele>734</ele>
        <time>2023-03-07T11:17:38+01:00</time>
      </trkpt>
      <trkpt lat="43.6637" lon="6.67421">
        <ele>733</ele>
        <time>2023-03-07T11:17:47+01:00</time>
      </trkpt>
      <trkpt lat="43.66349" lon="6.6739">
        <ele>731</ele>
        <time>2023-03-07T11:17:57+01:00</time>
      </trkpt>
      <trkpt lat="43.66325" lon="6.67363">
        <ele>730</ele>
        <time>2023-03-07T11:18:06+01:00</time>
      </trkpt>
      <trkpt lat="43.66306" lon="6.67329">
        <ele>730</ele>
        <time>2023-03-07T11:18:15+01:00</time>
      </trkpt>
      <trkpt lat="43.6629" lon="6.67295">
        <ele>730</ele>
        <time>2023-03-07T11:18:24+01:00</time>
      </trkpt>
      <trkpt lat="43.66276" lon="6.67261">
        <ele>729</ele>
        <time>2023-03-07T11:18:34+01:00</time>
      </trkpt>
      <trkpt lat="43.66264" lon="6.67222">
        <ele>728</ele>
        <time>2023-03-07T11:18:43+01:00</time>
      </trkpt>
      <trkpt lat="43.66251" lon="6.67187">
        <ele>727</ele>
        <time>2023-03-07T11:18:52+01:00</time>
      </trkpt>
      <trkpt lat="43.66229" lon="6.67154">
        <ele>726</ele>
        <time>2023-03-07T11:19:01+01:00</time>
      </trkpt>
      <trkpt lat="43.66208" lon="6.67134">
        <ele>726</ele>
        <time>2023-03-07T11:19:11+01:00</time>
      </trkpt>
      <trkpt lat="43.66177" lon="6.67128">
        <ele>726</ele>
        <time>2023-03-07T11:19:20+01:00</time>
      </trkpt>
      <trkpt lat="43.66149" lon="6.6714">
        <ele>725</ele>
        <time>2023-03-07T11:19:29+01:00</time>
      </trkpt>
      <trkpt lat="43.66118" lon="6.67154">
        <ele>724</ele>
        <time>2023-03-07T11:19:39+01:00</time>
      </trkpt>
      <trkpt lat="43.66089" lon="6.67167">
        <ele>722</ele>
        <time>2023-03-07T11:19:48+01:00</time>
      </trkpt>
      <trkpt lat="43.66058" lon="6.6718">
        <ele>719</ele>
        <time>2023-03-07T11:19:57+01:00</time>
      </trkpt>
      <trkpt lat="43.66028" lon="6.6719">
        <ele>719</ele>
        <time>2023-03-07T11:20:06+01:00</time>
      </trkpt>
      <trkpt lat="43.65995" lon="6.67189">
        <ele>718</ele>
        <time>2023-03-07T11:20:16+01:00</time>
      </trkpt>
      <trkpt lat="43.65967" lon="6.67185">
        <ele>716</ele>
        <time>2023-03-07T11:20:25+01:00</time>
      </trkpt>
      <trkpt lat="43.65935" lon="6.6718">
        <ele>715</ele>
        <time>2023-03-07T11:20:34+01:00</time>
      </trkpt>
      <trkpt lat="43.65907" lon="6.67164">
        <ele>714</ele>
        <time>2023-03-07T11:20:43+01:00</time>
      </trkpt>
      <trkpt lat="43.65883" lon="6.67145">
        <ele>714</ele>
        <time>2023-03-07T11:20:52+01:00</time>
      </trkpt>
      <trkpt lat="43.65864" lon="6.67116">
        <ele>714</ele>
        <time>2023-03-07T11:21:01+01:00</time>
      </trkpt>
      <trkpt lat="43.65848" lon="6.67084">
        <ele>713</ele>
        <time>2023-03-07T11:21:11+01:00</time>
      </trkpt>
      <trkpt lat="43.65829" lon="6.67052">
        <ele>713</ele>
        <time>2023-03-07T11:21:20+01:00</time>
      </trkpt>
      <trkpt lat="43.65812" lon="6.67022">
        <ele>713</ele>
        <time>2023-03-07T11:21:29+01:00</time>
      </trkpt>
      <trkpt lat="43.65795" lon="6.66991">
        <ele>712</ele>
        <time>2023-03-07T11:21:39+01:00</time>
      </trkpt>
      <trkpt lat="43.65781" lon="6.66962">
        <ele>712</ele>
        <time>2023-03-07T11:21:48+01:00</time>
      </trkpt>
      <trkpt lat="43.65764" lon="6.66932">
        <ele>713</ele>
        <time>2023-03-07T11:21:57+01:00</time>
      </trkpt>
      <trkpt lat="43.65746" lon="6.66903">
        <ele>714</ele>
        <time>2023-03-07T11:22:06+01:00</time>
      </trkpt>
      <trkpt lat="43.6573" lon="6.66873">
        <ele>714</ele>
        <time>2023-03-07T11:22:15+01:00</time>
      </trkpt>
      <trkpt lat="43.6571" lon="6.66839">
        <ele>714</ele>
        <time>2023-03-07T11:22:25+01:00</time>
      </trkpt>
      <trkpt lat="43.65691" lon="6.66804">
        <ele>714</ele>
        <time>2023-03-07T11:22:34+01:00</time>
      </trkpt>
      <trkpt lat="43.65671" lon="6.66771">
        <ele>714</ele>
        <time>2023-03-07T11:22:44+01:00</time>
      </trkpt>
      <trkpt lat="43.65649" lon="6.66744">
        <ele>713</ele>
        <time>2023-03-07T11:22:53+01:00</time>
      </trkpt>
      <trkpt lat="43.65624" lon="6.66719">
        <ele>711</ele>
        <time>2023-03-07T11:23:02+01:00</time>
      </trkpt>
      <trkpt lat="43.65601" lon="6.66693">
        <ele>710</ele>
        <time>2023-03-07T11:23:11+01:00</time>
      </trkpt>
      <trkpt lat="43.65577" lon="6.66666">
        <ele>709</ele>
        <time>2023-03-07T11:23:21+01:00</time>
      </trkpt>
      <trkpt lat="43.65554" lon="6.66644">
        <ele>709</ele>
        <time>2023-03-07T11:23:30+01:00</time>
      </trkpt>
      <trkpt lat="43.65529" lon="6.66618">
        <ele>708</ele>
        <time>2023-03-07T11:23:40+01:00</time>
      </trkpt>
      <trkpt lat="43.65506" lon="6.66591">
        <ele>708</ele>
        <time>2023-03-07T11:23:49+01:00</time>
      </trkpt>
      <trkpt lat="43.6548" lon="6.66565">
        <ele>707</ele>
        <time>2023-03-07T11:23:59+01:00</time>
      </trkpt>
      <trkpt lat="43.65452" lon="6.66542">
        <ele>706</ele>
        <time>2023-03-07T11:24:08+01:00</time>
      </trkpt>
      <trkpt lat="43.65427" lon="6.66519">
        <ele>704</ele>
        <time>2023-03-07T11:24:17+01:00</time>
      </trkpt>
      <trkpt lat="43.65399" lon="6.66491">
        <ele>702</ele>
        <time>2023-03-07T11:24:27+01:00</time>
      </trkpt>
      <trkpt lat="43.65373" lon="6.66466">
        <ele>701</ele>
        <time>2023-03-07T11:24:36+01:00</time>
      </trkpt>
      <trkpt lat="43.65351" lon="6.66447">
        <ele>701</ele>
        <time>2023-03-07T11:24:45+01:00</time>
      </trkpt>
      <trkpt lat="43.65325" lon="6.66425">
        <ele>699</ele>
        <time>2023-03-07T11:24:54+01:00</time>
      </trkpt>
      <trkpt lat="43.65295" lon="6.66417">
        <ele>697</ele>
        <time>2023-03-07T11:25:04+01:00</time>
      </trkpt>
      <trkpt lat="43.65262" lon="6.66409">
        <ele>692</ele>
        <time>2023-03-07T11:25:13+01:00</time>
      </trkpt>
      <trkpt lat="43.65231" lon="6.66401">
        <ele>690</ele>
        <time>2023-03-07T11:25:23+01:00</time>
      </trkpt>
      <trkpt lat="43.65201" lon="6.66393">
        <ele>685</ele>
        <time>2023-03-07T11:25:32+01:00</time>
      </trkpt>
      <trkpt lat="43.65168" lon="6.66384">
        <ele>681</ele>
        <time>2023-03-07T11:25:41+01:00</time>
      </trkpt>
      <trkpt lat="43.65134" lon="6.66386">
        <ele>680</ele>
        <time>2023-03-07T11:25:51+01:00</time>
      </trkpt>
      <trkpt lat="43.65105" lon="6.66417">
        <ele>679</ele>
        <time>2023-03-07T11:26:00+01:00</time>
      </trkpt>
      <trkpt lat="43.65086" lon="6.6645">
        <ele>676</ele>
        <time>2023-03-07T11:26:10+01:00</time>
      </trkpt>
      <trkpt lat="43.65097" lon="6.66493">
        <ele>673</ele>
        <time>2023-03-07T11:26:19+01:00</time>
      </trkpt>
      <trkpt lat="43.651" lon="6.66522">
        <ele>671</ele>
        <time>2023-03-07T11:26:28+01:00</time>
      </trkpt>
      <trkpt lat="43.65084" lon="6.66545">
        <ele>668</ele>
        <time>2023-03-07T11:26:38+01:00</time>
      </trkpt>
      <trkpt lat="43.65067" lon="6.66575">
        <ele>663</ele>
        <time>2023-03-07T11:26:47+01:00</time>
      </trkpt>
      <trkpt lat="43.65049" lon="6.66597">
        <ele>660</ele>
        <time>2023-03-07T11:26:56+01:00</time>
      </trkpt>
      <trkpt lat="43.65044" lon="6.66626">
        <ele>655</ele>
        <time>2023-03-07T11:27:06+01:00</time>
      </trkpt>
      <trkpt lat="43.65052" lon="6.66654">
        <ele>649</ele>
        <time>2023-03-07T11:27:15+01:00</time>
      </trkpt>
      <trkpt lat="43.65047" lon="6.66682">
        <ele>644</ele>
        <time>2023-03-07T11:27:24+01:00</time>
      </trkpt>
      <trkpt lat="43.65035" lon="6.66706">
        <ele>640</ele>
        <time>2023-03-07T11:27:33+01:00</time>
      </trkpt>
      <trkpt lat="43.65015" lon="6.6672">
        <ele>638</ele>
        <time>2023-03-07T11:27:42+01:00</time>
      </trkpt>
      <trkpt lat="43.6501" lon="6.66746">
        <ele>631</ele>
        <time>2023-03-07T11:27:51+01:00</time>
      </trkpt>
      <trkpt lat="43.65005" lon="6.66769">
        <ele>626</ele>
        <time>2023-03-07T11:28:00+01:00</time>
      </trkpt>
      <trkpt lat="43.64992" lon="6.66789">
        <ele>621</ele>
        <time>2023-03-07T11:28:09+01:00</time>
      </trkpt>
      <trkpt lat="43.6497" lon="6.66801">
        <ele>620</ele>
        <time>2023-03-07T11:28:19+01:00</time>
      </trkpt>
      <trkpt lat="43.64944" lon="6.6681">
        <ele>619</ele>
        <time>2023-03-07T11:28:28+01:00</time>
      </trkpt>
      <trkpt lat="43.64923" lon="6.66785">
        <ele>618</ele>
        <time>2023-03-07T11:28:37+01:00</time>
      </trkpt>
      <trkpt lat="43.64915" lon="6.66751">
        <ele>619</ele>
        <time>2023-03-07T11:28:47+01:00</time>
      </trkpt>
      <trkpt lat="43.64909" lon="6.66724">
        <ele>618</ele>
        <time>2023-03-07T11:28:56+01:00</time>
      </trkpt>
      <trkpt lat="43.64901" lon="6.66714">
        <ele>617</ele>
        <time>2023-03-07T11:29:05+01:00</time>
      </trkpt>
      <trkpt lat="43.64892" lon="6.667">
        <ele>616</ele>
        <time>2023-03-07T11:29:15+01:00</time>
      </trkpt>
      <trkpt lat="43.64887" lon="6.66691">
        <ele>616</ele>
        <time>2023-03-07T11:29:24+01:00</time>
      </trkpt>
      <trkpt lat="43.64878" lon="6.66679">
        <ele>614</ele>
        <time>2023-03-07T11:29:34+01:00</time>
      </trkpt>
      <trkpt lat="43.6487" lon="6.66664">
        <ele>614</ele>
        <time>2023-03-07T11:29:44+01:00</time>
      </trkpt>
      <trkpt lat="43.64849" lon="6.66657">
        <ele>611</ele>
        <time>2023-03-07T11:29:53+01:00</time>
      </trkpt>
      <trkpt lat="43.6482" lon="6.6665">
        <ele>609</ele>
        <time>2023-03-07T11:30:02+01:00</time>
      </trkpt>
      <trkpt lat="43.64801" lon="6.6664">
        <ele>609</ele>
        <time>2023-03-07T11:30:12+01:00</time>
      </trkpt>
      <trkpt lat="43.64792" lon="6.66631">
        <ele>610</ele>
        <time>2023-03-07T11:30:21+01:00</time>
      </trkpt>
      <trkpt lat="43.64787" lon="6.6663">
        <ele>610</ele>
        <time>2023-03-07T11:30:31+01:00</time>
      </trkpt>
      <trkpt lat="43.64786" lon="6.66626">
        <ele>610</ele>
        <time>2023-03-07T11:30:41+01:00</time>
      </trkpt>
      <trkpt lat="43.64785" lon="6.66623">
        <ele>610</ele>
        <time>2023-03-07T11:30:51+01:00</time>
      </trkpt>
      <trkpt lat="43.64785" lon="6.6662">
        <ele>610</ele>
        <time>2023-03-07T11:31:00+01:00</time>
      </trkpt>
      <trkpt lat="43.64784" lon="6.66619">
        <ele>610</ele>
        <time>2023-03-07T11:31:11+01:00</time>
      </trkpt>
      <trkpt lat="43.6478" lon="6.66617">
        <ele>609</ele>
        <time>2023-03-07T11:31:21+01:00</time>
      </trkpt>
      <trkpt lat="43.64753" lon="6.66594">
        <ele>606</ele>
        <time>2023-03-07T11:31:30+01:00</time>
      </trkpt>
      <trkpt lat="43.64729" lon="6.66572">
        <ele>601</ele>
        <time>2023-03-07T11:31:40+01:00</time>
      </trkpt>
      <trkpt lat="43.64706" lon="6.66556">
        <ele>596</ele>
        <time>2023-03-07T11:31:49+01:00</time>
      </trkpt>
      <trkpt lat="43.64682" lon="6.66534">
        <ele>592</ele>
        <time>2023-03-07T11:31:58+01:00</time>
      </trkpt>
      <trkpt lat="43.6466" lon="6.66513">
        <ele>588</ele>
        <time>2023-03-07T11:32:07+01:00</time>
      </trkpt>
      <trkpt lat="43.64634" lon="6.66492">
        <ele>584</ele>
        <time>2023-03-07T11:32:17+01:00</time>
      </trkpt>
      <trkpt lat="43.64612" lon="6.66467">
        <ele>583</ele>
        <time>2023-03-07T11:32:26+01:00</time>
      </trkpt>
      <trkpt lat="43.64602" lon="6.66433">
        <ele>584</ele>
        <time>2023-03-07T11:32:35+01:00</time>
      </trkpt>
      <trkpt lat="43.64591" lon="6.66393">
        <ele>579</ele>
        <time>2023-03-07T11:32:44+01:00</time>
      </trkpt>
      <trkpt lat="43.64586" lon="6.66351">
        <ele>574</ele>
        <time>2023-03-07T11:32:53+01:00</time>
      </trkpt>
      <trkpt lat="43.64586" lon="6.66312">
        <ele>570</ele>
        <time>2023-03-07T11:33:03+01:00</time>
      </trkpt>
      <trkpt lat="43.64591" lon="6.66274">
        <ele>568</ele>
        <time>2023-03-07T11:33:12+01:00</time>
      </trkpt>
      <trkpt lat="43.64596" lon="6.6623">
        <ele>562</ele>
        <time>2023-03-07T11:33:21+01:00</time>
      </trkpt>
      <trkpt lat="43.64575" lon="6.66215">
        <ele>553</ele>
        <time>2023-03-07T11:33:31+01:00</time>
      </trkpt>
      <trkpt lat="43.64553" lon="6.66224">
        <ele>551</ele>
        <time>2023-03-07T11:33:40+01:00</time>
      </trkpt>
      <trkpt lat="43.64532" lon="6.66247">
        <ele>549</ele>
        <time>2023-03-07T11:33:49+01:00</time>
      </trkpt>
      <trkpt lat="43.64516" lon="6.66264">
        <ele>550</ele>
        <time>2023-03-07T11:33:59+01:00</time>
      </trkpt>
      <trkpt lat="43.64505" lon="6.66269">
        <ele>552</ele>
        <time>2023-03-07T11:34:08+01:00</time>
      </trkpt>
      <trkpt lat="43.64492" lon="6.66279">
        <ele>553</ele>
        <time>2023-03-07T11:34:18+01:00</time>
      </trkpt>
      <trkpt lat="43.6448" lon="6.66291">
        <ele>556</ele>
        <time>2023-03-07T11:34:28+01:00</time>
      </trkpt>
      <trkpt lat="43.64467" lon="6.66297">
        <ele>559</ele>
        <time>2023-03-07T11:34:37+01:00</time>
      </trkpt>
      <trkpt lat="43.64449" lon="6.66305">
        <ele>563</ele>
        <time>2023-03-07T11:34:46+01:00</time>
      </trkpt>
      <trkpt lat="43.6443" lon="6.66304">
        <ele>564</ele>
        <time>2023-03-07T11:34:56+01:00</time>
      </trkpt>
      <trkpt lat="43.64421" lon="6.66317">
        <ele>563</ele>
        <time>2023-03-07T11:35:05+01:00</time>
      </trkpt>
      <trkpt lat="43.64401" lon="6.66342">
        <ele>561</ele>
        <time>2023-03-07T11:35:14+01:00</time>
      </trkpt>
      <trkpt lat="43.64395" lon="6.66329">
        <ele>560</ele>
        <time>2023-03-07T11:35:24+01:00</time>
      </trkpt>
      <trkpt lat="43.64393" lon="6.66281">
        <ele>557</ele>
      </trkpt>
      <trkpt lat="43.64381" lon="6.66275">
        <ele>552</ele>
        <time>2023-03-07T11:35:33+01:00</time>
      </trkpt>
      <trkpt lat="43.64348" lon="6.66278">
        <ele>547</ele>
        <time>2023-03-07T11:35:42+01:00</time>
      </trkpt>
      <trkpt lat="43.64318" lon="6.6626">
        <ele>542</ele>
        <time>2023-03-07T11:35:51+01:00</time>
      </trkpt>
      <trkpt lat="43.64291" lon="6.66239">
        <ele>537</ele>
        <time>2023-03-07T11:36:00+01:00</time>
      </trkpt>
      <trkpt lat="43.64262" lon="6.66226">
        <ele>532</ele>
        <time>2023-03-07T11:36:10+01:00</time>
      </trkpt>
      <trkpt lat="43.64235" lon="6.66197">
        <ele>528</ele>
        <time>2023-03-07T11:36:19+01:00</time>
      </trkpt>
      <trkpt lat="43.64214" lon="6.6617">
        <ele>524</ele>
        <time>2023-03-07T11:36:28+01:00</time>
      </trkpt>
      <trkpt lat="43.642" lon="6.66126">
        <ele>520</ele>
        <time>2023-03-07T11:36:37+01:00</time>
      </trkpt>
      <trkpt lat="43.64194" lon="6.66088">
        <ele>517</ele>
        <time>2023-03-07T11:36:46+01:00</time>
      </trkpt>
      <trkpt lat="43.64173" lon="6.66068">
        <ele>516</ele>
        <time>2023-03-07T11:36:55+01:00</time>
      </trkpt>
      <trkpt lat="43.64142" lon="6.66063">
        <ele>514</ele>
        <time>2023-03-07T11:37:04+01:00</time>
      </trkpt>
      <trkpt lat="43.64118" lon="6.66052">
        <ele>512</ele>
        <time>2023-03-07T11:37:14+01:00</time>
      </trkpt>
      <trkpt lat="43.64155" lon="6.66031">
        <ele>506</ele>
        <time>2023-03-07T11:37:23+01:00</time>
      </trkpt>
      <trkpt lat="43.64182" lon="6.66015">
        <ele>501</ele>
        <time>2023-03-07T11:37:32+01:00</time>
      </trkpt>
      <trkpt lat="43.64209" lon="6.65992">
        <ele>492</ele>
        <time>2023-03-07T11:37:41+01:00</time>
      </trkpt>
      <trkpt lat="43.64224" lon="6.65943">
        <ele>483</ele>
        <time>2023-03-07T11:37:51+01:00</time>
      </trkpt>
      <trkpt lat="43.64202" lon="6.65913">
        <ele>483</ele>
        <time>2023-03-07T11:38:00+01:00</time>
      </trkpt>
      <trkpt lat="43.64174" lon="6.65892">
        <ele>476</ele>
        <time>2023-03-07T11:38:09+01:00</time>
      </trkpt>
      <trkpt lat="43.64151" lon="6.65865">
        <ele>469</ele>
        <time>2023-03-07T11:38:19+01:00</time>
      </trkpt>
      <trkpt lat="43.64135" lon="6.65874">
        <ele>464</ele>
        <time>2023-03-07T11:38:28+01:00</time>
      </trkpt>
      <trkpt lat="43.64115" lon="6.65821">
        <ele>456</ele>
        <time>2023-03-07T11:38:38+01:00</time>
      </trkpt>
      <trkpt lat="43.641" lon="6.65791">
        <ele>453</ele>
        <time>2023-03-07T11:38:47+01:00</time>
      </trkpt>
      <trkpt lat="43.64075" lon="6.65758">
        <ele>450</ele>
        <time>2023-03-07T11:38:57+01:00</time>
      </trkpt>
      <trkpt lat="43.64044" lon="6.65757">
        <ele>443</ele>
        <time>2023-03-07T11:39:06+01:00</time>
      </trkpt>
      <trkpt lat="43.64015" lon="6.65738">
        <ele>436</ele>
        <time>2023-03-07T11:39:16+01:00</time>
      </trkpt>
      <trkpt lat="43.63991" lon="6.65714">
        <ele>431</ele>
        <time>2023-03-07T11:39:25+01:00</time>
      </trkpt>
      <trkpt lat="43.63965" lon="6.65686">
        <ele>427</ele>
        <time>2023-03-07T11:39:34+01:00</time>
      </trkpt>
      <trkpt lat="43.63943" lon="6.65665">
        <ele>420</ele>
        <time>2023-03-07T11:39:43+01:00</time>
      </trkpt>
      <trkpt lat="43.63924" lon="6.65639">
        <ele>414</ele>
        <time>2023-03-07T11:39:53+01:00</time>
      </trkpt>
      <trkpt lat="43.63897" lon="6.65576">
        <ele>406</ele>
        <time>2023-03-07T11:40:02+01:00</time>
      </trkpt>
      <trkpt lat="43.63897" lon="6.65551">
        <ele>407</ele>
        <time>2023-03-07T11:40:11+01:00</time>
      </trkpt>
      <trkpt lat="43.63891" lon="6.65506">
        <ele>408</ele>
        <time>2023-03-07T11:40:21+01:00</time>
      </trkpt>
      <trkpt lat="43.63883" lon="6.65471">
        <ele>409</ele>
        <time>2023-03-07T11:40:30+01:00</time>
      </trkpt>
      <trkpt lat="43.63871" lon="6.65437">
        <ele>409</ele>
        <time>2023-03-07T11:40:39+01:00</time>
      </trkpt>
      <trkpt lat="43.63859" lon="6.65406">
        <ele>410</ele>
        <time>2023-03-07T11:40:49+01:00</time>
      </trkpt>
      <trkpt lat="43.63847" lon="6.65374">
        <ele>410</ele>
        <time>2023-03-07T11:40:58+01:00</time>
      </trkpt>
      <trkpt lat="43.63837" lon="6.65342">
        <ele>410</ele>
        <time>2023-03-07T11:41:08+01:00</time>
      </trkpt>
      <trkpt lat="43.63833" lon="6.65305">
        <ele>411</ele>
        <time>2023-03-07T11:41:17+01:00</time>
      </trkpt>
      <trkpt lat="43.63841" lon="6.6527">
        <ele>409</ele>
        <time>2023-03-07T11:41:26+01:00</time>
      </trkpt>
      <trkpt lat="43.63856" lon="6.6524">
        <ele>407</ele>
        <time>2023-03-07T11:41:35+01:00</time>
      </trkpt>
      <trkpt lat="43.63876" lon="6.6521">
        <ele>405</ele>
        <time>2023-03-07T11:41:44+01:00</time>
      </trkpt>
      <trkpt lat="43.63891" lon="6.6517">
        <ele>403</ele>
        <time>2023-03-07T11:41:53+01:00</time>
      </trkpt>
      <trkpt lat="43.63895" lon="6.65124">
        <ele>400</ele>
        <time>2023-03-07T11:42:03+01:00</time>
      </trkpt>
      <trkpt lat="43.63897" lon="6.65084">
        <ele>397</ele>
        <time>2023-03-07T11:42:12+01:00</time>
      </trkpt>
      <trkpt lat="43.63906" lon="6.65046">
        <ele>397</ele>
        <time>2023-03-07T11:42:21+01:00</time>
      </trkpt>
      <trkpt lat="43.63917" lon="6.6501">
        <ele>398</ele>
        <time>2023-03-07T11:42:30+01:00</time>
      </trkpt>
      <trkpt lat="43.63925" lon="6.6497">
        <ele>397</ele>
        <time>2023-03-07T11:42:40+01:00</time>
      </trkpt>
      <trkpt lat="43.63934" lon="6.64931">
        <ele>397</ele>
        <time>2023-03-07T11:42:49+01:00</time>
      </trkpt>
      <trkpt lat="43.63925" lon="6.64903">
        <ele>395</ele>
        <time>2023-03-07T11:42:58+01:00</time>
      </trkpt>
      <trkpt lat="43.63901" lon="6.64881">
        <ele>395</ele>
        <time>2023-03-07T11:43:08+01:00</time>
      </trkpt>
      <trkpt lat="43.63878" lon="6.64866">
        <ele>395</ele>
        <time>2023-03-07T11:43:17+01:00</time>
      </trkpt>
      <trkpt lat="43.63862" lon="6.64826">
        <ele>396</ele>
        <time>2023-03-07T11:43:27+01:00</time>
      </trkpt>
      <trkpt lat="43.63844" lon="6.64797">
        <ele>391</ele>
        <time>2023-03-07T11:43:36+01:00</time>
      </trkpt>
      <trkpt lat="43.63824" lon="6.64757">
        <ele>386</ele>
        <time>2023-03-07T11:43:45+01:00</time>
      </trkpt>
      <trkpt lat="43.63805" lon="6.64719">
        <ele>385</ele>
        <time>2023-03-07T11:43:55+01:00</time>
      </trkpt>
      <trkpt lat="43.63788" lon="6.64685">
        <ele>385</ele>
        <time>2023-03-07T11:44:04+01:00</time>
      </trkpt>
      <trkpt lat="43.63776" lon="6.6465">
        <ele>387</ele>
        <time>2023-03-07T11:44:13+01:00</time>
      </trkpt>
      <trkpt lat="43.63765" lon="6.64619">
        <ele>389</ele>
        <time>2023-03-07T11:44:23+01:00</time>
      </trkpt>
      <trkpt lat="43.63752" lon="6.64589">
        <ele>391</ele>
        <time>2023-03-07T11:44:32+01:00</time>
      </trkpt>
      <trkpt lat="43.63738" lon="6.64558">
        <ele>392</ele>
        <time>2023-03-07T11:44:42+01:00</time>
      </trkpt>
      <trkpt lat="43.63727" lon="6.6453">
        <ele>394</ele>
        <time>2023-03-07T11:44:51+01:00</time>
      </trkpt>
      <trkpt lat="43.63713" lon="6.645">
        <ele>395</ele>
        <time>2023-03-07T11:45:01+01:00</time>
      </trkpt>
      <trkpt lat="43.63704" lon="6.64474">
        <ele>395</ele>
        <time>2023-03-07T11:45:10+01:00</time>
      </trkpt>
      <trkpt lat="43.63703" lon="6.64441">
        <ele>393</ele>
        <time>2023-03-07T11:45:20+01:00</time>
      </trkpt>
      <trkpt lat="43.63718" lon="6.64401">
        <ele>394</ele>
        <time>2023-03-07T11:45:29+01:00</time>
      </trkpt>
      <trkpt lat="43.63716" lon="6.6438">
        <ele>394</ele>
        <time>2023-03-07T11:45:38+01:00</time>
      </trkpt>
      <trkpt lat="43.63694" lon="6.64386">
        <ele>392</ele>
        <time>2023-03-07T11:45:48+01:00</time>
      </trkpt>
      <trkpt lat="43.63687" lon="6.64381">
        <ele>393</ele>
        <time>2023-03-07T11:45:57+01:00</time>
      </trkpt>
      <trkpt lat="43.63693" lon="6.6437">
        <ele>395</ele>
        <time>2023-03-07T11:46:06+01:00</time>
      </trkpt>
      <trkpt lat="43.63704" lon="6.64349">
        <ele>400</ele>
        <time>2023-03-07T11:46:15+01:00</time>
      </trkpt>
      <trkpt lat="43.637" lon="6.64336">
        <ele>403</ele>
        <time>2023-03-07T11:46:25+01:00</time>
      </trkpt>
      <trkpt lat="43.63694" lon="6.64318">
        <ele>407</ele>
        <time>2023-03-07T11:46:35+01:00</time>
      </trkpt>
      <trkpt lat="43.63691" lon="6.64306">
        <ele>410</ele>
        <time>2023-03-07T11:46:44+01:00</time>
      </trkpt>
      <trkpt lat="43.63689" lon="6.64294">
        <ele>413</ele>
        <time>2023-03-07T11:46:54+01:00</time>
      </trkpt>
      <trkpt lat="43.63689" lon="6.64286">
        <ele>415</ele>
      </trkpt>
      <trkpt lat="43.63691" lon="6.64279">
        <ele>417</ele>
      </trkpt>
      <trkpt lat="43.63689" lon="6.64274">
        <ele>417</ele>
      </trkpt>
      <trkpt lat="43.63685" lon="6.64273">
        <ele>418</ele>
      </trkpt>
      <trkpt lat="43.63683" lon="6.64269">
        <ele>418</ele>
      </trkpt>
      <trkpt lat="43.6369" lon="6.64269">
        <ele>419</ele>
      </trkpt>
      <trkpt lat="43.63704" lon="6.64259">
        <ele>421</ele>
      </trkpt>
      <trkpt lat="43.63717" lon="6.64261">
        <ele>421</ele>
      </trkpt>
    </trkseg>
  </trk>
</gpx>